<?xml version="1.0" encoding="UTF-8" standalone="no" ?>
<gpx xmlns="http://www.topografix.com/GPX/1/1" xmlns:xsi="http://www.w3.org/2001/XMLSchema-instance" xsi:schemaLocation="http://www.topografix.com/GPX/1/1 http://www.topografix.com/GPX/1/1/gpx.xsd" version="1.1" creator="VisuGPX - https://www.visugpx.com">
  <metadata>
    <name>Moliere coco</name>
    <desc><![CDATA[Lans - croix Perrin - pas de bellecombe - crêtes de la Molière - coco trail - lans]]></desc>
  </metadata>
  <trk>
    <name><![CDATA[Moliere coco_1]]></name>
    <extensions>
      <line xmlns="http://www.topografix.com/GPX/gpx_style/0/2">
        <color>0000FF</color>
        <width>4</width>
      </line>
    </extensions>
    <trkseg>
      <trkpt lat="45.13001" lon="5.58265">
        <ele>1009.904</ele>
        <time>2021-06-26T13:16:29Z</time>
      </trkpt>
      <trkpt lat="45.13001" lon="5.58265">
        <ele>1009.904</ele>
        <time>2021-06-26T13:16:29Z</time>
      </trkpt>
      <trkpt lat="45.13008" lon="5.58247">
        <ele>1010.332</ele>
        <time>2021-06-26T13:16:34Z</time>
      </trkpt>
      <trkpt lat="45.13018" lon="5.58219">
        <ele>1009.042</ele>
        <time>2021-06-26T13:16:39Z</time>
      </trkpt>
      <trkpt lat="45.13029" lon="5.58184">
        <ele>1007.782</ele>
        <time>2021-06-26T13:16:44Z</time>
      </trkpt>
      <trkpt lat="45.13041" lon="5.58149">
        <ele>1007.127</ele>
        <time>2021-06-26T13:16:49Z</time>
      </trkpt>
      <trkpt lat="45.13047" lon="5.58122">
        <ele>1006.933</ele>
        <time>2021-06-26T13:16:54Z</time>
      </trkpt>
      <trkpt lat="45.1305" lon="5.58103">
        <ele>1006.544</ele>
        <time>2021-06-26T13:16:59Z</time>
      </trkpt>
      <trkpt lat="45.13034" lon="5.5809">
        <ele>1007.036</ele>
        <time>2021-06-26T13:17:04Z</time>
      </trkpt>
      <trkpt lat="45.13015" lon="5.58079">
        <ele>1005.402</ele>
        <time>2021-06-26T13:17:09Z</time>
      </trkpt>
      <trkpt lat="45.12999" lon="5.58054">
        <ele>1004.918</ele>
        <time>2021-06-26T13:17:14Z</time>
      </trkpt>
      <trkpt lat="45.12977" lon="5.58038">
        <ele>1004.698</ele>
        <time>2021-06-26T13:17:19Z</time>
      </trkpt>
      <trkpt lat="45.12955" lon="5.5802">
        <ele>1004.936</ele>
        <time>2021-06-26T13:17:24Z</time>
      </trkpt>
      <trkpt lat="45.12928" lon="5.57999">
        <ele>1003.988</ele>
        <time>2021-06-26T13:17:29Z</time>
      </trkpt>
      <trkpt lat="45.129" lon="5.57976">
        <ele>1005.086</ele>
        <time>2021-06-26T13:17:34Z</time>
      </trkpt>
      <trkpt lat="45.12874" lon="5.57957">
        <ele>1004.789</ele>
        <time>2021-06-26T13:17:39Z</time>
      </trkpt>
      <trkpt lat="45.12851" lon="5.57939">
        <ele>1005.701</ele>
        <time>2021-06-26T13:17:44Z</time>
      </trkpt>
      <trkpt lat="45.12827" lon="5.57921">
        <ele>1006.983</ele>
        <time>2021-06-26T13:17:49Z</time>
      </trkpt>
      <trkpt lat="45.12805" lon="5.57904">
        <ele>1007.951</ele>
        <time>2021-06-26T13:17:54Z</time>
      </trkpt>
      <trkpt lat="45.12782" lon="5.57886">
        <ele>1009.009</ele>
        <time>2021-06-26T13:17:59Z</time>
      </trkpt>
      <trkpt lat="45.12763" lon="5.57861">
        <ele>1009.258</ele>
        <time>2021-06-26T13:18:04Z</time>
      </trkpt>
      <trkpt lat="45.12767" lon="5.57829">
        <ele>1009.49</ele>
        <time>2021-06-26T13:18:09Z</time>
      </trkpt>
      <trkpt lat="45.12769" lon="5.57807">
        <ele>1011.114</ele>
        <time>2021-06-26T13:18:14Z</time>
      </trkpt>
      <trkpt lat="45.1277" lon="5.5779">
        <ele>1012.576</ele>
        <time>2021-06-26T13:18:19Z</time>
      </trkpt>
      <trkpt lat="45.12771" lon="5.57775">
        <ele>1012.489</ele>
        <time>2021-06-26T13:18:24Z</time>
      </trkpt>
      <trkpt lat="45.12769" lon="5.57761">
        <ele>1014.76</ele>
        <time>2021-06-26T13:18:29Z</time>
      </trkpt>
      <trkpt lat="45.12768" lon="5.57749">
        <ele>1016.524</ele>
        <time>2021-06-26T13:18:34Z</time>
      </trkpt>
      <trkpt lat="45.12765" lon="5.57735">
        <ele>1016.473</ele>
        <time>2021-06-26T13:18:39Z</time>
      </trkpt>
      <trkpt lat="45.12761" lon="5.57721">
        <ele>1016.858</ele>
        <time>2021-06-26T13:18:44Z</time>
      </trkpt>
      <trkpt lat="45.12757" lon="5.57707">
        <ele>1018.311</ele>
        <time>2021-06-26T13:18:49Z</time>
      </trkpt>
      <trkpt lat="45.12752" lon="5.57694">
        <ele>1019.711</ele>
        <time>2021-06-26T13:18:54Z</time>
      </trkpt>
      <trkpt lat="45.12747" lon="5.57682">
        <ele>1021.082</ele>
        <time>2021-06-26T13:18:59Z</time>
      </trkpt>
      <trkpt lat="45.12742" lon="5.57672">
        <ele>1021.483</ele>
        <time>2021-06-26T13:19:04Z</time>
      </trkpt>
      <trkpt lat="45.12735" lon="5.57662">
        <ele>1022.921</ele>
        <time>2021-06-26T13:19:09Z</time>
      </trkpt>
      <trkpt lat="45.12729" lon="5.57652">
        <ele>1023.78</ele>
        <time>2021-06-26T13:19:14Z</time>
      </trkpt>
      <trkpt lat="45.12722" lon="5.57644">
        <ele>1024.875</ele>
        <time>2021-06-26T13:19:19Z</time>
      </trkpt>
      <trkpt lat="45.12715" lon="5.57636">
        <ele>1026.63</ele>
        <time>2021-06-26T13:19:24Z</time>
      </trkpt>
      <trkpt lat="45.12709" lon="5.57629">
        <ele>1027.273</ele>
        <time>2021-06-26T13:19:29Z</time>
      </trkpt>
      <trkpt lat="45.12701" lon="5.5762">
        <ele>1028.397</ele>
        <time>2021-06-26T13:19:34Z</time>
      </trkpt>
      <trkpt lat="45.12694" lon="5.57612">
        <ele>1029.532</ele>
        <time>2021-06-26T13:19:39Z</time>
      </trkpt>
      <trkpt lat="45.12688" lon="5.57607">
        <ele>1030.338</ele>
        <time>2021-06-26T13:19:44Z</time>
      </trkpt>
      <trkpt lat="45.12681" lon="5.57601">
        <ele>1031.099</ele>
        <time>2021-06-26T13:19:49Z</time>
      </trkpt>
      <trkpt lat="45.12673" lon="5.57595">
        <ele>1032.311</ele>
        <time>2021-06-26T13:19:54Z</time>
      </trkpt>
      <trkpt lat="45.12666" lon="5.57587">
        <ele>1033.008</ele>
        <time>2021-06-26T13:19:59Z</time>
      </trkpt>
      <trkpt lat="45.1266" lon="5.57577">
        <ele>1033.914</ele>
        <time>2021-06-26T13:20:04Z</time>
      </trkpt>
      <trkpt lat="45.12655" lon="5.57569">
        <ele>1035.198</ele>
        <time>2021-06-26T13:20:09Z</time>
      </trkpt>
      <trkpt lat="45.1265" lon="5.57559">
        <ele>1036.063</ele>
        <time>2021-06-26T13:20:14Z</time>
      </trkpt>
      <trkpt lat="45.12645" lon="5.5755">
        <ele>1036.712</ele>
        <time>2021-06-26T13:20:19Z</time>
      </trkpt>
      <trkpt lat="45.1264" lon="5.5754">
        <ele>1037.112</ele>
        <time>2021-06-26T13:20:24Z</time>
      </trkpt>
      <trkpt lat="45.12634" lon="5.57529">
        <ele>1037.799</ele>
        <time>2021-06-26T13:20:29Z</time>
      </trkpt>
      <trkpt lat="45.12629" lon="5.57521">
        <ele>1038.987</ele>
        <time>2021-06-26T13:20:34Z</time>
      </trkpt>
      <trkpt lat="45.12625" lon="5.57514">
        <ele>1039.494</ele>
        <time>2021-06-26T13:20:39Z</time>
      </trkpt>
      <trkpt lat="45.12619" lon="5.57507">
        <ele>1040.621</ele>
        <time>2021-06-26T13:20:44Z</time>
      </trkpt>
      <trkpt lat="45.12614" lon="5.57499">
        <ele>1042.387</ele>
        <time>2021-06-26T13:20:49Z</time>
      </trkpt>
      <trkpt lat="45.12607" lon="5.5749">
        <ele>1043.277</ele>
        <time>2021-06-26T13:20:54Z</time>
      </trkpt>
      <trkpt lat="45.126" lon="5.57481">
        <ele>1043.842</ele>
        <time>2021-06-26T13:20:59Z</time>
      </trkpt>
      <trkpt lat="45.12593" lon="5.57471">
        <ele>1044.247</ele>
        <time>2021-06-26T13:21:04Z</time>
      </trkpt>
      <trkpt lat="45.12586" lon="5.57462">
        <ele>1045.035</ele>
        <time>2021-06-26T13:21:09Z</time>
      </trkpt>
      <trkpt lat="45.12579" lon="5.57453">
        <ele>1046.358</ele>
        <time>2021-06-26T13:21:14Z</time>
      </trkpt>
      <trkpt lat="45.12574" lon="5.57444">
        <ele>1047.01</ele>
        <time>2021-06-26T13:21:19Z</time>
      </trkpt>
      <trkpt lat="45.1257" lon="5.57436">
        <ele>1047.548</ele>
        <time>2021-06-26T13:21:24Z</time>
      </trkpt>
      <trkpt lat="45.12569" lon="5.57424">
        <ele>1048.994</ele>
        <time>2021-06-26T13:21:29Z</time>
      </trkpt>
      <trkpt lat="45.12562" lon="5.57416">
        <ele>1049.746</ele>
        <time>2021-06-26T13:21:34Z</time>
      </trkpt>
      <trkpt lat="45.12556" lon="5.57407">
        <ele>1050.902</ele>
        <time>2021-06-26T13:21:39Z</time>
      </trkpt>
      <trkpt lat="45.12549" lon="5.57397">
        <ele>1051.249</ele>
        <time>2021-06-26T13:21:44Z</time>
      </trkpt>
      <trkpt lat="45.12542" lon="5.5739">
        <ele>1052.363</ele>
        <time>2021-06-26T13:21:49Z</time>
      </trkpt>
      <trkpt lat="45.12534" lon="5.57381">
        <ele>1052.973</ele>
        <time>2021-06-26T13:21:54Z</time>
      </trkpt>
      <trkpt lat="45.12527" lon="5.57373">
        <ele>1053.226</ele>
        <time>2021-06-26T13:21:59Z</time>
      </trkpt>
      <trkpt lat="45.12521" lon="5.57365">
        <ele>1054.446</ele>
        <time>2021-06-26T13:22:04Z</time>
      </trkpt>
      <trkpt lat="45.12515" lon="5.57358">
        <ele>1054.91</ele>
        <time>2021-06-26T13:22:09Z</time>
      </trkpt>
      <trkpt lat="45.12509" lon="5.5735">
        <ele>1055.398</ele>
        <time>2021-06-26T13:22:14Z</time>
      </trkpt>
      <trkpt lat="45.12503" lon="5.57343">
        <ele>1056.375</ele>
        <time>2021-06-26T13:22:19Z</time>
      </trkpt>
      <trkpt lat="45.12499" lon="5.57338">
        <ele>1057.367</ele>
        <time>2021-06-26T13:22:24Z</time>
      </trkpt>
      <trkpt lat="45.12495" lon="5.57334">
        <ele>1059.39</ele>
        <time>2021-06-26T13:22:29Z</time>
      </trkpt>
      <trkpt lat="45.12491" lon="5.57329">
        <ele>1061.316</ele>
        <time>2021-06-26T13:22:34Z</time>
      </trkpt>
      <trkpt lat="45.12486" lon="5.57325">
        <ele>1063.345</ele>
        <time>2021-06-26T13:22:39Z</time>
      </trkpt>
      <trkpt lat="45.12481" lon="5.5732">
        <ele>1065.584</ele>
        <time>2021-06-26T13:22:44Z</time>
      </trkpt>
      <trkpt lat="45.12476" lon="5.57315">
        <ele>1067.175</ele>
        <time>2021-06-26T13:22:49Z</time>
      </trkpt>
      <trkpt lat="45.12471" lon="5.57309">
        <ele>1069.1</ele>
        <time>2021-06-26T13:22:54Z</time>
      </trkpt>
      <trkpt lat="45.12466" lon="5.57303">
        <ele>1070.529</ele>
        <time>2021-06-26T13:22:59Z</time>
      </trkpt>
      <trkpt lat="45.1246" lon="5.57296">
        <ele>1071.434</ele>
        <time>2021-06-26T13:23:04Z</time>
      </trkpt>
      <trkpt lat="45.12454" lon="5.57288">
        <ele>1072.432</ele>
        <time>2021-06-26T13:23:09Z</time>
      </trkpt>
      <trkpt lat="45.12449" lon="5.57281">
        <ele>1073.228</ele>
        <time>2021-06-26T13:23:14Z</time>
      </trkpt>
      <trkpt lat="45.12444" lon="5.57273">
        <ele>1073.983</ele>
        <time>2021-06-26T13:23:19Z</time>
      </trkpt>
      <trkpt lat="45.12438" lon="5.57266">
        <ele>1074.604</ele>
        <time>2021-06-26T13:23:24Z</time>
      </trkpt>
      <trkpt lat="45.12433" lon="5.57261">
        <ele>1075.293</ele>
        <time>2021-06-26T13:23:29Z</time>
      </trkpt>
      <trkpt lat="45.12426" lon="5.57255">
        <ele>1075.782</ele>
        <time>2021-06-26T13:23:34Z</time>
      </trkpt>
      <trkpt lat="45.12421" lon="5.5725">
        <ele>1076.276</ele>
        <time>2021-06-26T13:23:39Z</time>
      </trkpt>
      <trkpt lat="45.12414" lon="5.57244">
        <ele>1077.131</ele>
        <time>2021-06-26T13:23:44Z</time>
      </trkpt>
      <trkpt lat="45.12409" lon="5.5724">
        <ele>1078.09</ele>
        <time>2021-06-26T13:23:49Z</time>
      </trkpt>
      <trkpt lat="45.12402" lon="5.57234">
        <ele>1078.996</ele>
        <time>2021-06-26T13:23:54Z</time>
      </trkpt>
      <trkpt lat="45.12395" lon="5.57227">
        <ele>1079.054</ele>
        <time>2021-06-26T13:23:59Z</time>
      </trkpt>
      <trkpt lat="45.12388" lon="5.57221">
        <ele>1080.458</ele>
        <time>2021-06-26T13:24:04Z</time>
      </trkpt>
      <trkpt lat="45.12382" lon="5.57215">
        <ele>1081.166</ele>
        <time>2021-06-26T13:24:09Z</time>
      </trkpt>
      <trkpt lat="45.12376" lon="5.57209">
        <ele>1082.075</ele>
        <time>2021-06-26T13:24:14Z</time>
      </trkpt>
      <trkpt lat="45.12369" lon="5.57204">
        <ele>1083.259</ele>
        <time>2021-06-26T13:24:19Z</time>
      </trkpt>
      <trkpt lat="45.12362" lon="5.57198">
        <ele>1084.581</ele>
        <time>2021-06-26T13:24:24Z</time>
      </trkpt>
      <trkpt lat="45.12356" lon="5.57191">
        <ele>1085.584</ele>
        <time>2021-06-26T13:24:29Z</time>
      </trkpt>
      <trkpt lat="45.12349" lon="5.57182">
        <ele>1085.017</ele>
        <time>2021-06-26T13:24:34Z</time>
      </trkpt>
      <trkpt lat="45.12341" lon="5.57177">
        <ele>1085.982</ele>
        <time>2021-06-26T13:24:39Z</time>
      </trkpt>
      <trkpt lat="45.12334" lon="5.57172">
        <ele>1086.637</ele>
        <time>2021-06-26T13:24:44Z</time>
      </trkpt>
      <trkpt lat="45.12327" lon="5.57166">
        <ele>1085.838</ele>
        <time>2021-06-26T13:24:49Z</time>
      </trkpt>
      <trkpt lat="45.1232" lon="5.57159">
        <ele>1086.267</ele>
        <time>2021-06-26T13:24:54Z</time>
      </trkpt>
      <trkpt lat="45.12312" lon="5.57152">
        <ele>1086.048</ele>
        <time>2021-06-26T13:24:59Z</time>
      </trkpt>
      <trkpt lat="45.12305" lon="5.57147">
        <ele>1086.413</ele>
        <time>2021-06-26T13:25:04Z</time>
      </trkpt>
      <trkpt lat="45.12298" lon="5.57144">
        <ele>1088.257</ele>
        <time>2021-06-26T13:25:09Z</time>
      </trkpt>
      <trkpt lat="45.12292" lon="5.57138">
        <ele>1089.33</ele>
        <time>2021-06-26T13:25:14Z</time>
      </trkpt>
      <trkpt lat="45.12287" lon="5.57132">
        <ele>1089.317</ele>
        <time>2021-06-26T13:25:19Z</time>
      </trkpt>
      <trkpt lat="45.1228" lon="5.57125">
        <ele>1089.041</ele>
        <time>2021-06-26T13:25:24Z</time>
      </trkpt>
      <trkpt lat="45.12274" lon="5.57118">
        <ele>1088.799</ele>
        <time>2021-06-26T13:25:29Z</time>
      </trkpt>
      <trkpt lat="45.12268" lon="5.57114">
        <ele>1088.576</ele>
        <time>2021-06-26T13:25:34Z</time>
      </trkpt>
      <trkpt lat="45.12261" lon="5.57109">
        <ele>1089.756</ele>
        <time>2021-06-26T13:25:39Z</time>
      </trkpt>
      <trkpt lat="45.12254" lon="5.57106">
        <ele>1090.72</ele>
        <time>2021-06-26T13:25:44Z</time>
      </trkpt>
      <trkpt lat="45.12247" lon="5.57104">
        <ele>1093.084</ele>
        <time>2021-06-26T13:25:49Z</time>
      </trkpt>
      <trkpt lat="45.1224" lon="5.571">
        <ele>1094.774</ele>
        <time>2021-06-26T13:25:54Z</time>
      </trkpt>
      <trkpt lat="45.12234" lon="5.57097">
        <ele>1094.504</ele>
        <time>2021-06-26T13:25:59Z</time>
      </trkpt>
      <trkpt lat="45.12227" lon="5.57092">
        <ele>1096.555</ele>
        <time>2021-06-26T13:26:04Z</time>
      </trkpt>
      <trkpt lat="45.12219" lon="5.5709">
        <ele>1096.879</ele>
        <time>2021-06-26T13:26:09Z</time>
      </trkpt>
      <trkpt lat="45.1221" lon="5.57085">
        <ele>1097.631</ele>
        <time>2021-06-26T13:26:14Z</time>
      </trkpt>
      <trkpt lat="45.12202" lon="5.57079">
        <ele>1096.62</ele>
        <time>2021-06-26T13:26:19Z</time>
      </trkpt>
      <trkpt lat="45.12194" lon="5.57075">
        <ele>1097.827</ele>
        <time>2021-06-26T13:26:24Z</time>
      </trkpt>
      <trkpt lat="45.12187" lon="5.57068">
        <ele>1095.679</ele>
        <time>2021-06-26T13:26:29Z</time>
      </trkpt>
      <trkpt lat="45.12181" lon="5.57063">
        <ele>1096.231</ele>
        <time>2021-06-26T13:26:34Z</time>
      </trkpt>
      <trkpt lat="45.12173" lon="5.5706">
        <ele>1096.493</ele>
        <time>2021-06-26T13:26:39Z</time>
      </trkpt>
      <trkpt lat="45.12165" lon="5.57056">
        <ele>1096.562</ele>
        <time>2021-06-26T13:26:44Z</time>
      </trkpt>
      <trkpt lat="45.12157" lon="5.57053">
        <ele>1097.038</ele>
        <time>2021-06-26T13:26:49Z</time>
      </trkpt>
      <trkpt lat="45.12148" lon="5.57047">
        <ele>1096.853</ele>
        <time>2021-06-26T13:26:54Z</time>
      </trkpt>
      <trkpt lat="45.12139" lon="5.57042">
        <ele>1097.773</ele>
        <time>2021-06-26T13:26:59Z</time>
      </trkpt>
      <trkpt lat="45.12129" lon="5.57037">
        <ele>1098.462</ele>
        <time>2021-06-26T13:27:04Z</time>
      </trkpt>
      <trkpt lat="45.1212" lon="5.57034">
        <ele>1099.589</ele>
        <time>2021-06-26T13:27:09Z</time>
      </trkpt>
      <trkpt lat="45.12113" lon="5.5703">
        <ele>1100.561</ele>
        <time>2021-06-26T13:27:14Z</time>
      </trkpt>
      <trkpt lat="45.12104" lon="5.57025">
        <ele>1101.582</ele>
        <time>2021-06-26T13:27:19Z</time>
      </trkpt>
      <trkpt lat="45.12097" lon="5.57021">
        <ele>1102.939</ele>
        <time>2021-06-26T13:27:24Z</time>
      </trkpt>
      <trkpt lat="45.12088" lon="5.57017">
        <ele>1105.578</ele>
        <time>2021-06-26T13:27:29Z</time>
      </trkpt>
      <trkpt lat="45.12081" lon="5.57012">
        <ele>1106.37</ele>
        <time>2021-06-26T13:27:34Z</time>
      </trkpt>
      <trkpt lat="45.12074" lon="5.57006">
        <ele>1107.24</ele>
        <time>2021-06-26T13:27:39Z</time>
      </trkpt>
      <trkpt lat="45.12067" lon="5.57">
        <ele>1108.369</ele>
        <time>2021-06-26T13:27:44Z</time>
      </trkpt>
      <trkpt lat="45.1206" lon="5.56995">
        <ele>1109.625</ele>
        <time>2021-06-26T13:27:49Z</time>
      </trkpt>
      <trkpt lat="45.12053" lon="5.56987">
        <ele>1110.343</ele>
        <time>2021-06-26T13:27:54Z</time>
      </trkpt>
      <trkpt lat="45.12046" lon="5.56979">
        <ele>1111.036</ele>
        <time>2021-06-26T13:27:59Z</time>
      </trkpt>
      <trkpt lat="45.12038" lon="5.56972">
        <ele>1111.998</ele>
        <time>2021-06-26T13:28:04Z</time>
      </trkpt>
      <trkpt lat="45.12031" lon="5.56966">
        <ele>1112.431</ele>
        <time>2021-06-26T13:28:09Z</time>
      </trkpt>
      <trkpt lat="45.12024" lon="5.56959">
        <ele>1113.349</ele>
        <time>2021-06-26T13:28:14Z</time>
      </trkpt>
      <trkpt lat="45.12017" lon="5.56954">
        <ele>1114.783</ele>
        <time>2021-06-26T13:28:19Z</time>
      </trkpt>
      <trkpt lat="45.1201" lon="5.56949">
        <ele>1115.263</ele>
        <time>2021-06-26T13:28:24Z</time>
      </trkpt>
      <trkpt lat="45.12002" lon="5.56944">
        <ele>1115.695</ele>
        <time>2021-06-26T13:28:29Z</time>
      </trkpt>
      <trkpt lat="45.11995" lon="5.5694">
        <ele>1115.663</ele>
        <time>2021-06-26T13:28:34Z</time>
      </trkpt>
      <trkpt lat="45.11987" lon="5.56935">
        <ele>1116.406</ele>
        <time>2021-06-26T13:28:39Z</time>
      </trkpt>
      <trkpt lat="45.11978" lon="5.56929">
        <ele>1117.093</ele>
        <time>2021-06-26T13:28:44Z</time>
      </trkpt>
      <trkpt lat="45.11969" lon="5.56926">
        <ele>1117.508</ele>
        <time>2021-06-26T13:28:49Z</time>
      </trkpt>
      <trkpt lat="45.11963" lon="5.56923">
        <ele>1118.263</ele>
        <time>2021-06-26T13:28:54Z</time>
      </trkpt>
      <trkpt lat="45.11955" lon="5.56921">
        <ele>1119.277</ele>
        <time>2021-06-26T13:28:59Z</time>
      </trkpt>
      <trkpt lat="45.11948" lon="5.56917">
        <ele>1120.354</ele>
        <time>2021-06-26T13:29:04Z</time>
      </trkpt>
      <trkpt lat="45.1194" lon="5.56913">
        <ele>1121.583</ele>
        <time>2021-06-26T13:29:09Z</time>
      </trkpt>
      <trkpt lat="45.11932" lon="5.5691">
        <ele>1122.796</ele>
        <time>2021-06-26T13:29:14Z</time>
      </trkpt>
      <trkpt lat="45.11924" lon="5.56904">
        <ele>1123.728</ele>
        <time>2021-06-26T13:29:19Z</time>
      </trkpt>
      <trkpt lat="45.11917" lon="5.569">
        <ele>1124.462</ele>
        <time>2021-06-26T13:29:24Z</time>
      </trkpt>
      <trkpt lat="45.1191" lon="5.56894">
        <ele>1125.183</ele>
        <time>2021-06-26T13:29:29Z</time>
      </trkpt>
      <trkpt lat="45.11903" lon="5.5689">
        <ele>1126.913</ele>
        <time>2021-06-26T13:29:34Z</time>
      </trkpt>
      <trkpt lat="45.11894" lon="5.56885">
        <ele>1127.567</ele>
        <time>2021-06-26T13:29:39Z</time>
      </trkpt>
      <trkpt lat="45.11886" lon="5.56881">
        <ele>1128.486</ele>
        <time>2021-06-26T13:29:44Z</time>
      </trkpt>
      <trkpt lat="45.11879" lon="5.56875">
        <ele>1130.197</ele>
        <time>2021-06-26T13:29:49Z</time>
      </trkpt>
      <trkpt lat="45.11871" lon="5.56868">
        <ele>1131.698</ele>
        <time>2021-06-26T13:29:54Z</time>
      </trkpt>
      <trkpt lat="45.11867" lon="5.56859">
        <ele>1133.105</ele>
        <time>2021-06-26T13:29:59Z</time>
      </trkpt>
      <trkpt lat="45.11871" lon="5.5685">
        <ele>1133.853</ele>
        <time>2021-06-26T13:30:04Z</time>
      </trkpt>
      <trkpt lat="45.11875" lon="5.56844">
        <ele>1134.288</ele>
        <time>2021-06-26T13:30:09Z</time>
      </trkpt>
      <trkpt lat="45.11881" lon="5.56837">
        <ele>1137.01</ele>
        <time>2021-06-26T13:30:14Z</time>
      </trkpt>
      <trkpt lat="45.11887" lon="5.56829">
        <ele>1139.576</ele>
        <time>2021-06-26T13:30:19Z</time>
      </trkpt>
      <trkpt lat="45.11891" lon="5.56818">
        <ele>1141.963</ele>
        <time>2021-06-26T13:30:24Z</time>
      </trkpt>
      <trkpt lat="45.11894" lon="5.56807">
        <ele>1141.719</ele>
        <time>2021-06-26T13:30:29Z</time>
      </trkpt>
      <trkpt lat="45.11897" lon="5.56797">
        <ele>1141.677</ele>
        <time>2021-06-26T13:30:34Z</time>
      </trkpt>
      <trkpt lat="45.119" lon="5.56786">
        <ele>1141.911</ele>
        <time>2021-06-26T13:30:39Z</time>
      </trkpt>
      <trkpt lat="45.11903" lon="5.56774">
        <ele>1142.341</ele>
        <time>2021-06-26T13:30:44Z</time>
      </trkpt>
      <trkpt lat="45.11907" lon="5.56763">
        <ele>1143.036</ele>
        <time>2021-06-26T13:30:49Z</time>
      </trkpt>
      <trkpt lat="45.11911" lon="5.56753">
        <ele>1144.517</ele>
        <time>2021-06-26T13:30:54Z</time>
      </trkpt>
      <trkpt lat="45.11915" lon="5.56742">
        <ele>1145.961</ele>
        <time>2021-06-26T13:30:59Z</time>
      </trkpt>
      <trkpt lat="45.11919" lon="5.56731">
        <ele>1144.794</ele>
        <time>2021-06-26T13:31:04Z</time>
      </trkpt>
      <trkpt lat="45.11923" lon="5.56719">
        <ele>1145.359</ele>
        <time>2021-06-26T13:31:09Z</time>
      </trkpt>
      <trkpt lat="45.11928" lon="5.56707">
        <ele>1146.432</ele>
        <time>2021-06-26T13:31:14Z</time>
      </trkpt>
      <trkpt lat="45.11934" lon="5.56695">
        <ele>1147.922</ele>
        <time>2021-06-26T13:31:19Z</time>
      </trkpt>
      <trkpt lat="45.1194" lon="5.56684">
        <ele>1149.547</ele>
        <time>2021-06-26T13:31:24Z</time>
      </trkpt>
      <trkpt lat="45.11946" lon="5.56673">
        <ele>1151.35</ele>
        <time>2021-06-26T13:31:29Z</time>
      </trkpt>
      <trkpt lat="45.11952" lon="5.56665">
        <ele>1152.681</ele>
        <time>2021-06-26T13:31:34Z</time>
      </trkpt>
      <trkpt lat="45.11958" lon="5.56655">
        <ele>1151.209</ele>
        <time>2021-06-26T13:31:39Z</time>
      </trkpt>
      <trkpt lat="45.11965" lon="5.56645">
        <ele>1151.841</ele>
        <time>2021-06-26T13:31:44Z</time>
      </trkpt>
      <trkpt lat="45.11972" lon="5.56636">
        <ele>1152.39</ele>
        <time>2021-06-26T13:31:49Z</time>
      </trkpt>
      <trkpt lat="45.11978" lon="5.56625">
        <ele>1152.3</ele>
        <time>2021-06-26T13:31:54Z</time>
      </trkpt>
      <trkpt lat="45.11983" lon="5.56616">
        <ele>1152.259</ele>
        <time>2021-06-26T13:31:59Z</time>
      </trkpt>
      <trkpt lat="45.1199" lon="5.56606">
        <ele>1152.706</ele>
        <time>2021-06-26T13:32:04Z</time>
      </trkpt>
      <trkpt lat="45.11998" lon="5.56598">
        <ele>1154.053</ele>
        <time>2021-06-26T13:32:09Z</time>
      </trkpt>
      <trkpt lat="45.12006" lon="5.56593">
        <ele>1154.953</ele>
        <time>2021-06-26T13:32:14Z</time>
      </trkpt>
      <trkpt lat="45.12015" lon="5.56591">
        <ele>1156.536</ele>
        <time>2021-06-26T13:32:19Z</time>
      </trkpt>
      <trkpt lat="45.12023" lon="5.56589">
        <ele>1158.358</ele>
        <time>2021-06-26T13:32:24Z</time>
      </trkpt>
      <trkpt lat="45.12032" lon="5.56589">
        <ele>1158.313</ele>
        <time>2021-06-26T13:32:29Z</time>
      </trkpt>
      <trkpt lat="45.12039" lon="5.56589">
        <ele>1158.463</ele>
        <time>2021-06-26T13:32:34Z</time>
      </trkpt>
      <trkpt lat="45.12049" lon="5.56588">
        <ele>1159.784</ele>
        <time>2021-06-26T13:32:39Z</time>
      </trkpt>
      <trkpt lat="45.12054" lon="5.56578">
        <ele>1161.708</ele>
        <time>2021-06-26T13:32:44Z</time>
      </trkpt>
      <trkpt lat="45.12056" lon="5.5657">
        <ele>1162.072</ele>
        <time>2021-06-26T13:32:49Z</time>
      </trkpt>
      <trkpt lat="45.12055" lon="5.56561">
        <ele>1161.829</ele>
        <time>2021-06-26T13:32:54Z</time>
      </trkpt>
      <trkpt lat="45.1205" lon="5.56554">
        <ele>1160.543</ele>
        <time>2021-06-26T13:32:59Z</time>
      </trkpt>
      <trkpt lat="45.12045" lon="5.5655">
        <ele>1162.194</ele>
        <time>2021-06-26T13:33:04Z</time>
      </trkpt>
      <trkpt lat="45.12039" lon="5.56543">
        <ele>1163.486</ele>
        <time>2021-06-26T13:33:09Z</time>
      </trkpt>
      <trkpt lat="45.12034" lon="5.56534">
        <ele>1163.359</ele>
        <time>2021-06-26T13:33:14Z</time>
      </trkpt>
      <trkpt lat="45.1203" lon="5.56521">
        <ele>1163.412</ele>
        <time>2021-06-26T13:33:19Z</time>
      </trkpt>
      <trkpt lat="45.12025" lon="5.5651">
        <ele>1165.133</ele>
        <time>2021-06-26T13:33:24Z</time>
      </trkpt>
      <trkpt lat="45.12019" lon="5.56502">
        <ele>1165.921</ele>
        <time>2021-06-26T13:33:29Z</time>
      </trkpt>
      <trkpt lat="45.12012" lon="5.56498">
        <ele>1167.536</ele>
        <time>2021-06-26T13:33:34Z</time>
      </trkpt>
      <trkpt lat="45.12004" lon="5.56494">
        <ele>1167.236</ele>
        <time>2021-06-26T13:33:39Z</time>
      </trkpt>
      <trkpt lat="45.11994" lon="5.56488">
        <ele>1169.36</ele>
        <time>2021-06-26T13:33:44Z</time>
      </trkpt>
      <trkpt lat="45.11987" lon="5.56481">
        <ele>1169.665</ele>
        <time>2021-06-26T13:33:49Z</time>
      </trkpt>
      <trkpt lat="45.11979" lon="5.5647">
        <ele>1171.174</ele>
        <time>2021-06-26T13:33:54Z</time>
      </trkpt>
      <trkpt lat="45.11974" lon="5.56458">
        <ele>1172.915</ele>
        <time>2021-06-26T13:33:59Z</time>
      </trkpt>
      <trkpt lat="45.11969" lon="5.56445">
        <ele>1173.914</ele>
        <time>2021-06-26T13:34:04Z</time>
      </trkpt>
      <trkpt lat="45.11971" lon="5.56428">
        <ele>1174.643</ele>
        <time>2021-06-26T13:34:09Z</time>
      </trkpt>
      <trkpt lat="45.11975" lon="5.56415">
        <ele>1175.76</ele>
        <time>2021-06-26T13:34:14Z</time>
      </trkpt>
      <trkpt lat="45.11982" lon="5.56402">
        <ele>1176.903</ele>
        <time>2021-06-26T13:34:19Z</time>
      </trkpt>
      <trkpt lat="45.11992" lon="5.56393">
        <ele>1178.089</ele>
        <time>2021-06-26T13:34:24Z</time>
      </trkpt>
      <trkpt lat="45.12002" lon="5.56389">
        <ele>1177.525</ele>
        <time>2021-06-26T13:34:29Z</time>
      </trkpt>
      <trkpt lat="45.12014" lon="5.56388">
        <ele>1177.54</ele>
        <time>2021-06-26T13:34:34Z</time>
      </trkpt>
      <trkpt lat="45.12025" lon="5.56391">
        <ele>1177.672</ele>
        <time>2021-06-26T13:34:39Z</time>
      </trkpt>
      <trkpt lat="45.12036" lon="5.56388">
        <ele>1180.299</ele>
        <time>2021-06-26T13:34:44Z</time>
      </trkpt>
      <trkpt lat="45.12048" lon="5.56386">
        <ele>1181.929</ele>
        <time>2021-06-26T13:34:49Z</time>
      </trkpt>
      <trkpt lat="45.12061" lon="5.56389">
        <ele>1182.272</ele>
        <time>2021-06-26T13:34:54Z</time>
      </trkpt>
      <trkpt lat="45.12075" lon="5.56396">
        <ele>1181.131</ele>
        <time>2021-06-26T13:34:59Z</time>
      </trkpt>
      <trkpt lat="45.12088" lon="5.564">
        <ele>1181.939</ele>
        <time>2021-06-26T13:35:04Z</time>
      </trkpt>
      <trkpt lat="45.12102" lon="5.56405">
        <ele>1183.221</ele>
        <time>2021-06-26T13:35:09Z</time>
      </trkpt>
      <trkpt lat="45.12114" lon="5.56411">
        <ele>1183.833</ele>
        <time>2021-06-26T13:35:14Z</time>
      </trkpt>
      <trkpt lat="45.12127" lon="5.56415">
        <ele>1185.2</ele>
        <time>2021-06-26T13:35:19Z</time>
      </trkpt>
      <trkpt lat="45.12139" lon="5.56416">
        <ele>1187.913</ele>
        <time>2021-06-26T13:35:24Z</time>
      </trkpt>
      <trkpt lat="45.12152" lon="5.56414">
        <ele>1189.284</ele>
        <time>2021-06-26T13:35:29Z</time>
      </trkpt>
      <trkpt lat="45.12165" lon="5.56415">
        <ele>1189.449</ele>
        <time>2021-06-26T13:35:34Z</time>
      </trkpt>
      <trkpt lat="45.12179" lon="5.56419">
        <ele>1189.195</ele>
        <time>2021-06-26T13:35:39Z</time>
      </trkpt>
      <trkpt lat="45.1219" lon="5.56421">
        <ele>1189.905</ele>
        <time>2021-06-26T13:35:44Z</time>
      </trkpt>
      <trkpt lat="45.12201" lon="5.56422">
        <ele>1189.668</ele>
        <time>2021-06-26T13:35:49Z</time>
      </trkpt>
      <trkpt lat="45.12212" lon="5.56423">
        <ele>1189.788</ele>
        <time>2021-06-26T13:35:54Z</time>
      </trkpt>
      <trkpt lat="45.12224" lon="5.56421">
        <ele>1189.889</ele>
        <time>2021-06-26T13:35:59Z</time>
      </trkpt>
      <trkpt lat="45.12234" lon="5.56422">
        <ele>1188.814</ele>
        <time>2021-06-26T13:36:04Z</time>
      </trkpt>
      <trkpt lat="45.12243" lon="5.56417">
        <ele>1191.2</ele>
        <time>2021-06-26T13:36:09Z</time>
      </trkpt>
      <trkpt lat="45.12248" lon="5.56408">
        <ele>1193.9</ele>
        <time>2021-06-26T13:36:14Z</time>
      </trkpt>
      <trkpt lat="45.12251" lon="5.56394">
        <ele>1195.127</ele>
        <time>2021-06-26T13:36:19Z</time>
      </trkpt>
      <trkpt lat="45.12254" lon="5.56381">
        <ele>1196.627</ele>
        <time>2021-06-26T13:36:24Z</time>
      </trkpt>
      <trkpt lat="45.12258" lon="5.56367">
        <ele>1197.902</ele>
        <time>2021-06-26T13:36:29Z</time>
      </trkpt>
      <trkpt lat="45.12263" lon="5.56353">
        <ele>1199.11</ele>
        <time>2021-06-26T13:36:34Z</time>
      </trkpt>
      <trkpt lat="45.12269" lon="5.5634">
        <ele>1199.899</ele>
        <time>2021-06-26T13:36:39Z</time>
      </trkpt>
      <trkpt lat="45.12274" lon="5.56326">
        <ele>1200.91</ele>
        <time>2021-06-26T13:36:44Z</time>
      </trkpt>
      <trkpt lat="45.12279" lon="5.56312">
        <ele>1201.869</ele>
        <time>2021-06-26T13:36:49Z</time>
      </trkpt>
      <trkpt lat="45.12284" lon="5.56297">
        <ele>1203.422</ele>
        <time>2021-06-26T13:36:54Z</time>
      </trkpt>
      <trkpt lat="45.1229" lon="5.56282">
        <ele>1204.164</ele>
        <time>2021-06-26T13:36:59Z</time>
      </trkpt>
      <trkpt lat="45.12299" lon="5.56264">
        <ele>1203.631</ele>
        <time>2021-06-26T13:37:04Z</time>
      </trkpt>
      <trkpt lat="45.12306" lon="5.56249">
        <ele>1203.296</ele>
        <time>2021-06-26T13:37:09Z</time>
      </trkpt>
      <trkpt lat="45.12314" lon="5.56234">
        <ele>1203.314</ele>
        <time>2021-06-26T13:37:14Z</time>
      </trkpt>
      <trkpt lat="45.12325" lon="5.56216">
        <ele>1203.224</ele>
        <time>2021-06-26T13:37:19Z</time>
      </trkpt>
      <trkpt lat="45.1234" lon="5.56194">
        <ele>1201.367</ele>
        <time>2021-06-26T13:37:24Z</time>
      </trkpt>
      <trkpt lat="45.12363" lon="5.56179">
        <ele>1198.433</ele>
        <time>2021-06-26T13:37:29Z</time>
      </trkpt>
      <trkpt lat="45.12391" lon="5.5619">
        <ele>1194.126</ele>
        <time>2021-06-26T13:37:34Z</time>
      </trkpt>
      <trkpt lat="45.12426" lon="5.56216">
        <ele>1186.573</ele>
        <time>2021-06-26T13:37:39Z</time>
      </trkpt>
      <trkpt lat="45.1244" lon="5.562">
        <ele>1184.586</ele>
        <time>2021-06-26T13:37:43Z</time>
      </trkpt>
      <trkpt lat="45.12448" lon="5.56166">
        <ele>1184.757</ele>
        <time>2021-06-26T13:37:49Z</time>
      </trkpt>
      <trkpt lat="45.12455" lon="5.56148">
        <ele>1183.745</ele>
        <time>2021-06-26T13:37:54Z</time>
      </trkpt>
      <trkpt lat="45.12464" lon="5.56135">
        <ele>1183.092</ele>
        <time>2021-06-26T13:37:59Z</time>
      </trkpt>
      <trkpt lat="45.1247" lon="5.5612">
        <ele>1183.311</ele>
        <time>2021-06-26T13:38:04Z</time>
      </trkpt>
      <trkpt lat="45.12472" lon="5.56113">
        <ele>1183.767</ele>
        <time>2021-06-26T13:38:09Z</time>
      </trkpt>
      <trkpt lat="45.12471" lon="5.56112">
        <ele>1183.197</ele>
        <time>2021-06-26T13:38:14Z</time>
      </trkpt>
      <trkpt lat="45.12472" lon="5.5611">
        <ele>1185.271</ele>
        <time>2021-06-26T13:38:19Z</time>
      </trkpt>
      <trkpt lat="45.12472" lon="5.5611">
        <ele>1186.111</ele>
        <time>2021-06-26T13:38:24Z</time>
      </trkpt>
      <trkpt lat="45.12472" lon="5.5611">
        <ele>1186.315</ele>
        <time>2021-06-26T13:38:29Z</time>
      </trkpt>
      <trkpt lat="45.12472" lon="5.5611">
        <ele>1186.323</ele>
        <time>2021-06-26T13:38:34Z</time>
      </trkpt>
      <trkpt lat="45.12472" lon="5.5611">
        <ele>1186.331</ele>
        <time>2021-06-26T13:38:39Z</time>
      </trkpt>
      <trkpt lat="45.12472" lon="5.5611">
        <ele>1185.922</ele>
        <time>2021-06-26T13:38:44Z</time>
      </trkpt>
      <trkpt lat="45.12472" lon="5.56102">
        <ele>1184.938</ele>
        <time>2021-06-26T13:38:49Z</time>
      </trkpt>
      <trkpt lat="45.12474" lon="5.56088">
        <ele>1184.539</ele>
        <time>2021-06-26T13:38:54Z</time>
      </trkpt>
      <trkpt lat="45.12478" lon="5.56073">
        <ele>1185.1</ele>
        <time>2021-06-26T13:38:59Z</time>
      </trkpt>
      <trkpt lat="45.12486" lon="5.56061">
        <ele>1185.992</ele>
        <time>2021-06-26T13:39:04Z</time>
      </trkpt>
      <trkpt lat="45.12496" lon="5.56049">
        <ele>1185.517</ele>
        <time>2021-06-26T13:39:09Z</time>
      </trkpt>
      <trkpt lat="45.12507" lon="5.56038">
        <ele>1185.438</ele>
        <time>2021-06-26T13:39:14Z</time>
      </trkpt>
      <trkpt lat="45.12517" lon="5.56027">
        <ele>1184.513</ele>
        <time>2021-06-26T13:39:19Z</time>
      </trkpt>
      <trkpt lat="45.12525" lon="5.56015">
        <ele>1186.373</ele>
        <time>2021-06-26T13:39:24Z</time>
      </trkpt>
      <trkpt lat="45.12534" lon="5.56005">
        <ele>1187.095</ele>
        <time>2021-06-26T13:39:29Z</time>
      </trkpt>
      <trkpt lat="45.12541" lon="5.55992">
        <ele>1189.157</ele>
        <time>2021-06-26T13:39:34Z</time>
      </trkpt>
      <trkpt lat="45.1255" lon="5.5598">
        <ele>1189.504</ele>
        <time>2021-06-26T13:39:39Z</time>
      </trkpt>
      <trkpt lat="45.12558" lon="5.55968">
        <ele>1191.596</ele>
        <time>2021-06-26T13:39:44Z</time>
      </trkpt>
      <trkpt lat="45.12566" lon="5.55955">
        <ele>1191.695</ele>
        <time>2021-06-26T13:39:49Z</time>
      </trkpt>
      <trkpt lat="45.12576" lon="5.55946">
        <ele>1193.328</ele>
        <time>2021-06-26T13:39:54Z</time>
      </trkpt>
      <trkpt lat="45.12588" lon="5.55938">
        <ele>1194.352</ele>
        <time>2021-06-26T13:39:59Z</time>
      </trkpt>
      <trkpt lat="45.126" lon="5.55932">
        <ele>1195.204</ele>
        <time>2021-06-26T13:40:04Z</time>
      </trkpt>
      <trkpt lat="45.12613" lon="5.55927">
        <ele>1196.395</ele>
        <time>2021-06-26T13:40:09Z</time>
      </trkpt>
      <trkpt lat="45.12627" lon="5.55924">
        <ele>1198.353</ele>
        <time>2021-06-26T13:40:14Z</time>
      </trkpt>
      <trkpt lat="45.12641" lon="5.55922">
        <ele>1196.19</ele>
        <time>2021-06-26T13:40:19Z</time>
      </trkpt>
      <trkpt lat="45.12656" lon="5.55928">
        <ele>1194.724</ele>
        <time>2021-06-26T13:40:24Z</time>
      </trkpt>
      <trkpt lat="45.12669" lon="5.55934">
        <ele>1195.606</ele>
        <time>2021-06-26T13:40:29Z</time>
      </trkpt>
      <trkpt lat="45.12683" lon="5.55941">
        <ele>1196.019</ele>
        <time>2021-06-26T13:40:34Z</time>
      </trkpt>
      <trkpt lat="45.12698" lon="5.55949">
        <ele>1198.439</ele>
        <time>2021-06-26T13:40:39Z</time>
      </trkpt>
      <trkpt lat="45.12711" lon="5.55955">
        <ele>1201.527</ele>
        <time>2021-06-26T13:40:44Z</time>
      </trkpt>
      <trkpt lat="45.12723" lon="5.5596">
        <ele>1202.699</ele>
        <time>2021-06-26T13:40:49Z</time>
      </trkpt>
      <trkpt lat="45.12734" lon="5.55966">
        <ele>1203.876</ele>
        <time>2021-06-26T13:40:54Z</time>
      </trkpt>
      <trkpt lat="45.12745" lon="5.55969">
        <ele>1206.7</ele>
        <time>2021-06-26T13:40:59Z</time>
      </trkpt>
      <trkpt lat="45.12757" lon="5.55971">
        <ele>1208.254</ele>
        <time>2021-06-26T13:41:04Z</time>
      </trkpt>
      <trkpt lat="45.12767" lon="5.55973">
        <ele>1209.339</ele>
        <time>2021-06-26T13:41:09Z</time>
      </trkpt>
      <trkpt lat="45.1278" lon="5.55978">
        <ele>1207.407</ele>
        <time>2021-06-26T13:41:14Z</time>
      </trkpt>
      <trkpt lat="45.12793" lon="5.55982">
        <ele>1206.173</ele>
        <time>2021-06-26T13:41:19Z</time>
      </trkpt>
      <trkpt lat="45.12806" lon="5.55987">
        <ele>1205.409</ele>
        <time>2021-06-26T13:41:24Z</time>
      </trkpt>
      <trkpt lat="45.12819" lon="5.5599">
        <ele>1205.259</ele>
        <time>2021-06-26T13:41:29Z</time>
      </trkpt>
      <trkpt lat="45.12832" lon="5.55992">
        <ele>1204.433</ele>
        <time>2021-06-26T13:41:34Z</time>
      </trkpt>
      <trkpt lat="45.12845" lon="5.55995">
        <ele>1204.512</ele>
        <time>2021-06-26T13:41:39Z</time>
      </trkpt>
      <trkpt lat="45.12857" lon="5.55996">
        <ele>1205.25</ele>
        <time>2021-06-26T13:41:44Z</time>
      </trkpt>
      <trkpt lat="45.12869" lon="5.55997">
        <ele>1205.735</ele>
        <time>2021-06-26T13:41:49Z</time>
      </trkpt>
      <trkpt lat="45.12883" lon="5.55997">
        <ele>1206.132</ele>
        <time>2021-06-26T13:41:54Z</time>
      </trkpt>
      <trkpt lat="45.12895" lon="5.55996">
        <ele>1208.611</ele>
        <time>2021-06-26T13:41:59Z</time>
      </trkpt>
      <trkpt lat="45.12907" lon="5.55994">
        <ele>1209.152</ele>
        <time>2021-06-26T13:42:04Z</time>
      </trkpt>
      <trkpt lat="45.12919" lon="5.55994">
        <ele>1209.744</ele>
        <time>2021-06-26T13:42:09Z</time>
      </trkpt>
      <trkpt lat="45.12932" lon="5.55994">
        <ele>1210.765</ele>
        <time>2021-06-26T13:42:14Z</time>
      </trkpt>
      <trkpt lat="45.12944" lon="5.55994">
        <ele>1211.702</ele>
        <time>2021-06-26T13:42:19Z</time>
      </trkpt>
      <trkpt lat="45.12955" lon="5.55993">
        <ele>1212.995</ele>
        <time>2021-06-26T13:42:24Z</time>
      </trkpt>
      <trkpt lat="45.12965" lon="5.55993">
        <ele>1214.763</ele>
        <time>2021-06-26T13:42:29Z</time>
      </trkpt>
      <trkpt lat="45.12978" lon="5.55994">
        <ele>1217.097</ele>
        <time>2021-06-26T13:42:34Z</time>
      </trkpt>
      <trkpt lat="45.12989" lon="5.55997">
        <ele>1218.856</ele>
        <time>2021-06-26T13:42:39Z</time>
      </trkpt>
      <trkpt lat="45.12999" lon="5.55996">
        <ele>1219.754</ele>
        <time>2021-06-26T13:42:44Z</time>
      </trkpt>
      <trkpt lat="45.13007" lon="5.55995">
        <ele>1220.462</ele>
        <time>2021-06-26T13:42:49Z</time>
      </trkpt>
      <trkpt lat="45.13014" lon="5.55995">
        <ele>1220.867</ele>
        <time>2021-06-26T13:42:54Z</time>
      </trkpt>
      <trkpt lat="45.13022" lon="5.55997">
        <ele>1221.239</ele>
        <time>2021-06-26T13:42:59Z</time>
      </trkpt>
      <trkpt lat="45.13033" lon="5.56">
        <ele>1221.542</ele>
        <time>2021-06-26T13:43:04Z</time>
      </trkpt>
      <trkpt lat="45.13044" lon="5.56011">
        <ele>1222.416</ele>
        <time>2021-06-26T13:43:09Z</time>
      </trkpt>
      <trkpt lat="45.1305" lon="5.56024">
        <ele>1222.811</ele>
        <time>2021-06-26T13:43:14Z</time>
      </trkpt>
      <trkpt lat="45.13055" lon="5.56039">
        <ele>1222.391</ele>
        <time>2021-06-26T13:43:19Z</time>
      </trkpt>
      <trkpt lat="45.1306" lon="5.56051">
        <ele>1225.587</ele>
        <time>2021-06-26T13:43:24Z</time>
      </trkpt>
      <trkpt lat="45.13065" lon="5.56069">
        <ele>1224.633</ele>
        <time>2021-06-26T13:43:29Z</time>
      </trkpt>
      <trkpt lat="45.13067" lon="5.5609">
        <ele>1225.863</ele>
        <time>2021-06-26T13:43:34Z</time>
      </trkpt>
      <trkpt lat="45.1307" lon="5.5611">
        <ele>1224.734</ele>
        <time>2021-06-26T13:43:39Z</time>
      </trkpt>
      <trkpt lat="45.13071" lon="5.5613">
        <ele>1227.831</ele>
        <time>2021-06-26T13:43:44Z</time>
      </trkpt>
      <trkpt lat="45.13076" lon="5.56147">
        <ele>1229.911</ele>
        <time>2021-06-26T13:43:49Z</time>
      </trkpt>
      <trkpt lat="45.13077" lon="5.56167">
        <ele>1228.984</ele>
        <time>2021-06-26T13:43:54Z</time>
      </trkpt>
      <trkpt lat="45.13078" lon="5.56188">
        <ele>1228.901</ele>
        <time>2021-06-26T13:43:59Z</time>
      </trkpt>
      <trkpt lat="45.13084" lon="5.56205">
        <ele>1228.875</ele>
        <time>2021-06-26T13:44:04Z</time>
      </trkpt>
      <trkpt lat="45.13091" lon="5.56217">
        <ele>1224.877</ele>
        <time>2021-06-26T13:44:09Z</time>
      </trkpt>
      <trkpt lat="45.13102" lon="5.56221">
        <ele>1228.249</ele>
        <time>2021-06-26T13:44:14Z</time>
      </trkpt>
      <trkpt lat="45.13115" lon="5.56211">
        <ele>1230.834</ele>
        <time>2021-06-26T13:44:19Z</time>
      </trkpt>
      <trkpt lat="45.13125" lon="5.56198">
        <ele>1233.005</ele>
        <time>2021-06-26T13:44:24Z</time>
      </trkpt>
      <trkpt lat="45.13135" lon="5.56186">
        <ele>1232.374</ele>
        <time>2021-06-26T13:44:29Z</time>
      </trkpt>
      <trkpt lat="45.13144" lon="5.56173">
        <ele>1236.752</ele>
        <time>2021-06-26T13:44:34Z</time>
      </trkpt>
      <trkpt lat="45.13156" lon="5.56167">
        <ele>1237.144</ele>
        <time>2021-06-26T13:44:39Z</time>
      </trkpt>
      <trkpt lat="45.13168" lon="5.56164">
        <ele>1233.638</ele>
        <time>2021-06-26T13:44:44Z</time>
      </trkpt>
      <trkpt lat="45.13182" lon="5.56161">
        <ele>1232.755</ele>
        <time>2021-06-26T13:44:49Z</time>
      </trkpt>
      <trkpt lat="45.13193" lon="5.56158">
        <ele>1233.832</ele>
        <time>2021-06-26T13:44:54Z</time>
      </trkpt>
      <trkpt lat="45.13207" lon="5.56153">
        <ele>1233.703</ele>
        <time>2021-06-26T13:44:59Z</time>
      </trkpt>
      <trkpt lat="45.13218" lon="5.56147">
        <ele>1237.58</ele>
        <time>2021-06-26T13:45:04Z</time>
      </trkpt>
      <trkpt lat="45.1323" lon="5.56142">
        <ele>1237.929</ele>
        <time>2021-06-26T13:45:09Z</time>
      </trkpt>
      <trkpt lat="45.13244" lon="5.56142">
        <ele>1238.206</ele>
        <time>2021-06-26T13:45:14Z</time>
      </trkpt>
      <trkpt lat="45.13259" lon="5.56144">
        <ele>1239.292</ele>
        <time>2021-06-26T13:45:19Z</time>
      </trkpt>
      <trkpt lat="45.13269" lon="5.56155">
        <ele>1233.653</ele>
        <time>2021-06-26T13:45:24Z</time>
      </trkpt>
      <trkpt lat="45.13277" lon="5.56167">
        <ele>1233.409</ele>
        <time>2021-06-26T13:45:29Z</time>
      </trkpt>
      <trkpt lat="45.13284" lon="5.56178">
        <ele>1233.472</ele>
        <time>2021-06-26T13:45:34Z</time>
      </trkpt>
      <trkpt lat="45.13297" lon="5.56188">
        <ele>1235.789</ele>
        <time>2021-06-26T13:45:39Z</time>
      </trkpt>
      <trkpt lat="45.13307" lon="5.56186">
        <ele>1238.154</ele>
        <time>2021-06-26T13:45:44Z</time>
      </trkpt>
      <trkpt lat="45.13315" lon="5.56173">
        <ele>1237.318</ele>
        <time>2021-06-26T13:45:49Z</time>
      </trkpt>
      <trkpt lat="45.13323" lon="5.56157">
        <ele>1239.724</ele>
        <time>2021-06-26T13:45:54Z</time>
      </trkpt>
      <trkpt lat="45.1333" lon="5.56142">
        <ele>1245.378</ele>
        <time>2021-06-26T13:45:59Z</time>
      </trkpt>
      <trkpt lat="45.13337" lon="5.56125">
        <ele>1245.259</ele>
        <time>2021-06-26T13:46:04Z</time>
      </trkpt>
      <trkpt lat="45.13348" lon="5.56113">
        <ele>1246.221</ele>
        <time>2021-06-26T13:46:09Z</time>
      </trkpt>
      <trkpt lat="45.13356" lon="5.561">
        <ele>1250.601</ele>
        <time>2021-06-26T13:46:14Z</time>
      </trkpt>
      <trkpt lat="45.13367" lon="5.56092">
        <ele>1249.825</ele>
        <time>2021-06-26T13:46:19Z</time>
      </trkpt>
      <trkpt lat="45.1338" lon="5.56084">
        <ele>1246.488</ele>
        <time>2021-06-26T13:46:24Z</time>
      </trkpt>
      <trkpt lat="45.13392" lon="5.56078">
        <ele>1245.617</ele>
        <time>2021-06-26T13:46:29Z</time>
      </trkpt>
      <trkpt lat="45.13406" lon="5.56079">
        <ele>1244.408</ele>
        <time>2021-06-26T13:46:34Z</time>
      </trkpt>
      <trkpt lat="45.13417" lon="5.56083">
        <ele>1245.579</ele>
        <time>2021-06-26T13:46:39Z</time>
      </trkpt>
      <trkpt lat="45.13429" lon="5.56087">
        <ele>1249.082</ele>
        <time>2021-06-26T13:46:44Z</time>
      </trkpt>
      <trkpt lat="45.13439" lon="5.56088">
        <ele>1250.173</ele>
        <time>2021-06-26T13:46:49Z</time>
      </trkpt>
      <trkpt lat="45.13453" lon="5.56092">
        <ele>1251.305</ele>
        <time>2021-06-26T13:46:54Z</time>
      </trkpt>
      <trkpt lat="45.13466" lon="5.56099">
        <ele>1253.059</ele>
        <time>2021-06-26T13:46:59Z</time>
      </trkpt>
      <trkpt lat="45.13478" lon="5.56106">
        <ele>1252.562</ele>
        <time>2021-06-26T13:47:04Z</time>
      </trkpt>
      <trkpt lat="45.13486" lon="5.56114">
        <ele>1250.46</ele>
        <time>2021-06-26T13:47:09Z</time>
      </trkpt>
      <trkpt lat="45.13497" lon="5.56124">
        <ele>1251.262</ele>
        <time>2021-06-26T13:47:14Z</time>
      </trkpt>
      <trkpt lat="45.13508" lon="5.56135">
        <ele>1253.923</ele>
        <time>2021-06-26T13:47:19Z</time>
      </trkpt>
      <trkpt lat="45.13516" lon="5.56149">
        <ele>1255.1</ele>
        <time>2021-06-26T13:47:24Z</time>
      </trkpt>
      <trkpt lat="45.13521" lon="5.56163">
        <ele>1252.832</ele>
        <time>2021-06-26T13:47:29Z</time>
      </trkpt>
      <trkpt lat="45.13532" lon="5.56173">
        <ele>1253.852</ele>
        <time>2021-06-26T13:47:34Z</time>
      </trkpt>
      <trkpt lat="45.1354" lon="5.56171">
        <ele>1256.292</ele>
        <time>2021-06-26T13:47:39Z</time>
      </trkpt>
      <trkpt lat="45.13553" lon="5.56158">
        <ele>1256.687</ele>
        <time>2021-06-26T13:47:44Z</time>
      </trkpt>
      <trkpt lat="45.13563" lon="5.56137">
        <ele>1257.636</ele>
        <time>2021-06-26T13:47:49Z</time>
      </trkpt>
      <trkpt lat="45.13573" lon="5.56122">
        <ele>1257.178</ele>
        <time>2021-06-26T13:47:54Z</time>
      </trkpt>
      <trkpt lat="45.13585" lon="5.56113">
        <ele>1258.249</ele>
        <time>2021-06-26T13:47:59Z</time>
      </trkpt>
      <trkpt lat="45.136" lon="5.5611">
        <ele>1258.821</ele>
        <time>2021-06-26T13:48:04Z</time>
      </trkpt>
      <trkpt lat="45.13614" lon="5.56107">
        <ele>1261.216</ele>
        <time>2021-06-26T13:48:09Z</time>
      </trkpt>
      <trkpt lat="45.13631" lon="5.56107">
        <ele>1261.844</ele>
        <time>2021-06-26T13:48:14Z</time>
      </trkpt>
      <trkpt lat="45.13645" lon="5.56106">
        <ele>1261.631</ele>
        <time>2021-06-26T13:48:19Z</time>
      </trkpt>
      <trkpt lat="45.13659" lon="5.56103">
        <ele>1262.478</ele>
        <time>2021-06-26T13:48:24Z</time>
      </trkpt>
      <trkpt lat="45.13673" lon="5.561">
        <ele>1263.302</ele>
        <time>2021-06-26T13:48:29Z</time>
      </trkpt>
      <trkpt lat="45.13687" lon="5.56095">
        <ele>1265.424</ele>
        <time>2021-06-26T13:48:34Z</time>
      </trkpt>
      <trkpt lat="45.13701" lon="5.5609">
        <ele>1265.887</ele>
        <time>2021-06-26T13:48:39Z</time>
      </trkpt>
      <trkpt lat="45.13714" lon="5.56086">
        <ele>1265.498</ele>
        <time>2021-06-26T13:48:44Z</time>
      </trkpt>
      <trkpt lat="45.13728" lon="5.5608">
        <ele>1265.963</ele>
        <time>2021-06-26T13:48:49Z</time>
      </trkpt>
      <trkpt lat="45.13741" lon="5.56072">
        <ele>1269.002</ele>
        <time>2021-06-26T13:48:54Z</time>
      </trkpt>
      <trkpt lat="45.13753" lon="5.56068">
        <ele>1270.186</ele>
        <time>2021-06-26T13:48:59Z</time>
      </trkpt>
      <trkpt lat="45.13763" lon="5.56062">
        <ele>1270.454</ele>
        <time>2021-06-26T13:49:04Z</time>
      </trkpt>
      <trkpt lat="45.13773" lon="5.56058">
        <ele>1270.092</ele>
        <time>2021-06-26T13:49:09Z</time>
      </trkpt>
      <trkpt lat="45.13784" lon="5.56055">
        <ele>1271.396</ele>
        <time>2021-06-26T13:49:14Z</time>
      </trkpt>
      <trkpt lat="45.13795" lon="5.56051">
        <ele>1272.529</ele>
        <time>2021-06-26T13:49:19Z</time>
      </trkpt>
      <trkpt lat="45.13808" lon="5.56047">
        <ele>1272.049</ele>
        <time>2021-06-26T13:49:24Z</time>
      </trkpt>
      <trkpt lat="45.13822" lon="5.56045">
        <ele>1272.703</ele>
        <time>2021-06-26T13:49:29Z</time>
      </trkpt>
      <trkpt lat="45.13833" lon="5.56043">
        <ele>1275.188</ele>
        <time>2021-06-26T13:49:34Z</time>
      </trkpt>
      <trkpt lat="45.13843" lon="5.56042">
        <ele>1275.254</ele>
        <time>2021-06-26T13:49:39Z</time>
      </trkpt>
      <trkpt lat="45.13854" lon="5.56043">
        <ele>1272.877</ele>
        <time>2021-06-26T13:49:44Z</time>
      </trkpt>
      <trkpt lat="45.13868" lon="5.56044">
        <ele>1274.002</ele>
        <time>2021-06-26T13:49:49Z</time>
      </trkpt>
      <trkpt lat="45.13881" lon="5.56046">
        <ele>1272.271</ele>
        <time>2021-06-26T13:49:54Z</time>
      </trkpt>
      <trkpt lat="45.13895" lon="5.56051">
        <ele>1272.115</ele>
        <time>2021-06-26T13:49:59Z</time>
      </trkpt>
      <trkpt lat="45.13901" lon="5.56062">
        <ele>1274.532</ele>
        <time>2021-06-26T13:50:04Z</time>
      </trkpt>
      <trkpt lat="45.13905" lon="5.56078">
        <ele>1276.46</ele>
        <time>2021-06-26T13:50:09Z</time>
      </trkpt>
      <trkpt lat="45.13906" lon="5.56096">
        <ele>1276.097</ele>
        <time>2021-06-26T13:50:14Z</time>
      </trkpt>
      <trkpt lat="45.13906" lon="5.56111">
        <ele>1278.373</ele>
        <time>2021-06-26T13:50:19Z</time>
      </trkpt>
      <trkpt lat="45.13906" lon="5.56128">
        <ele>1278.99</ele>
        <time>2021-06-26T13:50:24Z</time>
      </trkpt>
      <trkpt lat="45.13905" lon="5.56145">
        <ele>1278.456</ele>
        <time>2021-06-26T13:50:29Z</time>
      </trkpt>
      <trkpt lat="45.13906" lon="5.5616">
        <ele>1280.251</ele>
        <time>2021-06-26T13:50:34Z</time>
      </trkpt>
      <trkpt lat="45.13908" lon="5.56175">
        <ele>1281.994</ele>
        <time>2021-06-26T13:50:39Z</time>
      </trkpt>
      <trkpt lat="45.13912" lon="5.5619">
        <ele>1283.508</ele>
        <time>2021-06-26T13:50:44Z</time>
      </trkpt>
      <trkpt lat="45.13914" lon="5.56206">
        <ele>1283.602</ele>
        <time>2021-06-26T13:50:49Z</time>
      </trkpt>
      <trkpt lat="45.13915" lon="5.56221">
        <ele>1284.838</ele>
        <time>2021-06-26T13:50:54Z</time>
      </trkpt>
      <trkpt lat="45.13917" lon="5.56238">
        <ele>1284.518</ele>
        <time>2021-06-26T13:50:59Z</time>
      </trkpt>
      <trkpt lat="45.13922" lon="5.5625">
        <ele>1284.74</ele>
        <time>2021-06-26T13:51:04Z</time>
      </trkpt>
      <trkpt lat="45.13933" lon="5.56255">
        <ele>1288.169</ele>
        <time>2021-06-26T13:51:09Z</time>
      </trkpt>
      <trkpt lat="45.13944" lon="5.56252">
        <ele>1289.176</ele>
        <time>2021-06-26T13:51:14Z</time>
      </trkpt>
      <trkpt lat="45.13953" lon="5.56243">
        <ele>1291.163</ele>
        <time>2021-06-26T13:51:19Z</time>
      </trkpt>
      <trkpt lat="45.13962" lon="5.56226">
        <ele>1291.646</ele>
        <time>2021-06-26T13:51:24Z</time>
      </trkpt>
      <trkpt lat="45.13966" lon="5.56207">
        <ele>1292.68</ele>
        <time>2021-06-26T13:51:29Z</time>
      </trkpt>
      <trkpt lat="45.13972" lon="5.56194">
        <ele>1292.427</ele>
        <time>2021-06-26T13:51:34Z</time>
      </trkpt>
      <trkpt lat="45.13981" lon="5.56182">
        <ele>1294.147</ele>
        <time>2021-06-26T13:51:39Z</time>
      </trkpt>
      <trkpt lat="45.13991" lon="5.56176">
        <ele>1295.067</ele>
        <time>2021-06-26T13:51:44Z</time>
      </trkpt>
      <trkpt lat="45.14004" lon="5.5618">
        <ele>1293.697</ele>
        <time>2021-06-26T13:51:49Z</time>
      </trkpt>
      <trkpt lat="45.14014" lon="5.56194">
        <ele>1292.869</ele>
        <time>2021-06-26T13:51:54Z</time>
      </trkpt>
      <trkpt lat="45.14022" lon="5.5621">
        <ele>1292.539</ele>
        <time>2021-06-26T13:51:59Z</time>
      </trkpt>
      <trkpt lat="45.14031" lon="5.56222">
        <ele>1295.57</ele>
        <time>2021-06-26T13:52:04Z</time>
      </trkpt>
      <trkpt lat="45.14037" lon="5.56232">
        <ele>1295.37</ele>
        <time>2021-06-26T13:52:09Z</time>
      </trkpt>
      <trkpt lat="45.14043" lon="5.56245">
        <ele>1294.081</ele>
        <time>2021-06-26T13:52:14Z</time>
      </trkpt>
      <trkpt lat="45.14047" lon="5.56257">
        <ele>1293.51</ele>
        <time>2021-06-26T13:52:19Z</time>
      </trkpt>
      <trkpt lat="45.14051" lon="5.56268">
        <ele>1286.84</ele>
        <time>2021-06-26T13:52:24Z</time>
      </trkpt>
      <trkpt lat="45.14062" lon="5.56283">
        <ele>1289.591</ele>
        <time>2021-06-26T13:52:29Z</time>
      </trkpt>
      <trkpt lat="45.14078" lon="5.56288">
        <ele>1293.425</ele>
        <time>2021-06-26T13:52:34Z</time>
      </trkpt>
      <trkpt lat="45.14089" lon="5.56278">
        <ele>1291.973</ele>
        <time>2021-06-26T13:52:39Z</time>
      </trkpt>
      <trkpt lat="45.14098" lon="5.56262">
        <ele>1294.841</ele>
        <time>2021-06-26T13:52:44Z</time>
      </trkpt>
      <trkpt lat="45.14106" lon="5.56248">
        <ele>1297.883</ele>
        <time>2021-06-26T13:52:49Z</time>
      </trkpt>
      <trkpt lat="45.14113" lon="5.56234">
        <ele>1299.438</ele>
        <time>2021-06-26T13:52:54Z</time>
      </trkpt>
      <trkpt lat="45.14119" lon="5.56222">
        <ele>1300.882</ele>
        <time>2021-06-26T13:52:59Z</time>
      </trkpt>
      <trkpt lat="45.14127" lon="5.56215">
        <ele>1302.389</ele>
        <time>2021-06-26T13:53:04Z</time>
      </trkpt>
      <trkpt lat="45.14137" lon="5.56213">
        <ele>1307.187</ele>
        <time>2021-06-26T13:53:09Z</time>
      </trkpt>
      <trkpt lat="45.14148" lon="5.56213">
        <ele>1308.866</ele>
        <time>2021-06-26T13:53:14Z</time>
      </trkpt>
      <trkpt lat="45.14159" lon="5.56213">
        <ele>1308.474</ele>
        <time>2021-06-26T13:53:19Z</time>
      </trkpt>
      <trkpt lat="45.14171" lon="5.56212">
        <ele>1308.677</ele>
        <time>2021-06-26T13:53:24Z</time>
      </trkpt>
      <trkpt lat="45.14182" lon="5.56212">
        <ele>1309.312</ele>
        <time>2021-06-26T13:53:29Z</time>
      </trkpt>
      <trkpt lat="45.14193" lon="5.56214">
        <ele>1309.394</ele>
        <time>2021-06-26T13:53:34Z</time>
      </trkpt>
      <trkpt lat="45.14203" lon="5.56215">
        <ele>1308.314</ele>
        <time>2021-06-26T13:53:39Z</time>
      </trkpt>
      <trkpt lat="45.14215" lon="5.56216">
        <ele>1308.313</ele>
        <time>2021-06-26T13:53:44Z</time>
      </trkpt>
      <trkpt lat="45.14229" lon="5.56223">
        <ele>1308.468</ele>
        <time>2021-06-26T13:53:49Z</time>
      </trkpt>
      <trkpt lat="45.1424" lon="5.56232">
        <ele>1309.758</ele>
        <time>2021-06-26T13:53:54Z</time>
      </trkpt>
      <trkpt lat="45.14248" lon="5.56238">
        <ele>1309.348</ele>
        <time>2021-06-26T13:53:59Z</time>
      </trkpt>
      <trkpt lat="45.14262" lon="5.56246">
        <ele>1310.665</ele>
        <time>2021-06-26T13:54:04Z</time>
      </trkpt>
      <trkpt lat="45.14276" lon="5.56249">
        <ele>1314.372</ele>
        <time>2021-06-26T13:54:09Z</time>
      </trkpt>
      <trkpt lat="45.14287" lon="5.56246">
        <ele>1317.52</ele>
        <time>2021-06-26T13:54:14Z</time>
      </trkpt>
      <trkpt lat="45.14296" lon="5.56243">
        <ele>1319.149</ele>
        <time>2021-06-26T13:54:19Z</time>
      </trkpt>
      <trkpt lat="45.14307" lon="5.56238">
        <ele>1319.915</ele>
        <time>2021-06-26T13:54:24Z</time>
      </trkpt>
      <trkpt lat="45.14317" lon="5.56234">
        <ele>1320.762</ele>
        <time>2021-06-26T13:54:29Z</time>
      </trkpt>
      <trkpt lat="45.14329" lon="5.56229">
        <ele>1319.5</ele>
        <time>2021-06-26T13:54:34Z</time>
      </trkpt>
      <trkpt lat="45.1434" lon="5.56227">
        <ele>1319.251</ele>
        <time>2021-06-26T13:54:39Z</time>
      </trkpt>
      <trkpt lat="45.14352" lon="5.5623">
        <ele>1320.082</ele>
        <time>2021-06-26T13:54:44Z</time>
      </trkpt>
      <trkpt lat="45.14361" lon="5.56232">
        <ele>1320.845</ele>
        <time>2021-06-26T13:54:49Z</time>
      </trkpt>
      <trkpt lat="45.14371" lon="5.56234">
        <ele>1319.482</ele>
        <time>2021-06-26T13:54:54Z</time>
      </trkpt>
      <trkpt lat="45.14379" lon="5.56242">
        <ele>1317.322</ele>
        <time>2021-06-26T13:54:59Z</time>
      </trkpt>
      <trkpt lat="45.14388" lon="5.56249">
        <ele>1316.149</ele>
        <time>2021-06-26T13:55:04Z</time>
      </trkpt>
      <trkpt lat="45.144" lon="5.56257">
        <ele>1320.481</ele>
        <time>2021-06-26T13:55:09Z</time>
      </trkpt>
      <trkpt lat="45.1441" lon="5.56254">
        <ele>1324.375</ele>
        <time>2021-06-26T13:55:14Z</time>
      </trkpt>
      <trkpt lat="45.14417" lon="5.56247">
        <ele>1326.919</ele>
        <time>2021-06-26T13:55:19Z</time>
      </trkpt>
      <trkpt lat="45.14425" lon="5.56237">
        <ele>1327.699</ele>
        <time>2021-06-26T13:55:24Z</time>
      </trkpt>
      <trkpt lat="45.14433" lon="5.56225">
        <ele>1328.668</ele>
        <time>2021-06-26T13:55:29Z</time>
      </trkpt>
      <trkpt lat="45.14439" lon="5.56211">
        <ele>1327.795</ele>
        <time>2021-06-26T13:55:34Z</time>
      </trkpt>
      <trkpt lat="45.14449" lon="5.56202">
        <ele>1332.275</ele>
        <time>2021-06-26T13:55:39Z</time>
      </trkpt>
      <trkpt lat="45.14461" lon="5.56201">
        <ele>1333.306</ele>
        <time>2021-06-26T13:55:44Z</time>
      </trkpt>
      <trkpt lat="45.1447" lon="5.56207">
        <ele>1333.631</ele>
        <time>2021-06-26T13:55:49Z</time>
      </trkpt>
      <trkpt lat="45.14478" lon="5.56213">
        <ele>1333.409</ele>
        <time>2021-06-26T13:55:54Z</time>
      </trkpt>
      <trkpt lat="45.14486" lon="5.5622">
        <ele>1333.681</ele>
        <time>2021-06-26T13:55:59Z</time>
      </trkpt>
      <trkpt lat="45.14496" lon="5.56224">
        <ele>1334.221</ele>
        <time>2021-06-26T13:56:04Z</time>
      </trkpt>
      <trkpt lat="45.14505" lon="5.56225">
        <ele>1336.895</ele>
        <time>2021-06-26T13:56:09Z</time>
      </trkpt>
      <trkpt lat="45.14515" lon="5.56223">
        <ele>1336.731</ele>
        <time>2021-06-26T13:56:14Z</time>
      </trkpt>
      <trkpt lat="45.14525" lon="5.56225">
        <ele>1337.952</ele>
        <time>2021-06-26T13:56:19Z</time>
      </trkpt>
      <trkpt lat="45.14535" lon="5.56232">
        <ele>1334.419</ele>
        <time>2021-06-26T13:56:24Z</time>
      </trkpt>
      <trkpt lat="45.14545" lon="5.56244">
        <ele>1338.406</ele>
        <time>2021-06-26T13:56:29Z</time>
      </trkpt>
      <trkpt lat="45.14551" lon="5.56254">
        <ele>1335.123</ele>
        <time>2021-06-26T13:56:34Z</time>
      </trkpt>
      <trkpt lat="45.14554" lon="5.56264">
        <ele>1330.402</ele>
        <time>2021-06-26T13:56:39Z</time>
      </trkpt>
      <trkpt lat="45.14558" lon="5.56277">
        <ele>1325.297</ele>
        <time>2021-06-26T13:56:44Z</time>
      </trkpt>
      <trkpt lat="45.14561" lon="5.56292">
        <ele>1322.63</ele>
        <time>2021-06-26T13:56:49Z</time>
      </trkpt>
      <trkpt lat="45.14568" lon="5.56307">
        <ele>1323.096</ele>
        <time>2021-06-26T13:56:54Z</time>
      </trkpt>
      <trkpt lat="45.14574" lon="5.56322">
        <ele>1323.786</ele>
        <time>2021-06-26T13:56:59Z</time>
      </trkpt>
      <trkpt lat="45.14583" lon="5.56339">
        <ele>1323.09</ele>
        <time>2021-06-26T13:57:04Z</time>
      </trkpt>
      <trkpt lat="45.14594" lon="5.56354">
        <ele>1324.406</ele>
        <time>2021-06-26T13:57:09Z</time>
      </trkpt>
      <trkpt lat="45.14602" lon="5.56372">
        <ele>1323.901</ele>
        <time>2021-06-26T13:57:14Z</time>
      </trkpt>
      <trkpt lat="45.14613" lon="5.5639">
        <ele>1326.844</ele>
        <time>2021-06-26T13:57:19Z</time>
      </trkpt>
      <trkpt lat="45.14617" lon="5.56409">
        <ele>1329.926</ele>
        <time>2021-06-26T13:57:24Z</time>
      </trkpt>
      <trkpt lat="45.14621" lon="5.56428">
        <ele>1328.879</ele>
        <time>2021-06-26T13:57:29Z</time>
      </trkpt>
      <trkpt lat="45.14626" lon="5.56447">
        <ele>1326.997</ele>
        <time>2021-06-26T13:57:34Z</time>
      </trkpt>
      <trkpt lat="45.14643" lon="5.56459">
        <ele>1333.978</ele>
        <time>2021-06-26T13:57:39Z</time>
      </trkpt>
      <trkpt lat="45.14663" lon="5.5645">
        <ele>1335.983</ele>
        <time>2021-06-26T13:57:44Z</time>
      </trkpt>
      <trkpt lat="45.14666" lon="5.56428">
        <ele>1338.621</ele>
        <time>2021-06-26T13:57:49Z</time>
      </trkpt>
      <trkpt lat="45.14671" lon="5.56411">
        <ele>1341.717</ele>
        <time>2021-06-26T13:57:54Z</time>
      </trkpt>
      <trkpt lat="45.14673" lon="5.56394">
        <ele>1346.304</ele>
        <time>2021-06-26T13:57:59Z</time>
      </trkpt>
      <trkpt lat="45.14677" lon="5.56379">
        <ele>1349.938</ele>
        <time>2021-06-26T13:58:04Z</time>
      </trkpt>
      <trkpt lat="45.14685" lon="5.56367">
        <ele>1351.954</ele>
        <time>2021-06-26T13:58:09Z</time>
      </trkpt>
      <trkpt lat="45.14693" lon="5.56359">
        <ele>1353.266</ele>
        <time>2021-06-26T13:58:14Z</time>
      </trkpt>
      <trkpt lat="45.14706" lon="5.56352">
        <ele>1357.677</ele>
        <time>2021-06-26T13:58:19Z</time>
      </trkpt>
      <trkpt lat="45.14713" lon="5.56343">
        <ele>1358.228</ele>
        <time>2021-06-26T13:58:24Z</time>
      </trkpt>
      <trkpt lat="45.14718" lon="5.56331">
        <ele>1360.517</ele>
        <time>2021-06-26T13:58:29Z</time>
      </trkpt>
      <trkpt lat="45.14722" lon="5.56316">
        <ele>1361.064</ele>
        <time>2021-06-26T13:58:34Z</time>
      </trkpt>
      <trkpt lat="45.14721" lon="5.56305">
        <ele>1361.155</ele>
        <time>2021-06-26T13:58:39Z</time>
      </trkpt>
      <trkpt lat="45.1472" lon="5.56294">
        <ele>1358.862</ele>
        <time>2021-06-26T13:58:44Z</time>
      </trkpt>
      <trkpt lat="45.14721" lon="5.56282">
        <ele>1356.631</ele>
        <time>2021-06-26T13:58:49Z</time>
      </trkpt>
      <trkpt lat="45.14723" lon="5.56269">
        <ele>1356.081</ele>
        <time>2021-06-26T13:58:54Z</time>
      </trkpt>
      <trkpt lat="45.14732" lon="5.56259">
        <ele>1358.092</ele>
        <time>2021-06-26T13:58:59Z</time>
      </trkpt>
      <trkpt lat="45.14749" lon="5.56252">
        <ele>1359.18</ele>
        <time>2021-06-26T13:59:04Z</time>
      </trkpt>
      <trkpt lat="45.1476" lon="5.56249">
        <ele>1359.582</ele>
        <time>2021-06-26T13:59:09Z</time>
      </trkpt>
      <trkpt lat="45.1477" lon="5.56241">
        <ele>1362.438</ele>
        <time>2021-06-26T13:59:14Z</time>
      </trkpt>
      <trkpt lat="45.14781" lon="5.56243">
        <ele>1358.729</ele>
        <time>2021-06-26T13:59:19Z</time>
      </trkpt>
      <trkpt lat="45.14796" lon="5.56249">
        <ele>1356.028</ele>
        <time>2021-06-26T13:59:24Z</time>
      </trkpt>
      <trkpt lat="45.14809" lon="5.56263">
        <ele>1356.652</ele>
        <time>2021-06-26T13:59:29Z</time>
      </trkpt>
      <trkpt lat="45.14818" lon="5.56279">
        <ele>1359.139</ele>
        <time>2021-06-26T13:59:34Z</time>
      </trkpt>
      <trkpt lat="45.14826" lon="5.56295">
        <ele>1360.376</ele>
        <time>2021-06-26T13:59:39Z</time>
      </trkpt>
      <trkpt lat="45.14836" lon="5.56313">
        <ele>1361.612</ele>
        <time>2021-06-26T13:59:44Z</time>
      </trkpt>
      <trkpt lat="45.14844" lon="5.56332">
        <ele>1361.666</ele>
        <time>2021-06-26T13:59:49Z</time>
      </trkpt>
      <trkpt lat="45.14852" lon="5.5635">
        <ele>1361.981</ele>
        <time>2021-06-26T13:59:54Z</time>
      </trkpt>
      <trkpt lat="45.14858" lon="5.56366">
        <ele>1364.23</ele>
        <time>2021-06-26T13:59:59Z</time>
      </trkpt>
      <trkpt lat="45.14863" lon="5.56379">
        <ele>1366.927</ele>
        <time>2021-06-26T14:00:04Z</time>
      </trkpt>
      <trkpt lat="45.14869" lon="5.56393">
        <ele>1368.263</ele>
        <time>2021-06-26T14:00:09Z</time>
      </trkpt>
      <trkpt lat="45.14873" lon="5.56408">
        <ele>1368.606</ele>
        <time>2021-06-26T14:00:14Z</time>
      </trkpt>
      <trkpt lat="45.14879" lon="5.56422">
        <ele>1366.59</ele>
        <time>2021-06-26T14:00:19Z</time>
      </trkpt>
      <trkpt lat="45.14889" lon="5.56431">
        <ele>1367.687</ele>
        <time>2021-06-26T14:00:24Z</time>
      </trkpt>
      <trkpt lat="45.14899" lon="5.56434">
        <ele>1370.189</ele>
        <time>2021-06-26T14:00:29Z</time>
      </trkpt>
      <trkpt lat="45.14907" lon="5.56431">
        <ele>1371.819</ele>
        <time>2021-06-26T14:00:34Z</time>
      </trkpt>
      <trkpt lat="45.14916" lon="5.56428">
        <ele>1372.528</ele>
        <time>2021-06-26T14:00:39Z</time>
      </trkpt>
      <trkpt lat="45.14925" lon="5.56425">
        <ele>1373.027</ele>
        <time>2021-06-26T14:00:44Z</time>
      </trkpt>
      <trkpt lat="45.14935" lon="5.56425">
        <ele>1373.713</ele>
        <time>2021-06-26T14:00:49Z</time>
      </trkpt>
      <trkpt lat="45.14947" lon="5.56429">
        <ele>1374.698</ele>
        <time>2021-06-26T14:00:54Z</time>
      </trkpt>
      <trkpt lat="45.14958" lon="5.56444">
        <ele>1373.181</ele>
        <time>2021-06-26T14:00:59Z</time>
      </trkpt>
      <trkpt lat="45.14967" lon="5.56469">
        <ele>1371.233</ele>
        <time>2021-06-26T14:01:04Z</time>
      </trkpt>
      <trkpt lat="45.14978" lon="5.56491">
        <ele>1371.142</ele>
        <time>2021-06-26T14:01:09Z</time>
      </trkpt>
      <trkpt lat="45.14993" lon="5.56511">
        <ele>1371.711</ele>
        <time>2021-06-26T14:01:14Z</time>
      </trkpt>
      <trkpt lat="45.15013" lon="5.56529">
        <ele>1373.104</ele>
        <time>2021-06-26T14:01:19Z</time>
      </trkpt>
      <trkpt lat="45.15028" lon="5.56542">
        <ele>1375.039</ele>
        <time>2021-06-26T14:01:24Z</time>
      </trkpt>
      <trkpt lat="45.1504" lon="5.56556">
        <ele>1374.679</ele>
        <time>2021-06-26T14:01:29Z</time>
      </trkpt>
      <trkpt lat="45.15044" lon="5.5658">
        <ele>1373.547</ele>
        <time>2021-06-26T14:01:34Z</time>
      </trkpt>
      <trkpt lat="45.15054" lon="5.56603">
        <ele>1373.627</ele>
        <time>2021-06-26T14:01:39Z</time>
      </trkpt>
      <trkpt lat="45.15072" lon="5.56604">
        <ele>1374.338</ele>
        <time>2021-06-26T14:01:44Z</time>
      </trkpt>
      <trkpt lat="45.15091" lon="5.56596">
        <ele>1373.818</ele>
        <time>2021-06-26T14:01:49Z</time>
      </trkpt>
      <trkpt lat="45.15109" lon="5.56599">
        <ele>1374.73</ele>
        <time>2021-06-26T14:01:54Z</time>
      </trkpt>
      <trkpt lat="45.15129" lon="5.56594">
        <ele>1373.313</ele>
        <time>2021-06-26T14:01:59Z</time>
      </trkpt>
      <trkpt lat="45.15132" lon="5.56565">
        <ele>1386.6</ele>
      </trkpt>
      <trkpt lat="45.15115" lon="5.56492">
        <ele>1370.7</ele>
      </trkpt>
      <trkpt lat="45.15163" lon="5.56455">
        <ele>1372.6</ele>
      </trkpt>
      <trkpt lat="45.15259" lon="5.5648">
        <ele>1391</ele>
      </trkpt>
      <trkpt lat="45.15297" lon="5.56386">
        <ele>1377.4</ele>
      </trkpt>
      <trkpt lat="45.15335" lon="5.56339">
        <ele>1372.5</ele>
      </trkpt>
      <trkpt lat="45.15366" lon="5.5633">
        <ele>1370.8</ele>
      </trkpt>
      <trkpt lat="45.15396" lon="5.56335">
        <ele>1373</ele>
      </trkpt>
      <trkpt lat="45.15432" lon="5.56374">
        <ele>1376.6</ele>
      </trkpt>
      <trkpt lat="45.15456" lon="5.5641">
        <ele>1378.1</ele>
      </trkpt>
      <trkpt lat="45.15481" lon="5.56452">
        <ele>1380.9</ele>
      </trkpt>
      <trkpt lat="45.15517" lon="5.56485">
        <ele>1376.6</ele>
      </trkpt>
      <trkpt lat="45.15539" lon="5.56544">
        <ele>1379.3</ele>
      </trkpt>
      <trkpt lat="45.15536" lon="5.56603">
        <ele>1389</ele>
      </trkpt>
      <trkpt lat="45.15525" lon="5.56642">
        <ele>1393.8</ele>
      </trkpt>
      <trkpt lat="45.1551" lon="5.56675">
        <ele>1397</ele>
      </trkpt>
      <trkpt lat="45.15497" lon="5.56704">
        <ele>1373.977</ele>
        <time>2021-06-26T14:07:19Z</time>
      </trkpt>
      <trkpt lat="45.15497" lon="5.56704">
        <ele>1399</ele>
      </trkpt>
      <trkpt lat="45.15497" lon="5.56704">
        <ele>1399</ele>
      </trkpt>
      <trkpt lat="45.15498" lon="5.56708">
        <ele>1372.035</ele>
        <time>2021-06-26T14:07:24Z</time>
      </trkpt>
      <trkpt lat="45.15497" lon="5.56709">
        <ele>1399</ele>
      </trkpt>
      <trkpt lat="45.15497" lon="5.56709">
        <ele>1399</ele>
      </trkpt>
      <trkpt lat="45.15497" lon="5.56709">
        <ele>1399</ele>
      </trkpt>
      <trkpt lat="45.15497" lon="5.5671">
        <ele>1399</ele>
      </trkpt>
      <trkpt lat="45.15497" lon="5.5671">
        <ele>1371.696</ele>
        <time>2021-06-26T14:07:29Z</time>
      </trkpt>
      <trkpt lat="45.15497" lon="5.5671">
        <ele>1399</ele>
      </trkpt>
      <trkpt lat="45.15498" lon="5.5671">
        <ele>1398.9</ele>
      </trkpt>
      <trkpt lat="45.15498" lon="5.5671">
        <ele>1398.7</ele>
      </trkpt>
      <trkpt lat="45.15506" lon="5.56743">
        <ele>1376.088</ele>
        <time>2021-06-26T14:07:54Z</time>
      </trkpt>
      <trkpt lat="45.15513" lon="5.56751">
        <ele>1378.974</ele>
        <time>2021-06-26T14:07:59Z</time>
      </trkpt>
      <trkpt lat="45.15518" lon="5.56757">
        <ele>1381.595</ele>
        <time>2021-06-26T14:08:04Z</time>
      </trkpt>
      <trkpt lat="45.15524" lon="5.56764">
        <ele>1384.337</ele>
        <time>2021-06-26T14:08:09Z</time>
      </trkpt>
      <trkpt lat="45.15531" lon="5.5677">
        <ele>1385.213</ele>
        <time>2021-06-26T14:08:14Z</time>
      </trkpt>
      <trkpt lat="45.15535" lon="5.56781">
        <ele>1385.794</ele>
        <time>2021-06-26T14:08:19Z</time>
      </trkpt>
      <trkpt lat="45.15533" lon="5.56792">
        <ele>1386.187</ele>
        <time>2021-06-26T14:08:24Z</time>
      </trkpt>
      <trkpt lat="45.15526" lon="5.568">
        <ele>1385.578</ele>
        <time>2021-06-26T14:08:29Z</time>
      </trkpt>
      <trkpt lat="45.15517" lon="5.56799">
        <ele>1387.018</ele>
        <time>2021-06-26T14:08:34Z</time>
      </trkpt>
      <trkpt lat="45.15511" lon="5.56789">
        <ele>1387.18</ele>
        <time>2021-06-26T14:08:39Z</time>
      </trkpt>
      <trkpt lat="45.15506" lon="5.56778">
        <ele>1388.285</ele>
        <time>2021-06-26T14:08:44Z</time>
      </trkpt>
      <trkpt lat="45.155" lon="5.56768">
        <ele>1387.834</ele>
        <time>2021-06-26T14:08:49Z</time>
      </trkpt>
      <trkpt lat="45.15496" lon="5.56756">
        <ele>1387.258</ele>
        <time>2021-06-26T14:08:54Z</time>
      </trkpt>
      <trkpt lat="45.15489" lon="5.56746">
        <ele>1389.603</ele>
        <time>2021-06-26T14:08:59Z</time>
      </trkpt>
      <trkpt lat="45.15471" lon="5.56725">
        <ele>1388.213</ele>
        <time>2021-06-26T14:09:09Z</time>
      </trkpt>
      <trkpt lat="45.1547" lon="5.5671">
        <ele>1390.765</ele>
        <time>2021-06-26T14:09:14Z</time>
      </trkpt>
      <trkpt lat="45.1547" lon="5.56697">
        <ele>1389.48</ele>
        <time>2021-06-26T14:09:19Z</time>
      </trkpt>
      <trkpt lat="45.15472" lon="5.56684">
        <ele>1392.186</ele>
        <time>2021-06-26T14:09:24Z</time>
      </trkpt>
      <trkpt lat="45.15472" lon="5.56672">
        <ele>1393.596</ele>
        <time>2021-06-26T14:09:29Z</time>
      </trkpt>
      <trkpt lat="45.15472" lon="5.5666">
        <ele>1394.301</ele>
        <time>2021-06-26T14:09:34Z</time>
      </trkpt>
      <trkpt lat="45.15474" lon="5.56648">
        <ele>1393.815</ele>
        <time>2021-06-26T14:09:39Z</time>
      </trkpt>
      <trkpt lat="45.15477" lon="5.56637">
        <ele>1398.605</ele>
        <time>2021-06-26T14:09:44Z</time>
      </trkpt>
      <trkpt lat="45.1548" lon="5.56628">
        <ele>1400.86</ele>
        <time>2021-06-26T14:09:49Z</time>
      </trkpt>
      <trkpt lat="45.15483" lon="5.56619">
        <ele>1403.303</ele>
        <time>2021-06-26T14:09:54Z</time>
      </trkpt>
      <trkpt lat="45.15485" lon="5.5661">
        <ele>1406.992</ele>
        <time>2021-06-26T14:09:59Z</time>
      </trkpt>
      <trkpt lat="45.15489" lon="5.56601">
        <ele>1407.35</ele>
        <time>2021-06-26T14:10:04Z</time>
      </trkpt>
      <trkpt lat="45.15491" lon="5.5659">
        <ele>1406.162</ele>
        <time>2021-06-26T14:10:09Z</time>
      </trkpt>
      <trkpt lat="45.15489" lon="5.56578">
        <ele>1406.255</ele>
        <time>2021-06-26T14:10:14Z</time>
      </trkpt>
      <trkpt lat="45.15482" lon="5.56569">
        <ele>1405.308</ele>
        <time>2021-06-26T14:10:19Z</time>
      </trkpt>
      <trkpt lat="45.15473" lon="5.56569">
        <ele>1404.516</ele>
        <time>2021-06-26T14:10:24Z</time>
      </trkpt>
      <trkpt lat="45.15464" lon="5.56574">
        <ele>1405.27</ele>
        <time>2021-06-26T14:10:29Z</time>
      </trkpt>
      <trkpt lat="45.15458" lon="5.5658">
        <ele>1405.305</ele>
        <time>2021-06-26T14:10:34Z</time>
      </trkpt>
      <trkpt lat="45.15452" lon="5.56588">
        <ele>1406.257</ele>
        <time>2021-06-26T14:10:39Z</time>
      </trkpt>
      <trkpt lat="45.15447" lon="5.56594">
        <ele>1408.229</ele>
        <time>2021-06-26T14:10:44Z</time>
      </trkpt>
      <trkpt lat="45.15439" lon="5.56599">
        <ele>1408.852</ele>
        <time>2021-06-26T14:10:49Z</time>
      </trkpt>
      <trkpt lat="45.15432" lon="5.56603">
        <ele>1409.119</ele>
        <time>2021-06-26T14:10:54Z</time>
      </trkpt>
      <trkpt lat="45.15424" lon="5.56605">
        <ele>1409.416</ele>
        <time>2021-06-26T14:10:59Z</time>
      </trkpt>
      <trkpt lat="45.15417" lon="5.56605">
        <ele>1412.598</ele>
        <time>2021-06-26T14:11:04Z</time>
      </trkpt>
      <trkpt lat="45.15409" lon="5.56604">
        <ele>1414.965</ele>
        <time>2021-06-26T14:11:09Z</time>
      </trkpt>
      <trkpt lat="45.15401" lon="5.56602">
        <ele>1415.83</ele>
        <time>2021-06-26T14:11:14Z</time>
      </trkpt>
      <trkpt lat="45.15393" lon="5.56599">
        <ele>1414.211</ele>
        <time>2021-06-26T14:11:19Z</time>
      </trkpt>
      <trkpt lat="45.15384" lon="5.56599">
        <ele>1417.279</ele>
        <time>2021-06-26T14:11:24Z</time>
      </trkpt>
      <trkpt lat="45.15375" lon="5.56602">
        <ele>1415.664</ele>
        <time>2021-06-26T14:11:29Z</time>
      </trkpt>
      <trkpt lat="45.15368" lon="5.56607">
        <ele>1415.681</ele>
        <time>2021-06-26T14:11:34Z</time>
      </trkpt>
      <trkpt lat="45.1536" lon="5.56613">
        <ele>1417.143</ele>
        <time>2021-06-26T14:11:39Z</time>
      </trkpt>
      <trkpt lat="45.15355" lon="5.56618">
        <ele>1417.264</ele>
        <time>2021-06-26T14:11:44Z</time>
      </trkpt>
      <trkpt lat="45.1535" lon="5.56626">
        <ele>1421.092</ele>
        <time>2021-06-26T14:11:49Z</time>
      </trkpt>
      <trkpt lat="45.15345" lon="5.56634">
        <ele>1420.823</ele>
        <time>2021-06-26T14:11:54Z</time>
      </trkpt>
      <trkpt lat="45.15339" lon="5.56641">
        <ele>1422.269</ele>
        <time>2021-06-26T14:11:59Z</time>
      </trkpt>
      <trkpt lat="45.15331" lon="5.56651">
        <ele>1424.58</ele>
        <time>2021-06-26T14:12:04Z</time>
      </trkpt>
      <trkpt lat="45.15325" lon="5.56659">
        <ele>1427.656</ele>
        <time>2021-06-26T14:12:09Z</time>
      </trkpt>
      <trkpt lat="45.15319" lon="5.56665">
        <ele>1426.569</ele>
        <time>2021-06-26T14:12:14Z</time>
      </trkpt>
      <trkpt lat="45.15313" lon="5.56671">
        <ele>1428.137</ele>
        <time>2021-06-26T14:12:19Z</time>
      </trkpt>
      <trkpt lat="45.15307" lon="5.56678">
        <ele>1428.776</ele>
        <time>2021-06-26T14:12:24Z</time>
      </trkpt>
      <trkpt lat="45.15301" lon="5.56685">
        <ele>1430.705</ele>
        <time>2021-06-26T14:12:29Z</time>
      </trkpt>
      <trkpt lat="45.15295" lon="5.56691">
        <ele>1432.331</ele>
        <time>2021-06-26T14:12:34Z</time>
      </trkpt>
      <trkpt lat="45.15289" lon="5.56698">
        <ele>1432.129</ele>
        <time>2021-06-26T14:12:39Z</time>
      </trkpt>
      <trkpt lat="45.15283" lon="5.56706">
        <ele>1432.135</ele>
        <time>2021-06-26T14:12:44Z</time>
      </trkpt>
      <trkpt lat="45.15278" lon="5.56714">
        <ele>1433.522</ele>
        <time>2021-06-26T14:12:49Z</time>
      </trkpt>
      <trkpt lat="45.15271" lon="5.56721">
        <ele>1434.978</ele>
        <time>2021-06-26T14:12:54Z</time>
      </trkpt>
      <trkpt lat="45.15265" lon="5.56728">
        <ele>1436.881</ele>
        <time>2021-06-26T14:12:59Z</time>
      </trkpt>
      <trkpt lat="45.15258" lon="5.56734">
        <ele>1437.859</ele>
        <time>2021-06-26T14:13:04Z</time>
      </trkpt>
      <trkpt lat="45.15251" lon="5.5674">
        <ele>1439.606</ele>
        <time>2021-06-26T14:13:09Z</time>
      </trkpt>
      <trkpt lat="45.15243" lon="5.56745">
        <ele>1441.088</ele>
        <time>2021-06-26T14:13:14Z</time>
      </trkpt>
      <trkpt lat="45.15238" lon="5.56752">
        <ele>1440.762</ele>
        <time>2021-06-26T14:13:19Z</time>
      </trkpt>
      <trkpt lat="45.15233" lon="5.56758">
        <ele>1440.302</ele>
        <time>2021-06-26T14:13:24Z</time>
      </trkpt>
      <trkpt lat="45.15229" lon="5.56767">
        <ele>1440.733</ele>
        <time>2021-06-26T14:13:29Z</time>
      </trkpt>
      <trkpt lat="45.15225" lon="5.56775">
        <ele>1441.009</ele>
        <time>2021-06-26T14:13:34Z</time>
      </trkpt>
      <trkpt lat="45.15221" lon="5.56786">
        <ele>1442.48</ele>
        <time>2021-06-26T14:13:39Z</time>
      </trkpt>
      <trkpt lat="45.15216" lon="5.56796">
        <ele>1444.776</ele>
        <time>2021-06-26T14:13:44Z</time>
      </trkpt>
      <trkpt lat="45.15213" lon="5.56803">
        <ele>1444.665</ele>
        <time>2021-06-26T14:13:49Z</time>
      </trkpt>
      <trkpt lat="45.1521" lon="5.56813">
        <ele>1446.183</ele>
        <time>2021-06-26T14:13:54Z</time>
      </trkpt>
      <trkpt lat="45.15209" lon="5.56823">
        <ele>1445.449</ele>
        <time>2021-06-26T14:13:59Z</time>
      </trkpt>
      <trkpt lat="45.15209" lon="5.56836">
        <ele>1445.582</ele>
        <time>2021-06-26T14:14:04Z</time>
      </trkpt>
      <trkpt lat="45.1521" lon="5.56847">
        <ele>1445.143</ele>
        <time>2021-06-26T14:14:09Z</time>
      </trkpt>
      <trkpt lat="45.15212" lon="5.56859">
        <ele>1446.334</ele>
        <time>2021-06-26T14:14:14Z</time>
      </trkpt>
      <trkpt lat="45.15214" lon="5.56869">
        <ele>1448.178</ele>
        <time>2021-06-26T14:14:19Z</time>
      </trkpt>
      <trkpt lat="45.15214" lon="5.5688">
        <ele>1448.586</ele>
        <time>2021-06-26T14:14:24Z</time>
      </trkpt>
      <trkpt lat="45.15215" lon="5.56891">
        <ele>1448.25</ele>
        <time>2021-06-26T14:14:29Z</time>
      </trkpt>
      <trkpt lat="45.15212" lon="5.56902">
        <ele>1449.579</ele>
        <time>2021-06-26T14:14:34Z</time>
      </trkpt>
      <trkpt lat="45.1521" lon="5.56913">
        <ele>1450.961</ele>
        <time>2021-06-26T14:14:39Z</time>
      </trkpt>
      <trkpt lat="45.15206" lon="5.56921">
        <ele>1451.335</ele>
        <time>2021-06-26T14:14:44Z</time>
      </trkpt>
      <trkpt lat="45.15205" lon="5.56931">
        <ele>1451.769</ele>
        <time>2021-06-26T14:14:49Z</time>
      </trkpt>
      <trkpt lat="45.15203" lon="5.56942">
        <ele>1453.381</ele>
        <time>2021-06-26T14:14:54Z</time>
      </trkpt>
      <trkpt lat="45.15202" lon="5.56951">
        <ele>1453.275</ele>
        <time>2021-06-26T14:14:59Z</time>
      </trkpt>
      <trkpt lat="45.152" lon="5.56963">
        <ele>1456.591</ele>
        <time>2021-06-26T14:15:04Z</time>
      </trkpt>
      <trkpt lat="45.15202" lon="5.56976">
        <ele>1457.232</ele>
        <time>2021-06-26T14:15:09Z</time>
      </trkpt>
      <trkpt lat="45.15198" lon="5.56989">
        <ele>1458.794</ele>
        <time>2021-06-26T14:15:14Z</time>
      </trkpt>
      <trkpt lat="45.15197" lon="5.57">
        <ele>1460.915</ele>
        <time>2021-06-26T14:15:19Z</time>
      </trkpt>
      <trkpt lat="45.15198" lon="5.5701">
        <ele>1461.418</ele>
        <time>2021-06-26T14:15:24Z</time>
      </trkpt>
      <trkpt lat="45.15197" lon="5.57025">
        <ele>1460.152</ele>
        <time>2021-06-26T14:15:29Z</time>
      </trkpt>
      <trkpt lat="45.15192" lon="5.57036">
        <ele>1460.159</ele>
        <time>2021-06-26T14:15:34Z</time>
      </trkpt>
      <trkpt lat="45.15186" lon="5.5704">
        <ele>1463.11</ele>
        <time>2021-06-26T14:15:39Z</time>
      </trkpt>
      <trkpt lat="45.15179" lon="5.57042">
        <ele>1462.345</ele>
        <time>2021-06-26T14:15:44Z</time>
      </trkpt>
      <trkpt lat="45.15172" lon="5.5704">
        <ele>1459.555</ele>
        <time>2021-06-26T14:15:49Z</time>
      </trkpt>
      <trkpt lat="45.15165" lon="5.57036">
        <ele>1461.111</ele>
        <time>2021-06-26T14:15:54Z</time>
      </trkpt>
      <trkpt lat="45.15157" lon="5.57032">
        <ele>1463.747</ele>
        <time>2021-06-26T14:15:59Z</time>
      </trkpt>
      <trkpt lat="45.1515" lon="5.57027">
        <ele>1465.247</ele>
        <time>2021-06-26T14:16:04Z</time>
      </trkpt>
      <trkpt lat="45.15143" lon="5.57023">
        <ele>1466.022</ele>
        <time>2021-06-26T14:16:09Z</time>
      </trkpt>
      <trkpt lat="45.15138" lon="5.57019">
        <ele>1464.961</ele>
        <time>2021-06-26T14:16:14Z</time>
      </trkpt>
      <trkpt lat="45.15131" lon="5.57015">
        <ele>1463.478</ele>
        <time>2021-06-26T14:16:19Z</time>
      </trkpt>
      <trkpt lat="45.15123" lon="5.57013">
        <ele>1462.429</ele>
        <time>2021-06-26T14:16:24Z</time>
      </trkpt>
      <trkpt lat="45.15116" lon="5.57009">
        <ele>1463.762</ele>
        <time>2021-06-26T14:16:29Z</time>
      </trkpt>
      <trkpt lat="45.15109" lon="5.57006">
        <ele>1466.559</ele>
        <time>2021-06-26T14:16:34Z</time>
      </trkpt>
      <trkpt lat="45.15102" lon="5.57003">
        <ele>1467.317</ele>
        <time>2021-06-26T14:16:39Z</time>
      </trkpt>
      <trkpt lat="45.15095" lon="5.57">
        <ele>1469.411</ele>
        <time>2021-06-26T14:16:44Z</time>
      </trkpt>
      <trkpt lat="45.15088" lon="5.56998">
        <ele>1467.912</ele>
        <time>2021-06-26T14:16:49Z</time>
      </trkpt>
      <trkpt lat="45.15079" lon="5.57">
        <ele>1467.479</ele>
        <time>2021-06-26T14:16:54Z</time>
      </trkpt>
      <trkpt lat="45.1507" lon="5.57002">
        <ele>1466.473</ele>
        <time>2021-06-26T14:16:59Z</time>
      </trkpt>
      <trkpt lat="45.15059" lon="5.57007">
        <ele>1468.166</ele>
        <time>2021-06-26T14:17:04Z</time>
      </trkpt>
      <trkpt lat="45.15051" lon="5.57011">
        <ele>1464.911</ele>
        <time>2021-06-26T14:17:09Z</time>
      </trkpt>
      <trkpt lat="45.15042" lon="5.57015">
        <ele>1461.078</ele>
        <time>2021-06-26T14:17:14Z</time>
      </trkpt>
      <trkpt lat="45.15031" lon="5.5702">
        <ele>1457.786</ele>
        <time>2021-06-26T14:17:19Z</time>
      </trkpt>
      <trkpt lat="45.15022" lon="5.57027">
        <ele>1458.164</ele>
        <time>2021-06-26T14:17:24Z</time>
      </trkpt>
      <trkpt lat="45.15011" lon="5.57036">
        <ele>1460.44</ele>
        <time>2021-06-26T14:17:29Z</time>
      </trkpt>
      <trkpt lat="45.14999" lon="5.57043">
        <ele>1463.351</ele>
        <time>2021-06-26T14:17:34Z</time>
      </trkpt>
      <trkpt lat="45.14988" lon="5.57051">
        <ele>1465.231</ele>
        <time>2021-06-26T14:17:39Z</time>
      </trkpt>
      <trkpt lat="45.1498" lon="5.57058">
        <ele>1466.039</ele>
        <time>2021-06-26T14:17:44Z</time>
      </trkpt>
      <trkpt lat="45.14971" lon="5.57065">
        <ele>1465.515</ele>
        <time>2021-06-26T14:17:49Z</time>
      </trkpt>
      <trkpt lat="45.14963" lon="5.57074">
        <ele>1463.927</ele>
        <time>2021-06-26T14:17:54Z</time>
      </trkpt>
      <trkpt lat="45.14952" lon="5.57085">
        <ele>1470.554</ele>
        <time>2021-06-26T14:17:59Z</time>
      </trkpt>
      <trkpt lat="45.14946" lon="5.571">
        <ele>1471.905</ele>
        <time>2021-06-26T14:18:04Z</time>
      </trkpt>
      <trkpt lat="45.14939" lon="5.57113">
        <ele>1476.294</ele>
        <time>2021-06-26T14:18:09Z</time>
      </trkpt>
      <trkpt lat="45.14933" lon="5.57125">
        <ele>1478.241</ele>
        <time>2021-06-26T14:18:14Z</time>
      </trkpt>
      <trkpt lat="45.14927" lon="5.57136">
        <ele>1477.349</ele>
        <time>2021-06-26T14:18:19Z</time>
      </trkpt>
      <trkpt lat="45.1492" lon="5.57145">
        <ele>1475.693</ele>
        <time>2021-06-26T14:18:24Z</time>
      </trkpt>
      <trkpt lat="45.1491" lon="5.57156">
        <ele>1478.369</ele>
        <time>2021-06-26T14:18:29Z</time>
      </trkpt>
      <trkpt lat="45.14904" lon="5.57166">
        <ele>1480.51</ele>
        <time>2021-06-26T14:18:34Z</time>
      </trkpt>
      <trkpt lat="45.14898" lon="5.57172">
        <ele>1482.05</ele>
        <time>2021-06-26T14:18:39Z</time>
      </trkpt>
      <trkpt lat="45.14891" lon="5.5718">
        <ele>1482.985</ele>
        <time>2021-06-26T14:18:44Z</time>
      </trkpt>
      <trkpt lat="45.14883" lon="5.57184">
        <ele>1482.522</ele>
        <time>2021-06-26T14:18:49Z</time>
      </trkpt>
      <trkpt lat="45.14874" lon="5.57185">
        <ele>1479.634</ele>
        <time>2021-06-26T14:18:54Z</time>
      </trkpt>
      <trkpt lat="45.14865" lon="5.57183">
        <ele>1481.747</ele>
        <time>2021-06-26T14:18:59Z</time>
      </trkpt>
      <trkpt lat="45.14855" lon="5.57181">
        <ele>1482.92</ele>
        <time>2021-06-26T14:19:04Z</time>
      </trkpt>
      <trkpt lat="45.14846" lon="5.57179">
        <ele>1484.145</ele>
        <time>2021-06-26T14:19:09Z</time>
      </trkpt>
      <trkpt lat="45.14837" lon="5.57177">
        <ele>1482.624</ele>
        <time>2021-06-26T14:19:14Z</time>
      </trkpt>
      <trkpt lat="45.14827" lon="5.57178">
        <ele>1480.691</ele>
        <time>2021-06-26T14:19:19Z</time>
      </trkpt>
      <trkpt lat="45.14815" lon="5.57181">
        <ele>1482.536</ele>
        <time>2021-06-26T14:19:24Z</time>
      </trkpt>
      <trkpt lat="45.14803" lon="5.57184">
        <ele>1485.205</ele>
        <time>2021-06-26T14:19:29Z</time>
      </trkpt>
      <trkpt lat="45.14791" lon="5.57188">
        <ele>1486.723</ele>
        <time>2021-06-26T14:19:34Z</time>
      </trkpt>
      <trkpt lat="45.1478" lon="5.57194">
        <ele>1486.421</ele>
        <time>2021-06-26T14:19:39Z</time>
      </trkpt>
      <trkpt lat="45.14768" lon="5.57197">
        <ele>1485.909</ele>
        <time>2021-06-26T14:19:44Z</time>
      </trkpt>
      <trkpt lat="45.14757" lon="5.57197">
        <ele>1484.464</ele>
        <time>2021-06-26T14:19:49Z</time>
      </trkpt>
      <trkpt lat="45.14746" lon="5.57194">
        <ele>1485.823</ele>
        <time>2021-06-26T14:19:54Z</time>
      </trkpt>
      <trkpt lat="45.14736" lon="5.57189">
        <ele>1486.052</ele>
        <time>2021-06-26T14:19:59Z</time>
      </trkpt>
      <trkpt lat="45.14727" lon="5.57183">
        <ele>1486.555</ele>
        <time>2021-06-26T14:20:04Z</time>
      </trkpt>
      <trkpt lat="45.14715" lon="5.5718">
        <ele>1491.7</ele>
        <time>2021-06-26T14:20:09Z</time>
      </trkpt>
      <trkpt lat="45.14705" lon="5.5718">
        <ele>1492.219</ele>
        <time>2021-06-26T14:20:14Z</time>
      </trkpt>
      <trkpt lat="45.14698" lon="5.57179">
        <ele>1493.649</ele>
        <time>2021-06-26T14:20:19Z</time>
      </trkpt>
      <trkpt lat="45.14692" lon="5.57177">
        <ele>1493.746</ele>
        <time>2021-06-26T14:20:24Z</time>
      </trkpt>
      <trkpt lat="45.14685" lon="5.57177">
        <ele>1494.015</ele>
        <time>2021-06-26T14:20:29Z</time>
      </trkpt>
      <trkpt lat="45.1468" lon="5.57185">
        <ele>1492.856</ele>
        <time>2021-06-26T14:20:34Z</time>
      </trkpt>
      <trkpt lat="45.1468" lon="5.57196">
        <ele>1493.603</ele>
        <time>2021-06-26T14:20:39Z</time>
      </trkpt>
      <trkpt lat="45.14685" lon="5.57206">
        <ele>1495.682</ele>
        <time>2021-06-26T14:20:44Z</time>
      </trkpt>
      <trkpt lat="45.14692" lon="5.5721">
        <ele>1498.31</ele>
        <time>2021-06-26T14:20:49Z</time>
      </trkpt>
      <trkpt lat="45.14698" lon="5.57213">
        <ele>1500.644</ele>
        <time>2021-06-26T14:20:54Z</time>
      </trkpt>
      <trkpt lat="45.14705" lon="5.57216">
        <ele>1501.713</ele>
        <time>2021-06-26T14:20:59Z</time>
      </trkpt>
      <trkpt lat="45.14712" lon="5.57219">
        <ele>1503.9</ele>
        <time>2021-06-26T14:21:04Z</time>
      </trkpt>
      <trkpt lat="45.1472" lon="5.57225">
        <ele>1502.764</ele>
        <time>2021-06-26T14:21:09Z</time>
      </trkpt>
      <trkpt lat="45.14726" lon="5.57229">
        <ele>1504.403</ele>
        <time>2021-06-26T14:21:14Z</time>
      </trkpt>
      <trkpt lat="45.14736" lon="5.57237">
        <ele>1504.161</ele>
        <time>2021-06-26T14:21:19Z</time>
      </trkpt>
      <trkpt lat="45.14744" lon="5.57244">
        <ele>1502.941</ele>
        <time>2021-06-26T14:21:24Z</time>
      </trkpt>
      <trkpt lat="45.1475" lon="5.5725">
        <ele>1502.982</ele>
        <time>2021-06-26T14:21:29Z</time>
      </trkpt>
      <trkpt lat="45.14756" lon="5.57255">
        <ele>1506.167</ele>
        <time>2021-06-26T14:21:34Z</time>
      </trkpt>
      <trkpt lat="45.14763" lon="5.5726">
        <ele>1505.913</ele>
        <time>2021-06-26T14:21:39Z</time>
      </trkpt>
      <trkpt lat="45.1477" lon="5.57262">
        <ele>1507.017</ele>
        <time>2021-06-26T14:21:44Z</time>
      </trkpt>
      <trkpt lat="45.14779" lon="5.57265">
        <ele>1509.825</ele>
        <time>2021-06-26T14:21:49Z</time>
      </trkpt>
      <trkpt lat="45.14787" lon="5.57267">
        <ele>1510.743</ele>
        <time>2021-06-26T14:21:54Z</time>
      </trkpt>
      <trkpt lat="45.14795" lon="5.57268">
        <ele>1512.657</ele>
        <time>2021-06-26T14:21:59Z</time>
      </trkpt>
      <trkpt lat="45.14803" lon="5.57269">
        <ele>1513.63</ele>
        <time>2021-06-26T14:22:04Z</time>
      </trkpt>
      <trkpt lat="45.14812" lon="5.57272">
        <ele>1514.493</ele>
        <time>2021-06-26T14:22:09Z</time>
      </trkpt>
      <trkpt lat="45.1482" lon="5.57275">
        <ele>1516.134</ele>
        <time>2021-06-26T14:22:14Z</time>
      </trkpt>
      <trkpt lat="45.14829" lon="5.57282">
        <ele>1514</ele>
        <time>2021-06-26T14:22:19Z</time>
      </trkpt>
      <trkpt lat="45.14836" lon="5.5729">
        <ele>1513.412</ele>
        <time>2021-06-26T14:22:24Z</time>
      </trkpt>
      <trkpt lat="45.14843" lon="5.57297">
        <ele>1513.864</ele>
        <time>2021-06-26T14:22:29Z</time>
      </trkpt>
      <trkpt lat="45.14848" lon="5.57305">
        <ele>1516.572</ele>
        <time>2021-06-26T14:22:34Z</time>
      </trkpt>
      <trkpt lat="45.14851" lon="5.57312">
        <ele>1516.459</ele>
        <time>2021-06-26T14:22:39Z</time>
      </trkpt>
      <trkpt lat="45.14855" lon="5.57319">
        <ele>1516.084</ele>
        <time>2021-06-26T14:22:44Z</time>
      </trkpt>
      <trkpt lat="45.14859" lon="5.57327">
        <ele>1519.457</ele>
        <time>2021-06-26T14:22:49Z</time>
      </trkpt>
      <trkpt lat="45.14865" lon="5.57335">
        <ele>1521.173</ele>
        <time>2021-06-26T14:22:54Z</time>
      </trkpt>
      <trkpt lat="45.1487" lon="5.57343">
        <ele>1523.031</ele>
        <time>2021-06-26T14:22:59Z</time>
      </trkpt>
      <trkpt lat="45.14877" lon="5.57351">
        <ele>1523.161</ele>
        <time>2021-06-26T14:23:04Z</time>
      </trkpt>
      <trkpt lat="45.14884" lon="5.57355">
        <ele>1523.556</ele>
        <time>2021-06-26T14:23:09Z</time>
      </trkpt>
      <trkpt lat="45.14893" lon="5.57359">
        <ele>1523.348</ele>
        <time>2021-06-26T14:23:14Z</time>
      </trkpt>
      <trkpt lat="45.14901" lon="5.57361">
        <ele>1525.077</ele>
        <time>2021-06-26T14:23:19Z</time>
      </trkpt>
      <trkpt lat="45.14908" lon="5.57359">
        <ele>1526.548</ele>
        <time>2021-06-26T14:23:24Z</time>
      </trkpt>
      <trkpt lat="45.14915" lon="5.57358">
        <ele>1525.699</ele>
        <time>2021-06-26T14:23:29Z</time>
      </trkpt>
      <trkpt lat="45.14924" lon="5.57359">
        <ele>1525.997</ele>
        <time>2021-06-26T14:23:34Z</time>
      </trkpt>
      <trkpt lat="45.14932" lon="5.57356">
        <ele>1529.192</ele>
        <time>2021-06-26T14:23:39Z</time>
      </trkpt>
      <trkpt lat="45.14938" lon="5.57348">
        <ele>1531.742</ele>
        <time>2021-06-26T14:23:44Z</time>
      </trkpt>
      <trkpt lat="45.14944" lon="5.57342">
        <ele>1533.018</ele>
        <time>2021-06-26T14:23:49Z</time>
      </trkpt>
      <trkpt lat="45.14951" lon="5.57337">
        <ele>1533.484</ele>
        <time>2021-06-26T14:23:54Z</time>
      </trkpt>
      <trkpt lat="45.14957" lon="5.57334">
        <ele>1535.4</ele>
        <time>2021-06-26T14:23:59Z</time>
      </trkpt>
      <trkpt lat="45.14963" lon="5.5733">
        <ele>1536.289</ele>
        <time>2021-06-26T14:24:04Z</time>
      </trkpt>
      <trkpt lat="45.14968" lon="5.57328">
        <ele>1538.393</ele>
        <time>2021-06-26T14:24:09Z</time>
      </trkpt>
      <trkpt lat="45.14975" lon="5.57324">
        <ele>1538.164</ele>
        <time>2021-06-26T14:24:14Z</time>
      </trkpt>
      <trkpt lat="45.14982" lon="5.57322">
        <ele>1538.384</ele>
        <time>2021-06-26T14:24:19Z</time>
      </trkpt>
      <trkpt lat="45.14988" lon="5.57319">
        <ele>1539.856</ele>
        <time>2021-06-26T14:24:24Z</time>
      </trkpt>
      <trkpt lat="45.14995" lon="5.57318">
        <ele>1540.92</ele>
        <time>2021-06-26T14:24:29Z</time>
      </trkpt>
      <trkpt lat="45.15002" lon="5.57316">
        <ele>1540.407</ele>
        <time>2021-06-26T14:24:34Z</time>
      </trkpt>
      <trkpt lat="45.15009" lon="5.57316">
        <ele>1542.42</ele>
        <time>2021-06-26T14:24:39Z</time>
      </trkpt>
      <trkpt lat="45.15015" lon="5.57314">
        <ele>1544.351</ele>
        <time>2021-06-26T14:24:44Z</time>
      </trkpt>
      <trkpt lat="45.15021" lon="5.57315">
        <ele>1543.838</ele>
        <time>2021-06-26T14:24:49Z</time>
      </trkpt>
      <trkpt lat="45.15027" lon="5.57316">
        <ele>1543.146</ele>
        <time>2021-06-26T14:24:54Z</time>
      </trkpt>
      <trkpt lat="45.15034" lon="5.57318">
        <ele>1545.658</ele>
        <time>2021-06-26T14:24:59Z</time>
      </trkpt>
      <trkpt lat="45.15042" lon="5.57321">
        <ele>1546.821</ele>
        <time>2021-06-26T14:25:04Z</time>
      </trkpt>
      <trkpt lat="45.1505" lon="5.57324">
        <ele>1547.124</ele>
        <time>2021-06-26T14:25:09Z</time>
      </trkpt>
      <trkpt lat="45.15058" lon="5.57328">
        <ele>1547</ele>
        <time>2021-06-26T14:25:14Z</time>
      </trkpt>
      <trkpt lat="45.15065" lon="5.5733">
        <ele>1546.15</ele>
        <time>2021-06-26T14:25:19Z</time>
      </trkpt>
      <trkpt lat="45.15072" lon="5.57335">
        <ele>1544.9</ele>
        <time>2021-06-26T14:25:24Z</time>
      </trkpt>
      <trkpt lat="45.1508" lon="5.57339">
        <ele>1545.244</ele>
        <time>2021-06-26T14:25:29Z</time>
      </trkpt>
      <trkpt lat="45.15086" lon="5.57344">
        <ele>1544.525</ele>
        <time>2021-06-26T14:25:34Z</time>
      </trkpt>
      <trkpt lat="45.15093" lon="5.57351">
        <ele>1544.603</ele>
        <time>2021-06-26T14:25:39Z</time>
      </trkpt>
      <trkpt lat="45.15098" lon="5.57358">
        <ele>1545.511</ele>
        <time>2021-06-26T14:25:44Z</time>
      </trkpt>
      <trkpt lat="45.15105" lon="5.57365">
        <ele>1546.131</ele>
        <time>2021-06-26T14:25:49Z</time>
      </trkpt>
      <trkpt lat="45.1511" lon="5.57372">
        <ele>1547.185</ele>
        <time>2021-06-26T14:25:54Z</time>
      </trkpt>
      <trkpt lat="45.15116" lon="5.57379">
        <ele>1548.862</ele>
        <time>2021-06-26T14:25:59Z</time>
      </trkpt>
      <trkpt lat="45.15122" lon="5.57386">
        <ele>1548.487</ele>
        <time>2021-06-26T14:26:04Z</time>
      </trkpt>
      <trkpt lat="45.15128" lon="5.57392">
        <ele>1549.868</ele>
        <time>2021-06-26T14:26:09Z</time>
      </trkpt>
      <trkpt lat="45.15134" lon="5.57398">
        <ele>1550.785</ele>
        <time>2021-06-26T14:26:14Z</time>
      </trkpt>
      <trkpt lat="45.15139" lon="5.57402">
        <ele>1551.529</ele>
        <time>2021-06-26T14:26:19Z</time>
      </trkpt>
      <trkpt lat="45.15145" lon="5.57407">
        <ele>1552.501</ele>
        <time>2021-06-26T14:26:24Z</time>
      </trkpt>
      <trkpt lat="45.15151" lon="5.57411">
        <ele>1553.402</ele>
        <time>2021-06-26T14:26:29Z</time>
      </trkpt>
      <trkpt lat="45.15157" lon="5.57416">
        <ele>1555.644</ele>
        <time>2021-06-26T14:26:34Z</time>
      </trkpt>
      <trkpt lat="45.15163" lon="5.57422">
        <ele>1556.398</ele>
        <time>2021-06-26T14:26:39Z</time>
      </trkpt>
      <trkpt lat="45.15169" lon="5.57428">
        <ele>1556.451</ele>
        <time>2021-06-26T14:26:44Z</time>
      </trkpt>
      <trkpt lat="45.15176" lon="5.57434">
        <ele>1556.609</ele>
        <time>2021-06-26T14:26:49Z</time>
      </trkpt>
      <trkpt lat="45.15182" lon="5.57441">
        <ele>1557.436</ele>
        <time>2021-06-26T14:26:54Z</time>
      </trkpt>
      <trkpt lat="45.15188" lon="5.57446">
        <ele>1558.581</ele>
        <time>2021-06-26T14:26:59Z</time>
      </trkpt>
      <trkpt lat="45.15194" lon="5.57453">
        <ele>1559.998</ele>
        <time>2021-06-26T14:27:04Z</time>
      </trkpt>
      <trkpt lat="45.15199" lon="5.57462">
        <ele>1560.975</ele>
        <time>2021-06-26T14:27:09Z</time>
      </trkpt>
      <trkpt lat="45.15204" lon="5.57472">
        <ele>1560.573</ele>
        <time>2021-06-26T14:27:14Z</time>
      </trkpt>
      <trkpt lat="45.15209" lon="5.57476">
        <ele>1561.062</ele>
        <time>2021-06-26T14:27:19Z</time>
      </trkpt>
      <trkpt lat="45.15214" lon="5.5748">
        <ele>1560.121</ele>
        <time>2021-06-26T14:27:24Z</time>
      </trkpt>
      <trkpt lat="45.15219" lon="5.5748">
        <ele>1561.953</ele>
        <time>2021-06-26T14:27:29Z</time>
      </trkpt>
      <trkpt lat="45.15219" lon="5.57486">
        <ele>1560.774</ele>
        <time>2021-06-26T14:27:34Z</time>
      </trkpt>
      <trkpt lat="45.15225" lon="5.57491">
        <ele>1561.297</ele>
        <time>2021-06-26T14:27:39Z</time>
      </trkpt>
      <trkpt lat="45.15229" lon="5.57496">
        <ele>1562.552</ele>
        <time>2021-06-26T14:27:44Z</time>
      </trkpt>
      <trkpt lat="45.15233" lon="5.57503">
        <ele>1564.932</ele>
        <time>2021-06-26T14:27:49Z</time>
      </trkpt>
      <trkpt lat="45.15238" lon="5.57508">
        <ele>1565.722</ele>
        <time>2021-06-26T14:27:54Z</time>
      </trkpt>
      <trkpt lat="45.15242" lon="5.57513">
        <ele>1565.82</ele>
        <time>2021-06-26T14:27:59Z</time>
      </trkpt>
      <trkpt lat="45.15247" lon="5.57516">
        <ele>1568.366</ele>
        <time>2021-06-26T14:28:04Z</time>
      </trkpt>
      <trkpt lat="45.15252" lon="5.57519">
        <ele>1570.103</ele>
        <time>2021-06-26T14:28:09Z</time>
      </trkpt>
      <trkpt lat="45.15252" lon="5.57518">
        <ele>1571.921</ele>
        <time>2021-06-26T14:28:14Z</time>
      </trkpt>
      <trkpt lat="45.15254" lon="5.5752">
        <ele>1573.041</ele>
        <time>2021-06-26T14:28:19Z</time>
      </trkpt>
      <trkpt lat="45.15256" lon="5.57521">
        <ele>1572.947</ele>
        <time>2021-06-26T14:28:24Z</time>
      </trkpt>
      <trkpt lat="45.15259" lon="5.57523">
        <ele>1572.749</ele>
        <time>2021-06-26T14:28:29Z</time>
      </trkpt>
      <trkpt lat="45.15262" lon="5.57526">
        <ele>1573.883</ele>
        <time>2021-06-26T14:28:34Z</time>
      </trkpt>
      <trkpt lat="45.15264" lon="5.57526">
        <ele>1576.05</ele>
        <time>2021-06-26T14:28:39Z</time>
      </trkpt>
      <trkpt lat="45.15266" lon="5.57527">
        <ele>1577.253</ele>
        <time>2021-06-26T14:28:44Z</time>
      </trkpt>
      <trkpt lat="45.15268" lon="5.57529">
        <ele>1578.722</ele>
        <time>2021-06-26T14:28:49Z</time>
      </trkpt>
      <trkpt lat="45.15271" lon="5.57531">
        <ele>1580.152</ele>
        <time>2021-06-26T14:28:54Z</time>
      </trkpt>
      <trkpt lat="45.15273" lon="5.57532">
        <ele>1581.327</ele>
        <time>2021-06-26T14:28:59Z</time>
      </trkpt>
      <trkpt lat="45.15276" lon="5.57533">
        <ele>1582.909</ele>
        <time>2021-06-26T14:29:04Z</time>
      </trkpt>
      <trkpt lat="45.15277" lon="5.57535">
        <ele>1582.663</ele>
        <time>2021-06-26T14:29:09Z</time>
      </trkpt>
      <trkpt lat="45.1528" lon="5.57537">
        <ele>1584.076</ele>
        <time>2021-06-26T14:29:14Z</time>
      </trkpt>
      <trkpt lat="45.15283" lon="5.57539">
        <ele>1585.083</ele>
        <time>2021-06-26T14:29:19Z</time>
      </trkpt>
      <trkpt lat="45.15286" lon="5.57542">
        <ele>1586.543</ele>
        <time>2021-06-26T14:29:24Z</time>
      </trkpt>
      <trkpt lat="45.15289" lon="5.57544">
        <ele>1587.407</ele>
        <time>2021-06-26T14:29:29Z</time>
      </trkpt>
      <trkpt lat="45.15294" lon="5.57546">
        <ele>1586.612</ele>
        <time>2021-06-26T14:29:34Z</time>
      </trkpt>
      <trkpt lat="45.15298" lon="5.5755">
        <ele>1586.611</ele>
        <time>2021-06-26T14:29:39Z</time>
      </trkpt>
      <trkpt lat="45.15301" lon="5.57552">
        <ele>1587.933</ele>
        <time>2021-06-26T14:29:44Z</time>
      </trkpt>
      <trkpt lat="45.15304" lon="5.57554">
        <ele>1589.047</ele>
        <time>2021-06-26T14:29:49Z</time>
      </trkpt>
      <trkpt lat="45.15309" lon="5.57558">
        <ele>1589.753</ele>
        <time>2021-06-26T14:29:54Z</time>
      </trkpt>
      <trkpt lat="45.15312" lon="5.57562">
        <ele>1588.071</ele>
        <time>2021-06-26T14:29:59Z</time>
      </trkpt>
      <trkpt lat="45.15315" lon="5.57564">
        <ele>1590.238</ele>
        <time>2021-06-26T14:30:04Z</time>
      </trkpt>
      <trkpt lat="45.15319" lon="5.57566">
        <ele>1591.806</ele>
        <time>2021-06-26T14:30:09Z</time>
      </trkpt>
      <trkpt lat="45.15321" lon="5.57569">
        <ele>1591.929</ele>
        <time>2021-06-26T14:30:14Z</time>
      </trkpt>
      <trkpt lat="45.15322" lon="5.57573">
        <ele>1591.762</ele>
        <time>2021-06-26T14:30:19Z</time>
      </trkpt>
      <trkpt lat="45.15326" lon="5.57577">
        <ele>1592.368</ele>
        <time>2021-06-26T14:30:24Z</time>
      </trkpt>
      <trkpt lat="45.1533" lon="5.5758">
        <ele>1592.093</ele>
        <time>2021-06-26T14:30:29Z</time>
      </trkpt>
      <trkpt lat="45.15335" lon="5.57585">
        <ele>1592.748</ele>
        <time>2021-06-26T14:30:34Z</time>
      </trkpt>
      <trkpt lat="45.15338" lon="5.57591">
        <ele>1592.718</ele>
        <time>2021-06-26T14:30:39Z</time>
      </trkpt>
      <trkpt lat="45.15343" lon="5.57596">
        <ele>1592.567</ele>
        <time>2021-06-26T14:30:44Z</time>
      </trkpt>
      <trkpt lat="45.15347" lon="5.57601">
        <ele>1593.325</ele>
        <time>2021-06-26T14:30:49Z</time>
      </trkpt>
      <trkpt lat="45.15351" lon="5.57603">
        <ele>1596.958</ele>
        <time>2021-06-26T14:30:54Z</time>
      </trkpt>
      <trkpt lat="45.15355" lon="5.57605">
        <ele>1598.705</ele>
        <time>2021-06-26T14:30:59Z</time>
      </trkpt>
      <trkpt lat="45.15362" lon="5.57609">
        <ele>1599.161</ele>
        <time>2021-06-26T14:31:04Z</time>
      </trkpt>
      <trkpt lat="45.15368" lon="5.57614">
        <ele>1596.941</ele>
        <time>2021-06-26T14:31:09Z</time>
      </trkpt>
      <trkpt lat="45.15375" lon="5.57618">
        <ele>1598.058</ele>
        <time>2021-06-26T14:31:14Z</time>
      </trkpt>
      <trkpt lat="45.15382" lon="5.57622">
        <ele>1599.29</ele>
        <time>2021-06-26T14:31:19Z</time>
      </trkpt>
      <trkpt lat="45.15388" lon="5.57625">
        <ele>1599.877</ele>
        <time>2021-06-26T14:31:24Z</time>
      </trkpt>
      <trkpt lat="45.15395" lon="5.57626">
        <ele>1600.553</ele>
        <time>2021-06-26T14:31:29Z</time>
      </trkpt>
      <trkpt lat="45.15401" lon="5.57629">
        <ele>1599.787</ele>
        <time>2021-06-26T14:31:34Z</time>
      </trkpt>
      <trkpt lat="45.15409" lon="5.57631">
        <ele>1602.164</ele>
        <time>2021-06-26T14:31:39Z</time>
      </trkpt>
      <trkpt lat="45.15415" lon="5.57635">
        <ele>1601.785</ele>
        <time>2021-06-26T14:31:44Z</time>
      </trkpt>
      <trkpt lat="45.15422" lon="5.57638">
        <ele>1602.034</ele>
        <time>2021-06-26T14:31:49Z</time>
      </trkpt>
      <trkpt lat="45.15429" lon="5.57641">
        <ele>1603.703</ele>
        <time>2021-06-26T14:31:54Z</time>
      </trkpt>
      <trkpt lat="45.15438" lon="5.57644">
        <ele>1604.582</ele>
        <time>2021-06-26T14:31:59Z</time>
      </trkpt>
      <trkpt lat="45.15446" lon="5.57647">
        <ele>1605.525</ele>
        <time>2021-06-26T14:32:04Z</time>
      </trkpt>
      <trkpt lat="45.15454" lon="5.57649">
        <ele>1606.112</ele>
        <time>2021-06-26T14:32:09Z</time>
      </trkpt>
      <trkpt lat="45.15461" lon="5.5765">
        <ele>1604.891</ele>
        <time>2021-06-26T14:32:14Z</time>
      </trkpt>
      <trkpt lat="45.15468" lon="5.57653">
        <ele>1601.125</ele>
        <time>2021-06-26T14:32:19Z</time>
      </trkpt>
      <trkpt lat="45.15477" lon="5.57659">
        <ele>1596.56</ele>
        <time>2021-06-26T14:32:24Z</time>
      </trkpt>
      <trkpt lat="45.15491" lon="5.57664">
        <ele>1597.937</ele>
        <time>2021-06-26T14:32:29Z</time>
      </trkpt>
      <trkpt lat="45.15507" lon="5.57666">
        <ele>1598.831</ele>
        <time>2021-06-26T14:32:34Z</time>
      </trkpt>
      <trkpt lat="45.15512" lon="5.57669">
        <ele>1600.802</ele>
        <time>2021-06-26T14:32:39Z</time>
      </trkpt>
      <trkpt lat="45.15519" lon="5.57676">
        <ele>1602.896</ele>
        <time>2021-06-26T14:32:44Z</time>
      </trkpt>
      <trkpt lat="45.15527" lon="5.5768">
        <ele>1606.15</ele>
        <time>2021-06-26T14:32:49Z</time>
      </trkpt>
      <trkpt lat="45.15531" lon="5.57686">
        <ele>1608.459</ele>
        <time>2021-06-26T14:32:54Z</time>
      </trkpt>
      <trkpt lat="45.15535" lon="5.57692">
        <ele>1608.655</ele>
        <time>2021-06-26T14:32:59Z</time>
      </trkpt>
      <trkpt lat="45.1554" lon="5.577">
        <ele>1610.103</ele>
        <time>2021-06-26T14:33:04Z</time>
      </trkpt>
      <trkpt lat="45.15544" lon="5.57708">
        <ele>1611.666</ele>
        <time>2021-06-26T14:33:09Z</time>
      </trkpt>
      <trkpt lat="45.15546" lon="5.57717">
        <ele>1613.177</ele>
        <time>2021-06-26T14:33:14Z</time>
      </trkpt>
      <trkpt lat="45.15549" lon="5.57726">
        <ele>1615.181</ele>
        <time>2021-06-26T14:33:19Z</time>
      </trkpt>
      <trkpt lat="45.15554" lon="5.57735">
        <ele>1618.865</ele>
        <time>2021-06-26T14:33:24Z</time>
      </trkpt>
      <trkpt lat="45.15556" lon="5.57745">
        <ele>1620.038</ele>
        <time>2021-06-26T14:33:29Z</time>
      </trkpt>
      <trkpt lat="45.15558" lon="5.57753">
        <ele>1617.964</ele>
        <time>2021-06-26T14:33:34Z</time>
      </trkpt>
      <trkpt lat="45.15561" lon="5.57761">
        <ele>1616.536</ele>
        <time>2021-06-26T14:33:39Z</time>
      </trkpt>
      <trkpt lat="45.15564" lon="5.5777">
        <ele>1615.944</ele>
        <time>2021-06-26T14:33:44Z</time>
      </trkpt>
      <trkpt lat="45.15566" lon="5.57779">
        <ele>1612.738</ele>
        <time>2021-06-26T14:33:49Z</time>
      </trkpt>
      <trkpt lat="45.1557" lon="5.57789">
        <ele>1615.867</ele>
        <time>2021-06-26T14:33:54Z</time>
      </trkpt>
      <trkpt lat="45.15572" lon="5.57797">
        <ele>1619.23</ele>
        <time>2021-06-26T14:33:59Z</time>
      </trkpt>
      <trkpt lat="45.15573" lon="5.57806">
        <ele>1621.021</ele>
        <time>2021-06-26T14:34:04Z</time>
      </trkpt>
      <trkpt lat="45.15572" lon="5.57814">
        <ele>1621.192</ele>
        <time>2021-06-26T14:34:09Z</time>
      </trkpt>
      <trkpt lat="45.15572" lon="5.57824">
        <ele>1622.686</ele>
        <time>2021-06-26T14:34:14Z</time>
      </trkpt>
      <trkpt lat="45.15572" lon="5.57833">
        <ele>1624.517</ele>
        <time>2021-06-26T14:34:19Z</time>
      </trkpt>
      <trkpt lat="45.15571" lon="5.57838">
        <ele>1624.905</ele>
        <time>2021-06-26T14:34:24Z</time>
      </trkpt>
      <trkpt lat="45.15572" lon="5.57847">
        <ele>1624.179</ele>
        <time>2021-06-26T14:34:29Z</time>
      </trkpt>
      <trkpt lat="45.15571" lon="5.57857">
        <ele>1623.515</ele>
        <time>2021-06-26T14:34:34Z</time>
      </trkpt>
      <trkpt lat="45.15568" lon="5.57864">
        <ele>1624.976</ele>
        <time>2021-06-26T14:34:39Z</time>
      </trkpt>
      <trkpt lat="45.15568" lon="5.57864">
        <ele>1625.136</ele>
        <time>2021-06-26T14:34:44Z</time>
      </trkpt>
      <trkpt lat="45.15569" lon="5.57865">
        <ele>1625.037</ele>
        <time>2021-06-26T14:34:49Z</time>
      </trkpt>
      <trkpt lat="45.15569" lon="5.57865">
        <ele>1625.044</ele>
        <time>2021-06-26T14:34:54Z</time>
      </trkpt>
      <trkpt lat="45.15569" lon="5.57865">
        <ele>1625.053</ele>
        <time>2021-06-26T14:34:59Z</time>
      </trkpt>
      <trkpt lat="45.15569" lon="5.57865">
        <ele>1625.076</ele>
        <time>2021-06-26T14:35:04Z</time>
      </trkpt>
      <trkpt lat="45.15569" lon="5.57865">
        <ele>1625.211</ele>
        <time>2021-06-26T14:35:09Z</time>
      </trkpt>
      <trkpt lat="45.15569" lon="5.57864">
        <ele>1627.401</ele>
        <time>2021-06-26T14:35:14Z</time>
      </trkpt>
      <trkpt lat="45.15569" lon="5.57865">
        <ele>1627.436</ele>
        <time>2021-06-26T14:35:19Z</time>
      </trkpt>
      <trkpt lat="45.15569" lon="5.57865">
        <ele>1627.456</ele>
        <time>2021-06-26T14:35:24Z</time>
      </trkpt>
      <trkpt lat="45.15569" lon="5.57865">
        <ele>1627.478</ele>
        <time>2021-06-26T14:35:29Z</time>
      </trkpt>
      <trkpt lat="45.1557" lon="5.57865">
        <ele>1627.395</ele>
        <time>2021-06-26T14:35:34Z</time>
      </trkpt>
      <trkpt lat="45.1557" lon="5.57865">
        <ele>1627.508</ele>
        <time>2021-06-26T14:35:39Z</time>
      </trkpt>
      <trkpt lat="45.1557" lon="5.57865">
        <ele>1627.488</ele>
        <time>2021-06-26T14:35:44Z</time>
      </trkpt>
      <trkpt lat="45.1557" lon="5.57865">
        <ele>1627.446</ele>
        <time>2021-06-26T14:35:49Z</time>
      </trkpt>
      <trkpt lat="45.1557" lon="5.57865">
        <ele>1627.437</ele>
        <time>2021-06-26T14:35:54Z</time>
      </trkpt>
      <trkpt lat="45.15572" lon="5.57867">
        <ele>1627.194</ele>
        <time>2021-06-26T14:35:59Z</time>
      </trkpt>
      <trkpt lat="45.15572" lon="5.57866">
        <ele>1627.188</ele>
        <time>2021-06-26T14:36:04Z</time>
      </trkpt>
      <trkpt lat="45.15572" lon="5.57866">
        <ele>1627.169</ele>
        <time>2021-06-26T14:36:09Z</time>
      </trkpt>
      <trkpt lat="45.15573" lon="5.57866">
        <ele>1626.503</ele>
        <time>2021-06-26T14:36:14Z</time>
      </trkpt>
      <trkpt lat="45.15574" lon="5.57869">
        <ele>1626.662</ele>
        <time>2021-06-26T14:36:19Z</time>
      </trkpt>
      <trkpt lat="45.15574" lon="5.57869">
        <ele>1626.682</ele>
        <time>2021-06-26T14:36:24Z</time>
      </trkpt>
      <trkpt lat="45.15574" lon="5.57869">
        <ele>1626.7</ele>
        <time>2021-06-26T14:36:29Z</time>
      </trkpt>
      <trkpt lat="45.15574" lon="5.57869">
        <ele>1626.618</ele>
        <time>2021-06-26T14:36:34Z</time>
      </trkpt>
      <trkpt lat="45.15575" lon="5.57868">
        <ele>1627.005</ele>
        <time>2021-06-26T14:36:39Z</time>
      </trkpt>
      <trkpt lat="45.15575" lon="5.57868">
        <ele>1627.003</ele>
        <time>2021-06-26T14:36:44Z</time>
      </trkpt>
      <trkpt lat="45.15576" lon="5.57867">
        <ele>1626.293</ele>
        <time>2021-06-26T14:36:49Z</time>
      </trkpt>
      <trkpt lat="45.15582" lon="5.57868">
        <ele>1626.272</ele>
        <time>2021-06-26T14:36:54Z</time>
      </trkpt>
      <trkpt lat="45.15588" lon="5.5787">
        <ele>1626.026</ele>
        <time>2021-06-26T14:36:59Z</time>
      </trkpt>
      <trkpt lat="45.15594" lon="5.57875">
        <ele>1626.09</ele>
        <time>2021-06-26T14:37:04Z</time>
      </trkpt>
      <trkpt lat="45.15596" lon="5.57877">
        <ele>1624.377</ele>
        <time>2021-06-26T14:37:09Z</time>
      </trkpt>
      <trkpt lat="45.15599" lon="5.57874">
        <ele>1625.079</ele>
        <time>2021-06-26T14:37:14Z</time>
      </trkpt>
      <trkpt lat="45.15604" lon="5.57871">
        <ele>1629.312</ele>
        <time>2021-06-26T14:37:19Z</time>
      </trkpt>
      <trkpt lat="45.1561" lon="5.5787">
        <ele>1630.368</ele>
        <time>2021-06-26T14:37:24Z</time>
      </trkpt>
      <trkpt lat="45.15616" lon="5.5787">
        <ele>1631.356</ele>
        <time>2021-06-26T14:37:29Z</time>
      </trkpt>
      <trkpt lat="45.15621" lon="5.57871">
        <ele>1632.743</ele>
        <time>2021-06-26T14:37:34Z</time>
      </trkpt>
      <trkpt lat="45.15627" lon="5.57871">
        <ele>1633.584</ele>
        <time>2021-06-26T14:37:39Z</time>
      </trkpt>
      <trkpt lat="45.15634" lon="5.5787">
        <ele>1632.947</ele>
        <time>2021-06-26T14:37:44Z</time>
      </trkpt>
      <trkpt lat="45.15641" lon="5.5787">
        <ele>1633.963</ele>
        <time>2021-06-26T14:37:49Z</time>
      </trkpt>
      <trkpt lat="45.15649" lon="5.5787">
        <ele>1632.704</ele>
        <time>2021-06-26T14:37:54Z</time>
      </trkpt>
      <trkpt lat="45.15659" lon="5.5787">
        <ele>1628.966</ele>
        <time>2021-06-26T14:37:59Z</time>
      </trkpt>
      <trkpt lat="45.15674" lon="5.57865">
        <ele>1631.525</ele>
        <time>2021-06-26T14:38:04Z</time>
      </trkpt>
      <trkpt lat="45.15686" lon="5.5786">
        <ele>1632.766</ele>
        <time>2021-06-26T14:38:09Z</time>
      </trkpt>
      <trkpt lat="45.15698" lon="5.57858">
        <ele>1632.711</ele>
        <time>2021-06-26T14:38:14Z</time>
      </trkpt>
      <trkpt lat="45.15711" lon="5.57857">
        <ele>1632.819</ele>
        <time>2021-06-26T14:38:19Z</time>
      </trkpt>
      <trkpt lat="45.15722" lon="5.57857">
        <ele>1634.441</ele>
        <time>2021-06-26T14:38:24Z</time>
      </trkpt>
      <trkpt lat="45.15733" lon="5.57858">
        <ele>1633.024</ele>
        <time>2021-06-26T14:38:29Z</time>
      </trkpt>
      <trkpt lat="45.15745" lon="5.57861">
        <ele>1633.664</ele>
        <time>2021-06-26T14:38:34Z</time>
      </trkpt>
      <trkpt lat="45.15753" lon="5.57864">
        <ele>1637.21</ele>
        <time>2021-06-26T14:38:39Z</time>
      </trkpt>
      <trkpt lat="45.15756" lon="5.57864">
        <ele>1638.132</ele>
        <time>2021-06-26T14:38:44Z</time>
      </trkpt>
      <trkpt lat="45.15759" lon="5.57865">
        <ele>1639.365</ele>
        <time>2021-06-26T14:38:49Z</time>
      </trkpt>
      <trkpt lat="45.15763" lon="5.57866">
        <ele>1640.071</ele>
        <time>2021-06-26T14:38:54Z</time>
      </trkpt>
      <trkpt lat="45.15767" lon="5.57868">
        <ele>1639.066</ele>
        <time>2021-06-26T14:38:59Z</time>
      </trkpt>
      <trkpt lat="45.15767" lon="5.57871">
        <ele>1638.831</ele>
        <time>2021-06-26T14:39:04Z</time>
      </trkpt>
      <trkpt lat="45.15774" lon="5.57873">
        <ele>1640.347</ele>
        <time>2021-06-26T14:39:09Z</time>
      </trkpt>
      <trkpt lat="45.15781" lon="5.57876">
        <ele>1642.198</ele>
        <time>2021-06-26T14:39:14Z</time>
      </trkpt>
      <trkpt lat="45.15789" lon="5.5788">
        <ele>1643.331</ele>
        <time>2021-06-26T14:39:19Z</time>
      </trkpt>
      <trkpt lat="45.15795" lon="5.57883">
        <ele>1642.916</ele>
        <time>2021-06-26T14:39:24Z</time>
      </trkpt>
      <trkpt lat="45.15805" lon="5.57886">
        <ele>1645.096</ele>
        <time>2021-06-26T14:39:29Z</time>
      </trkpt>
      <trkpt lat="45.1581" lon="5.57889">
        <ele>1645.929</ele>
        <time>2021-06-26T14:39:34Z</time>
      </trkpt>
      <trkpt lat="45.15816" lon="5.57889">
        <ele>1647.26</ele>
        <time>2021-06-26T14:39:39Z</time>
      </trkpt>
      <trkpt lat="45.15825" lon="5.57893">
        <ele>1644.921</ele>
        <time>2021-06-26T14:39:44Z</time>
      </trkpt>
      <trkpt lat="45.15835" lon="5.57894">
        <ele>1645.305</ele>
        <time>2021-06-26T14:39:49Z</time>
      </trkpt>
      <trkpt lat="45.15847" lon="5.57902">
        <ele>1643.566</ele>
        <time>2021-06-26T14:39:54Z</time>
      </trkpt>
      <trkpt lat="45.15859" lon="5.57912">
        <ele>1644.397</ele>
        <time>2021-06-26T14:39:59Z</time>
      </trkpt>
      <trkpt lat="45.15875" lon="5.57916">
        <ele>1645.203</ele>
        <time>2021-06-26T14:40:04Z</time>
      </trkpt>
      <trkpt lat="45.15885" lon="5.57922">
        <ele>1644.878</ele>
        <time>2021-06-26T14:40:09Z</time>
      </trkpt>
      <trkpt lat="45.15891" lon="5.57934">
        <ele>1640.562</ele>
        <time>2021-06-26T14:40:14Z</time>
      </trkpt>
      <trkpt lat="45.15903" lon="5.57947">
        <ele>1644.48</ele>
        <time>2021-06-26T14:40:19Z</time>
      </trkpt>
      <trkpt lat="45.15911" lon="5.57958">
        <ele>1645.434</ele>
        <time>2021-06-26T14:40:24Z</time>
      </trkpt>
      <trkpt lat="45.15918" lon="5.5797">
        <ele>1645.927</ele>
        <time>2021-06-26T14:40:29Z</time>
      </trkpt>
      <trkpt lat="45.15928" lon="5.5798">
        <ele>1647.806</ele>
        <time>2021-06-26T14:40:34Z</time>
      </trkpt>
      <trkpt lat="45.15938" lon="5.57987">
        <ele>1646.864</ele>
        <time>2021-06-26T14:40:39Z</time>
      </trkpt>
      <trkpt lat="45.15949" lon="5.57993">
        <ele>1647.434</ele>
        <time>2021-06-26T14:40:44Z</time>
      </trkpt>
      <trkpt lat="45.1596" lon="5.58001">
        <ele>1647.367</ele>
        <time>2021-06-26T14:40:49Z</time>
      </trkpt>
      <trkpt lat="45.1598" lon="5.5801">
        <ele>1645.15</ele>
        <time>2021-06-26T14:40:54Z</time>
      </trkpt>
      <trkpt lat="45.16003" lon="5.58023">
        <ele>1642.335</ele>
        <time>2021-06-26T14:40:59Z</time>
      </trkpt>
      <trkpt lat="45.16024" lon="5.58027">
        <ele>1645.048</ele>
        <time>2021-06-26T14:41:04Z</time>
      </trkpt>
      <trkpt lat="45.16038" lon="5.58031">
        <ele>1646.968</ele>
        <time>2021-06-26T14:41:09Z</time>
      </trkpt>
      <trkpt lat="45.16053" lon="5.58035">
        <ele>1650.156</ele>
        <time>2021-06-26T14:41:14Z</time>
      </trkpt>
      <trkpt lat="45.1607" lon="5.58035">
        <ele>1651.507</ele>
        <time>2021-06-26T14:41:19Z</time>
      </trkpt>
      <trkpt lat="45.16085" lon="5.58044">
        <ele>1653.311</ele>
        <time>2021-06-26T14:41:24Z</time>
      </trkpt>
      <trkpt lat="45.161" lon="5.58043">
        <ele>1652.217</ele>
        <time>2021-06-26T14:41:29Z</time>
      </trkpt>
      <trkpt lat="45.16115" lon="5.58038">
        <ele>1654.488</ele>
        <time>2021-06-26T14:41:34Z</time>
      </trkpt>
      <trkpt lat="45.16129" lon="5.58035">
        <ele>1656.319</ele>
        <time>2021-06-26T14:41:39Z</time>
      </trkpt>
      <trkpt lat="45.16141" lon="5.58031">
        <ele>1658.997</ele>
        <time>2021-06-26T14:41:44Z</time>
      </trkpt>
      <trkpt lat="45.16154" lon="5.58032">
        <ele>1658.913</ele>
        <time>2021-06-26T14:41:49Z</time>
      </trkpt>
      <trkpt lat="45.16165" lon="5.58033">
        <ele>1660.081</ele>
        <time>2021-06-26T14:41:54Z</time>
      </trkpt>
      <trkpt lat="45.16174" lon="5.58042">
        <ele>1659.967</ele>
        <time>2021-06-26T14:41:59Z</time>
      </trkpt>
      <trkpt lat="45.16191" lon="5.58048">
        <ele>1659.809</ele>
        <time>2021-06-26T14:42:04Z</time>
      </trkpt>
      <trkpt lat="45.16205" lon="5.58051">
        <ele>1658.529</ele>
        <time>2021-06-26T14:42:09Z</time>
      </trkpt>
      <trkpt lat="45.16219" lon="5.58054">
        <ele>1659.139</ele>
        <time>2021-06-26T14:42:14Z</time>
      </trkpt>
      <trkpt lat="45.16232" lon="5.58058">
        <ele>1659.424</ele>
        <time>2021-06-26T14:42:19Z</time>
      </trkpt>
      <trkpt lat="45.16244" lon="5.58062">
        <ele>1660.577</ele>
        <time>2021-06-26T14:42:24Z</time>
      </trkpt>
      <trkpt lat="45.16257" lon="5.58064">
        <ele>1661.678</ele>
        <time>2021-06-26T14:42:29Z</time>
      </trkpt>
      <trkpt lat="45.1627" lon="5.58066">
        <ele>1661.923</ele>
        <time>2021-06-26T14:42:34Z</time>
      </trkpt>
      <trkpt lat="45.16283" lon="5.5807">
        <ele>1664.446</ele>
        <time>2021-06-26T14:42:39Z</time>
      </trkpt>
      <trkpt lat="45.1629" lon="5.58063">
        <ele>1665.164</ele>
        <time>2021-06-26T14:42:44Z</time>
      </trkpt>
      <trkpt lat="45.16298" lon="5.58055">
        <ele>1665.994</ele>
        <time>2021-06-26T14:42:49Z</time>
      </trkpt>
      <trkpt lat="45.16305" lon="5.58056">
        <ele>1663.912</ele>
        <time>2021-06-26T14:42:54Z</time>
      </trkpt>
      <trkpt lat="45.16313" lon="5.58057">
        <ele>1663.873</ele>
        <time>2021-06-26T14:42:59Z</time>
      </trkpt>
      <trkpt lat="45.16316" lon="5.58072">
        <ele>1660.754</ele>
        <time>2021-06-26T14:43:04Z</time>
      </trkpt>
      <trkpt lat="45.16326" lon="5.58079">
        <ele>1659.97</ele>
        <time>2021-06-26T14:43:09Z</time>
      </trkpt>
      <trkpt lat="45.16339" lon="5.58084">
        <ele>1659.569</ele>
        <time>2021-06-26T14:43:14Z</time>
      </trkpt>
      <trkpt lat="45.16351" lon="5.5809">
        <ele>1660.814</ele>
        <time>2021-06-26T14:43:19Z</time>
      </trkpt>
      <trkpt lat="45.16361" lon="5.58097">
        <ele>1660.88</ele>
        <time>2021-06-26T14:43:24Z</time>
      </trkpt>
      <trkpt lat="45.16374" lon="5.58107">
        <ele>1659.521</ele>
        <time>2021-06-26T14:43:29Z</time>
      </trkpt>
      <trkpt lat="45.16385" lon="5.58133">
        <ele>1655.733</ele>
        <time>2021-06-26T14:43:34Z</time>
      </trkpt>
      <trkpt lat="45.16397" lon="5.58154">
        <ele>1655.911</ele>
        <time>2021-06-26T14:43:39Z</time>
      </trkpt>
      <trkpt lat="45.16409" lon="5.58166">
        <ele>1656.393</ele>
        <time>2021-06-26T14:43:44Z</time>
      </trkpt>
      <trkpt lat="45.16414" lon="5.58177">
        <ele>1652.07</ele>
        <time>2021-06-26T14:43:49Z</time>
      </trkpt>
      <trkpt lat="45.16425" lon="5.58194">
        <ele>1649.012</ele>
        <time>2021-06-26T14:43:54Z</time>
      </trkpt>
      <trkpt lat="45.16438" lon="5.5821">
        <ele>1648.966</ele>
        <time>2021-06-26T14:43:59Z</time>
      </trkpt>
      <trkpt lat="45.16455" lon="5.58224">
        <ele>1651.389</ele>
        <time>2021-06-26T14:44:04Z</time>
      </trkpt>
      <trkpt lat="45.1647" lon="5.58233">
        <ele>1653.628</ele>
        <time>2021-06-26T14:44:09Z</time>
      </trkpt>
      <trkpt lat="45.16484" lon="5.58242">
        <ele>1655.744</ele>
        <time>2021-06-26T14:44:14Z</time>
      </trkpt>
      <trkpt lat="45.165" lon="5.58248">
        <ele>1657.334</ele>
        <time>2021-06-26T14:44:19Z</time>
      </trkpt>
      <trkpt lat="45.16513" lon="5.58253">
        <ele>1654.201</ele>
        <time>2021-06-26T14:44:24Z</time>
      </trkpt>
      <trkpt lat="45.16529" lon="5.58259">
        <ele>1655.453</ele>
        <time>2021-06-26T14:44:29Z</time>
      </trkpt>
      <trkpt lat="45.16545" lon="5.58264">
        <ele>1659.179</ele>
        <time>2021-06-26T14:44:34Z</time>
      </trkpt>
      <trkpt lat="45.16561" lon="5.58271">
        <ele>1661.128</ele>
        <time>2021-06-26T14:44:39Z</time>
      </trkpt>
      <trkpt lat="45.16578" lon="5.58277">
        <ele>1662.748</ele>
        <time>2021-06-26T14:44:44Z</time>
      </trkpt>
      <trkpt lat="45.16596" lon="5.58282">
        <ele>1662.567</ele>
        <time>2021-06-26T14:44:49Z</time>
      </trkpt>
      <trkpt lat="45.16612" lon="5.58286">
        <ele>1662.64</ele>
        <time>2021-06-26T14:44:54Z</time>
      </trkpt>
      <trkpt lat="45.16627" lon="5.58293">
        <ele>1661.58</ele>
        <time>2021-06-26T14:44:59Z</time>
      </trkpt>
      <trkpt lat="45.16639" lon="5.58293">
        <ele>1659.472</ele>
        <time>2021-06-26T14:45:04Z</time>
      </trkpt>
      <trkpt lat="45.16642" lon="5.58294">
        <ele>1659.422</ele>
        <time>2021-06-26T14:45:09Z</time>
      </trkpt>
      <trkpt lat="45.16641" lon="5.58294">
        <ele>1659.43</ele>
        <time>2021-06-26T14:45:14Z</time>
      </trkpt>
      <trkpt lat="45.16645" lon="5.58294">
        <ele>1660.056</ele>
        <time>2021-06-26T14:45:19Z</time>
      </trkpt>
      <trkpt lat="45.16663" lon="5.583">
        <ele>1658.486</ele>
        <time>2021-06-26T14:45:24Z</time>
      </trkpt>
      <trkpt lat="45.16697" lon="5.58307">
        <ele>1654.088</ele>
        <time>2021-06-26T14:45:29Z</time>
      </trkpt>
      <trkpt lat="45.16736" lon="5.58315">
        <ele>1651.842</ele>
        <time>2021-06-26T14:45:34Z</time>
      </trkpt>
      <trkpt lat="45.16766" lon="5.5832">
        <ele>1653.434</ele>
        <time>2021-06-26T14:45:39Z</time>
      </trkpt>
      <trkpt lat="45.16777" lon="5.58326">
        <ele>1655.954</ele>
        <time>2021-06-26T14:45:44Z</time>
      </trkpt>
      <trkpt lat="45.16791" lon="5.58333">
        <ele>1656.989</ele>
        <time>2021-06-26T14:45:49Z</time>
      </trkpt>
      <trkpt lat="45.16802" lon="5.58338">
        <ele>1658.797</ele>
        <time>2021-06-26T14:45:54Z</time>
      </trkpt>
      <trkpt lat="45.16815" lon="5.58338">
        <ele>1660.745</ele>
        <time>2021-06-26T14:45:59Z</time>
      </trkpt>
      <trkpt lat="45.16829" lon="5.58332">
        <ele>1659.489</ele>
        <time>2021-06-26T14:46:04Z</time>
      </trkpt>
      <trkpt lat="45.16839" lon="5.58338">
        <ele>1661.439</ele>
        <time>2021-06-26T14:46:09Z</time>
      </trkpt>
      <trkpt lat="45.16854" lon="5.58343">
        <ele>1663.347</ele>
        <time>2021-06-26T14:46:14Z</time>
      </trkpt>
      <trkpt lat="45.16867" lon="5.58346">
        <ele>1665.085</ele>
        <time>2021-06-26T14:46:19Z</time>
      </trkpt>
      <trkpt lat="45.16879" lon="5.5835">
        <ele>1665.353</ele>
        <time>2021-06-26T14:46:24Z</time>
      </trkpt>
      <trkpt lat="45.16888" lon="5.58352">
        <ele>1662.591</ele>
        <time>2021-06-26T14:46:29Z</time>
      </trkpt>
      <trkpt lat="45.16897" lon="5.58356">
        <ele>1662.673</ele>
        <time>2021-06-26T14:46:34Z</time>
      </trkpt>
      <trkpt lat="45.16908" lon="5.58361">
        <ele>1666.04</ele>
        <time>2021-06-26T14:46:39Z</time>
      </trkpt>
      <trkpt lat="45.16921" lon="5.58363">
        <ele>1667.363</ele>
        <time>2021-06-26T14:46:44Z</time>
      </trkpt>
      <trkpt lat="45.16931" lon="5.58366">
        <ele>1669.187</ele>
        <time>2021-06-26T14:46:49Z</time>
      </trkpt>
      <trkpt lat="45.16942" lon="5.5837">
        <ele>1668.641</ele>
        <time>2021-06-26T14:46:54Z</time>
      </trkpt>
      <trkpt lat="45.16954" lon="5.58373">
        <ele>1668.337</ele>
        <time>2021-06-26T14:46:59Z</time>
      </trkpt>
      <trkpt lat="45.16968" lon="5.58376">
        <ele>1668.95</ele>
        <time>2021-06-26T14:47:04Z</time>
      </trkpt>
      <trkpt lat="45.16982" lon="5.58383">
        <ele>1669.797</ele>
        <time>2021-06-26T14:47:09Z</time>
      </trkpt>
      <trkpt lat="45.16991" lon="5.58395">
        <ele>1671.16</ele>
        <time>2021-06-26T14:47:14Z</time>
      </trkpt>
      <trkpt lat="45.16992" lon="5.58392">
        <ele>1669.189</ele>
        <time>2021-06-26T14:47:19Z</time>
      </trkpt>
      <trkpt lat="45.1699" lon="5.58394">
        <ele>1669.542</ele>
        <time>2021-06-26T14:47:24Z</time>
      </trkpt>
      <trkpt lat="45.16989" lon="5.58393">
        <ele>1669.46</ele>
        <time>2021-06-26T14:47:29Z</time>
      </trkpt>
      <trkpt lat="45.16989" lon="5.58393">
        <ele>1669.46</ele>
        <time>2021-06-26T14:47:34Z</time>
      </trkpt>
      <trkpt lat="45.16989" lon="5.58393">
        <ele>1669.465</ele>
        <time>2021-06-26T14:47:39Z</time>
      </trkpt>
      <trkpt lat="45.16989" lon="5.58393">
        <ele>1669.469</ele>
        <time>2021-06-26T14:47:44Z</time>
      </trkpt>
      <trkpt lat="45.16989" lon="5.58393">
        <ele>1669.463</ele>
        <time>2021-06-26T14:47:49Z</time>
      </trkpt>
      <trkpt lat="45.16989" lon="5.58393">
        <ele>1669.457</ele>
        <time>2021-06-26T14:47:54Z</time>
      </trkpt>
      <trkpt lat="45.16989" lon="5.58393">
        <ele>1669.443</ele>
        <time>2021-06-26T14:47:59Z</time>
      </trkpt>
      <trkpt lat="45.16989" lon="5.58393">
        <ele>1669.43</ele>
        <time>2021-06-26T14:48:04Z</time>
      </trkpt>
      <trkpt lat="45.16989" lon="5.58393">
        <ele>1669.41</ele>
        <time>2021-06-26T14:48:09Z</time>
      </trkpt>
      <trkpt lat="45.16989" lon="5.58393">
        <ele>1669.394</ele>
        <time>2021-06-26T14:48:14Z</time>
      </trkpt>
      <trkpt lat="45.16989" lon="5.58393">
        <ele>1669.38</ele>
        <time>2021-06-26T14:48:19Z</time>
      </trkpt>
      <trkpt lat="45.16989" lon="5.58393">
        <ele>1669.357</ele>
        <time>2021-06-26T14:48:24Z</time>
      </trkpt>
      <trkpt lat="45.16989" lon="5.58393">
        <ele>1669.331</ele>
        <time>2021-06-26T14:48:29Z</time>
      </trkpt>
      <trkpt lat="45.16989" lon="5.58393">
        <ele>1669.306</ele>
        <time>2021-06-26T14:48:34Z</time>
      </trkpt>
      <trkpt lat="45.16989" lon="5.58393">
        <ele>1669.285</ele>
        <time>2021-06-26T14:48:39Z</time>
      </trkpt>
      <trkpt lat="45.16988" lon="5.58393">
        <ele>1669.274</ele>
        <time>2021-06-26T14:48:44Z</time>
      </trkpt>
      <trkpt lat="45.16988" lon="5.58393">
        <ele>1669.263</ele>
        <time>2021-06-26T14:48:49Z</time>
      </trkpt>
      <trkpt lat="45.16988" lon="5.58393">
        <ele>1669.255</ele>
        <time>2021-06-26T14:48:54Z</time>
      </trkpt>
      <trkpt lat="45.16988" lon="5.58393">
        <ele>1669.342</ele>
        <time>2021-06-26T14:48:59Z</time>
      </trkpt>
      <trkpt lat="45.16988" lon="5.58393">
        <ele>1669.321</ele>
        <time>2021-06-26T14:49:05Z</time>
      </trkpt>
      <trkpt lat="45.16988" lon="5.58392">
        <ele>1669.656</ele>
        <time>2021-06-26T14:49:10Z</time>
      </trkpt>
      <trkpt lat="45.16987" lon="5.58393">
        <ele>1670.1</ele>
        <time>2021-06-26T14:49:15Z</time>
      </trkpt>
      <trkpt lat="45.16988" lon="5.58392">
        <ele>1669.55</ele>
        <time>2021-06-26T14:49:20Z</time>
      </trkpt>
      <trkpt lat="45.16987" lon="5.58392">
        <ele>1669.563</ele>
        <time>2021-06-26T14:49:25Z</time>
      </trkpt>
      <trkpt lat="45.16987" lon="5.58392">
        <ele>1669.196</ele>
        <time>2021-06-26T14:49:30Z</time>
      </trkpt>
      <trkpt lat="45.16987" lon="5.58392">
        <ele>1669.196</ele>
        <time>2021-06-26T14:49:35Z</time>
      </trkpt>
      <trkpt lat="45.16987" lon="5.58392">
        <ele>1669.208</ele>
        <time>2021-06-26T14:49:40Z</time>
      </trkpt>
      <trkpt lat="45.16987" lon="5.58392">
        <ele>1669.227</ele>
        <time>2021-06-26T14:49:45Z</time>
      </trkpt>
      <trkpt lat="45.16987" lon="5.58391">
        <ele>1669.189</ele>
        <time>2021-06-26T14:49:50Z</time>
      </trkpt>
      <trkpt lat="45.16987" lon="5.58392">
        <ele>1669.184</ele>
        <time>2021-06-26T14:49:55Z</time>
      </trkpt>
      <trkpt lat="45.16987" lon="5.58392">
        <ele>1669.181</ele>
        <time>2021-06-26T14:50:00Z</time>
      </trkpt>
      <trkpt lat="45.16988" lon="5.58393">
        <ele>1669.517</ele>
        <time>2021-06-26T14:50:05Z</time>
      </trkpt>
      <trkpt lat="45.16988" lon="5.58393">
        <ele>1669.217</ele>
        <time>2021-06-26T14:50:10Z</time>
      </trkpt>
      <trkpt lat="45.16988" lon="5.58393">
        <ele>1669.236</ele>
        <time>2021-06-26T14:50:15Z</time>
      </trkpt>
      <trkpt lat="45.16987" lon="5.58391">
        <ele>1669.269</ele>
        <time>2021-06-26T14:50:20Z</time>
      </trkpt>
      <trkpt lat="45.16987" lon="5.58391">
        <ele>1669.282</ele>
        <time>2021-06-26T14:50:25Z</time>
      </trkpt>
      <trkpt lat="45.16987" lon="5.58391">
        <ele>1669.272</ele>
        <time>2021-06-26T14:50:30Z</time>
      </trkpt>
      <trkpt lat="45.16987" lon="5.58391">
        <ele>1669.267</ele>
        <time>2021-06-26T14:50:35Z</time>
      </trkpt>
      <trkpt lat="45.16986" lon="5.58391">
        <ele>1669.555</ele>
        <time>2021-06-26T14:50:40Z</time>
      </trkpt>
      <trkpt lat="45.16986" lon="5.58391">
        <ele>1670.004</ele>
        <time>2021-06-26T14:50:45Z</time>
      </trkpt>
      <trkpt lat="45.16986" lon="5.58391">
        <ele>1670.003</ele>
        <time>2021-06-26T14:50:50Z</time>
      </trkpt>
      <trkpt lat="45.16986" lon="5.58391">
        <ele>1669.996</ele>
        <time>2021-06-26T14:50:55Z</time>
      </trkpt>
      <trkpt lat="45.16986" lon="5.58392">
        <ele>1669.997</ele>
        <time>2021-06-26T14:51:00Z</time>
      </trkpt>
      <trkpt lat="45.16986" lon="5.58391">
        <ele>1669.869</ele>
        <time>2021-06-26T14:51:05Z</time>
      </trkpt>
      <trkpt lat="45.16986" lon="5.58391">
        <ele>1669.872</ele>
        <time>2021-06-26T14:51:10Z</time>
      </trkpt>
      <trkpt lat="45.16986" lon="5.58391">
        <ele>1669.858</ele>
        <time>2021-06-26T14:51:15Z</time>
      </trkpt>
      <trkpt lat="45.16986" lon="5.58391">
        <ele>1669.85</ele>
        <time>2021-06-26T14:51:20Z</time>
      </trkpt>
      <trkpt lat="45.16986" lon="5.58391">
        <ele>1669.841</ele>
        <time>2021-06-26T14:51:25Z</time>
      </trkpt>
      <trkpt lat="45.16986" lon="5.58391">
        <ele>1669.844</ele>
        <time>2021-06-26T14:51:30Z</time>
      </trkpt>
      <trkpt lat="45.16986" lon="5.58391">
        <ele>1669.838</ele>
        <time>2021-06-26T14:51:35Z</time>
      </trkpt>
      <trkpt lat="45.16986" lon="5.58391">
        <ele>1669.844</ele>
        <time>2021-06-26T14:51:40Z</time>
      </trkpt>
      <trkpt lat="45.16986" lon="5.58391">
        <ele>1669.843</ele>
        <time>2021-06-26T14:51:45Z</time>
      </trkpt>
      <trkpt lat="45.16986" lon="5.58391">
        <ele>1669.847</ele>
        <time>2021-06-26T14:51:50Z</time>
      </trkpt>
      <trkpt lat="45.16986" lon="5.58391">
        <ele>1669.844</ele>
        <time>2021-06-26T14:51:55Z</time>
      </trkpt>
      <trkpt lat="45.16987" lon="5.58392">
        <ele>1669.727</ele>
        <time>2021-06-26T14:52:00Z</time>
      </trkpt>
      <trkpt lat="45.16987" lon="5.58392">
        <ele>1669.72</ele>
        <time>2021-06-26T14:52:05Z</time>
      </trkpt>
      <trkpt lat="45.16987" lon="5.58392">
        <ele>1669.718</ele>
        <time>2021-06-26T14:52:10Z</time>
      </trkpt>
      <trkpt lat="45.16987" lon="5.58392">
        <ele>1669.712</ele>
        <time>2021-06-26T14:52:15Z</time>
      </trkpt>
      <trkpt lat="45.16987" lon="5.58392">
        <ele>1669.714</ele>
        <time>2021-06-26T14:52:20Z</time>
      </trkpt>
      <trkpt lat="45.16987" lon="5.58392">
        <ele>1669.715</ele>
        <time>2021-06-26T14:52:25Z</time>
      </trkpt>
      <trkpt lat="45.16987" lon="5.58392">
        <ele>1669.713</ele>
        <time>2021-06-26T14:52:30Z</time>
      </trkpt>
      <trkpt lat="45.16987" lon="5.58392">
        <ele>1669.705</ele>
        <time>2021-06-26T14:52:35Z</time>
      </trkpt>
      <trkpt lat="45.16987" lon="5.58392">
        <ele>1669.703</ele>
        <time>2021-06-26T14:52:40Z</time>
      </trkpt>
      <trkpt lat="45.16987" lon="5.58392">
        <ele>1669.708</ele>
        <time>2021-06-26T14:52:45Z</time>
      </trkpt>
      <trkpt lat="45.16987" lon="5.58392">
        <ele>1669.715</ele>
        <time>2021-06-26T14:52:50Z</time>
      </trkpt>
      <trkpt lat="45.16987" lon="5.58392">
        <ele>1669.718</ele>
        <time>2021-06-26T14:52:55Z</time>
      </trkpt>
      <trkpt lat="45.16987" lon="5.58392">
        <ele>1669.718</ele>
        <time>2021-06-26T14:53:00Z</time>
      </trkpt>
      <trkpt lat="45.16987" lon="5.58392">
        <ele>1669.726</ele>
        <time>2021-06-26T14:53:05Z</time>
      </trkpt>
      <trkpt lat="45.16987" lon="5.58392">
        <ele>1669.732</ele>
        <time>2021-06-26T14:53:10Z</time>
      </trkpt>
      <trkpt lat="45.16987" lon="5.58392">
        <ele>1669.736</ele>
        <time>2021-06-26T14:53:15Z</time>
      </trkpt>
      <trkpt lat="45.16987" lon="5.58392">
        <ele>1669.742</ele>
        <time>2021-06-26T14:53:20Z</time>
      </trkpt>
      <trkpt lat="45.16987" lon="5.58392">
        <ele>1669.737</ele>
        <time>2021-06-26T14:53:25Z</time>
      </trkpt>
      <trkpt lat="45.16987" lon="5.58392">
        <ele>1669.729</ele>
        <time>2021-06-26T14:53:30Z</time>
      </trkpt>
      <trkpt lat="45.16987" lon="5.58392">
        <ele>1669.482</ele>
        <time>2021-06-26T14:53:35Z</time>
      </trkpt>
      <trkpt lat="45.16987" lon="5.58392">
        <ele>1669.466</ele>
        <time>2021-06-26T14:53:40Z</time>
      </trkpt>
      <trkpt lat="45.16987" lon="5.58392">
        <ele>1669.452</ele>
        <time>2021-06-26T14:53:45Z</time>
      </trkpt>
      <trkpt lat="45.16987" lon="5.58392">
        <ele>1669.445</ele>
        <time>2021-06-26T14:53:50Z</time>
      </trkpt>
      <trkpt lat="45.16987" lon="5.58392">
        <ele>1669.433</ele>
        <time>2021-06-26T14:53:55Z</time>
      </trkpt>
      <trkpt lat="45.16987" lon="5.58392">
        <ele>1669.421</ele>
        <time>2021-06-26T14:54:00Z</time>
      </trkpt>
      <trkpt lat="45.16987" lon="5.58392">
        <ele>1669.412</ele>
        <time>2021-06-26T14:54:05Z</time>
      </trkpt>
      <trkpt lat="45.16987" lon="5.58392">
        <ele>1669.408</ele>
        <time>2021-06-26T14:54:10Z</time>
      </trkpt>
      <trkpt lat="45.16987" lon="5.58392">
        <ele>1669.391</ele>
        <time>2021-06-26T14:54:15Z</time>
      </trkpt>
      <trkpt lat="45.16987" lon="5.58392">
        <ele>1669.378</ele>
        <time>2021-06-26T14:54:20Z</time>
      </trkpt>
      <trkpt lat="45.16987" lon="5.58392">
        <ele>1669.373</ele>
        <time>2021-06-26T14:54:25Z</time>
      </trkpt>
      <trkpt lat="45.16987" lon="5.58392">
        <ele>1669.365</ele>
        <time>2021-06-26T14:54:30Z</time>
      </trkpt>
      <trkpt lat="45.16987" lon="5.58392">
        <ele>1669.357</ele>
        <time>2021-06-26T14:54:35Z</time>
      </trkpt>
      <trkpt lat="45.16987" lon="5.58392">
        <ele>1669.281</ele>
        <time>2021-06-26T14:54:40Z</time>
      </trkpt>
      <trkpt lat="45.16987" lon="5.58393">
        <ele>1669.274</ele>
        <time>2021-06-26T14:54:45Z</time>
      </trkpt>
      <trkpt lat="45.16987" lon="5.58393">
        <ele>1669.272</ele>
        <time>2021-06-26T14:54:50Z</time>
      </trkpt>
      <trkpt lat="45.16987" lon="5.58393">
        <ele>1669.274</ele>
        <time>2021-06-26T14:54:55Z</time>
      </trkpt>
      <trkpt lat="45.16987" lon="5.58393">
        <ele>1669.277</ele>
        <time>2021-06-26T14:55:00Z</time>
      </trkpt>
      <trkpt lat="45.16987" lon="5.58393">
        <ele>1669.679</ele>
        <time>2021-06-26T14:55:05Z</time>
      </trkpt>
      <trkpt lat="45.16987" lon="5.58393">
        <ele>1669.693</ele>
        <time>2021-06-26T14:55:10Z</time>
      </trkpt>
      <trkpt lat="45.16987" lon="5.58393">
        <ele>1669.705</ele>
        <time>2021-06-26T14:55:15Z</time>
      </trkpt>
      <trkpt lat="45.16987" lon="5.58393">
        <ele>1669.913</ele>
        <time>2021-06-26T14:55:20Z</time>
      </trkpt>
      <trkpt lat="45.16987" lon="5.58393">
        <ele>1669.91</ele>
        <time>2021-06-26T14:55:25Z</time>
      </trkpt>
      <trkpt lat="45.16987" lon="5.58393">
        <ele>1669.909</ele>
        <time>2021-06-26T14:55:30Z</time>
      </trkpt>
      <trkpt lat="45.16987" lon="5.58393">
        <ele>1669.899</ele>
        <time>2021-06-26T14:55:35Z</time>
      </trkpt>
      <trkpt lat="45.16987" lon="5.58393">
        <ele>1669.909</ele>
        <time>2021-06-26T14:55:40Z</time>
      </trkpt>
      <trkpt lat="45.16987" lon="5.58392">
        <ele>1669.121</ele>
        <time>2021-06-26T14:55:45Z</time>
      </trkpt>
      <trkpt lat="45.16987" lon="5.58392">
        <ele>1669.128</ele>
        <time>2021-06-26T14:55:50Z</time>
      </trkpt>
      <trkpt lat="45.16987" lon="5.58392">
        <ele>1669.118</ele>
        <time>2021-06-26T14:55:55Z</time>
      </trkpt>
      <trkpt lat="45.16987" lon="5.58391">
        <ele>1669.227</ele>
        <time>2021-06-26T14:56:00Z</time>
      </trkpt>
      <trkpt lat="45.16987" lon="5.58391">
        <ele>1669.226</ele>
        <time>2021-06-26T14:56:05Z</time>
      </trkpt>
      <trkpt lat="45.16987" lon="5.58391">
        <ele>1669.223</ele>
        <time>2021-06-26T14:56:10Z</time>
      </trkpt>
      <trkpt lat="45.16987" lon="5.58391">
        <ele>1669.225</ele>
        <time>2021-06-26T14:56:15Z</time>
      </trkpt>
      <trkpt lat="45.16987" lon="5.58392">
        <ele>1669.016</ele>
        <time>2021-06-26T14:56:20Z</time>
      </trkpt>
      <trkpt lat="45.16987" lon="5.58391">
        <ele>1669.171</ele>
        <time>2021-06-26T14:56:25Z</time>
      </trkpt>
      <trkpt lat="45.16987" lon="5.58391">
        <ele>1669.173</ele>
        <time>2021-06-26T14:56:30Z</time>
      </trkpt>
      <trkpt lat="45.16987" lon="5.58391">
        <ele>1669.289</ele>
        <time>2021-06-26T14:56:35Z</time>
      </trkpt>
      <trkpt lat="45.16987" lon="5.58392">
        <ele>1669.48</ele>
        <time>2021-06-26T14:56:40Z</time>
      </trkpt>
      <trkpt lat="45.16987" lon="5.58392">
        <ele>1669.47</ele>
        <time>2021-06-26T14:56:45Z</time>
      </trkpt>
      <trkpt lat="45.16987" lon="5.58392">
        <ele>1669.334</ele>
        <time>2021-06-26T14:56:50Z</time>
      </trkpt>
      <trkpt lat="45.16987" lon="5.58392">
        <ele>1669.343</ele>
        <time>2021-06-26T14:56:55Z</time>
      </trkpt>
      <trkpt lat="45.16987" lon="5.58392">
        <ele>1669.342</ele>
        <time>2021-06-26T14:57:00Z</time>
      </trkpt>
      <trkpt lat="45.16987" lon="5.58392">
        <ele>1669.345</ele>
        <time>2021-06-26T14:57:05Z</time>
      </trkpt>
      <trkpt lat="45.16987" lon="5.58392">
        <ele>1669.352</ele>
        <time>2021-06-26T14:57:10Z</time>
      </trkpt>
      <trkpt lat="45.16987" lon="5.58392">
        <ele>1669.349</ele>
        <time>2021-06-26T14:57:15Z</time>
      </trkpt>
      <trkpt lat="45.16987" lon="5.58392">
        <ele>1669.35</ele>
        <time>2021-06-26T14:57:20Z</time>
      </trkpt>
      <trkpt lat="45.16987" lon="5.58392">
        <ele>1669.717</ele>
        <time>2021-06-26T14:57:25Z</time>
      </trkpt>
      <trkpt lat="45.16987" lon="5.58391">
        <ele>1669.714</ele>
        <time>2021-06-26T14:57:30Z</time>
      </trkpt>
      <trkpt lat="45.16987" lon="5.58391">
        <ele>1669.891</ele>
        <time>2021-06-26T14:57:35Z</time>
      </trkpt>
      <trkpt lat="45.16987" lon="5.58391">
        <ele>1669.874</ele>
        <time>2021-06-26T14:57:40Z</time>
      </trkpt>
      <trkpt lat="45.16987" lon="5.58391">
        <ele>1669.872</ele>
        <time>2021-06-26T14:57:45Z</time>
      </trkpt>
      <trkpt lat="45.16987" lon="5.58391">
        <ele>1669.87</ele>
        <time>2021-06-26T14:57:50Z</time>
      </trkpt>
      <trkpt lat="45.16986" lon="5.5839">
        <ele>1670.229</ele>
        <time>2021-06-26T14:57:55Z</time>
      </trkpt>
      <trkpt lat="45.16988" lon="5.58387">
        <ele>1669.946</ele>
        <time>2021-06-26T14:58:00Z</time>
      </trkpt>
      <trkpt lat="45.16986" lon="5.58387">
        <ele>1670.015</ele>
        <time>2021-06-26T14:58:05Z</time>
      </trkpt>
      <trkpt lat="45.16986" lon="5.58387">
        <ele>1670.017</ele>
        <time>2021-06-26T14:58:10Z</time>
      </trkpt>
      <trkpt lat="45.16986" lon="5.58387">
        <ele>1670.009</ele>
        <time>2021-06-26T14:58:15Z</time>
      </trkpt>
      <trkpt lat="45.16986" lon="5.58387">
        <ele>1670.013</ele>
        <time>2021-06-26T14:58:20Z</time>
      </trkpt>
      <trkpt lat="45.16986" lon="5.58387">
        <ele>1670.014</ele>
        <time>2021-06-26T14:58:25Z</time>
      </trkpt>
      <trkpt lat="45.16986" lon="5.58387">
        <ele>1670.017</ele>
        <time>2021-06-26T14:58:30Z</time>
      </trkpt>
      <trkpt lat="45.16986" lon="5.58387">
        <ele>1670.021</ele>
        <time>2021-06-26T14:58:35Z</time>
      </trkpt>
      <trkpt lat="45.16986" lon="5.58387">
        <ele>1670.252</ele>
        <time>2021-06-26T14:58:40Z</time>
      </trkpt>
      <trkpt lat="45.16986" lon="5.58387">
        <ele>1670.29</ele>
        <time>2021-06-26T14:58:45Z</time>
      </trkpt>
      <trkpt lat="45.16986" lon="5.58386">
        <ele>1670.535</ele>
        <time>2021-06-26T14:58:50Z</time>
      </trkpt>
      <trkpt lat="45.16986" lon="5.58386">
        <ele>1670.401</ele>
        <time>2021-06-26T14:58:56Z</time>
      </trkpt>
      <trkpt lat="45.16986" lon="5.58386">
        <ele>1670.335</ele>
        <time>2021-06-26T14:59:01Z</time>
      </trkpt>
      <trkpt lat="45.16986" lon="5.58386">
        <ele>1670.359</ele>
        <time>2021-06-26T14:59:06Z</time>
      </trkpt>
      <trkpt lat="45.16987" lon="5.58386">
        <ele>1670.437</ele>
        <time>2021-06-26T14:59:11Z</time>
      </trkpt>
      <trkpt lat="45.16986" lon="5.58386">
        <ele>1670.523</ele>
        <time>2021-06-26T14:59:16Z</time>
      </trkpt>
      <trkpt lat="45.16986" lon="5.58386">
        <ele>1670.526</ele>
        <time>2021-06-26T14:59:21Z</time>
      </trkpt>
      <trkpt lat="45.16986" lon="5.58386">
        <ele>1670.529</ele>
        <time>2021-06-26T14:59:26Z</time>
      </trkpt>
      <trkpt lat="45.16986" lon="5.58386">
        <ele>1670.526</ele>
        <time>2021-06-26T14:59:31Z</time>
      </trkpt>
      <trkpt lat="45.16986" lon="5.58386">
        <ele>1670.526</ele>
        <time>2021-06-26T14:59:36Z</time>
      </trkpt>
      <trkpt lat="45.16988" lon="5.58386">
        <ele>1669.896</ele>
        <time>2021-06-26T14:59:41Z</time>
      </trkpt>
      <trkpt lat="45.16988" lon="5.58386">
        <ele>1669.889</ele>
        <time>2021-06-26T14:59:46Z</time>
      </trkpt>
      <trkpt lat="45.16988" lon="5.58386">
        <ele>1669.887</ele>
        <time>2021-06-26T14:59:51Z</time>
      </trkpt>
      <trkpt lat="45.16988" lon="5.58387">
        <ele>1669.441</ele>
        <time>2021-06-26T14:59:56Z</time>
      </trkpt>
      <trkpt lat="45.16989" lon="5.58389">
        <ele>1669.768</ele>
        <time>2021-06-26T15:00:01Z</time>
      </trkpt>
      <trkpt lat="45.16988" lon="5.58389">
        <ele>1669.605</ele>
        <time>2021-06-26T15:00:06Z</time>
      </trkpt>
      <trkpt lat="45.16987" lon="5.58386">
        <ele>1669.148</ele>
        <time>2021-06-26T15:00:11Z</time>
      </trkpt>
      <trkpt lat="45.16988" lon="5.58384">
        <ele>1669.174</ele>
        <time>2021-06-26T15:00:16Z</time>
      </trkpt>
      <trkpt lat="45.16988" lon="5.58384">
        <ele>1669.117</ele>
        <time>2021-06-26T15:00:21Z</time>
      </trkpt>
      <trkpt lat="45.16988" lon="5.58385">
        <ele>1669.257</ele>
        <time>2021-06-26T15:00:26Z</time>
      </trkpt>
      <trkpt lat="45.16988" lon="5.58385">
        <ele>1669.262</ele>
        <time>2021-06-26T15:00:31Z</time>
      </trkpt>
      <trkpt lat="45.16988" lon="5.58385">
        <ele>1669.268</ele>
        <time>2021-06-26T15:00:36Z</time>
      </trkpt>
      <trkpt lat="45.16988" lon="5.58385">
        <ele>1669.268</ele>
        <time>2021-06-26T15:00:41Z</time>
      </trkpt>
      <trkpt lat="45.16988" lon="5.58385">
        <ele>1669.27</ele>
        <time>2021-06-26T15:00:46Z</time>
      </trkpt>
      <trkpt lat="45.16988" lon="5.58385">
        <ele>1669.272</ele>
        <time>2021-06-26T15:00:51Z</time>
      </trkpt>
      <trkpt lat="45.16988" lon="5.58385">
        <ele>1669.274</ele>
        <time>2021-06-26T15:00:56Z</time>
      </trkpt>
      <trkpt lat="45.16988" lon="5.58385">
        <ele>1669.274</ele>
        <time>2021-06-26T15:01:01Z</time>
      </trkpt>
      <trkpt lat="45.16988" lon="5.58385">
        <ele>1669.106</ele>
        <time>2021-06-26T15:01:06Z</time>
      </trkpt>
      <trkpt lat="45.16987" lon="5.58385">
        <ele>1668.982</ele>
        <time>2021-06-26T15:01:11Z</time>
      </trkpt>
      <trkpt lat="45.16987" lon="5.58385">
        <ele>1668.975</ele>
        <time>2021-06-26T15:01:16Z</time>
      </trkpt>
      <trkpt lat="45.16987" lon="5.58385">
        <ele>1668.973</ele>
        <time>2021-06-26T15:01:21Z</time>
      </trkpt>
      <trkpt lat="45.16987" lon="5.58385">
        <ele>1668.981</ele>
        <time>2021-06-26T15:01:26Z</time>
      </trkpt>
      <trkpt lat="45.16987" lon="5.58385">
        <ele>1668.989</ele>
        <time>2021-06-26T15:01:31Z</time>
      </trkpt>
      <trkpt lat="45.16987" lon="5.58385">
        <ele>1669</ele>
        <time>2021-06-26T15:01:36Z</time>
      </trkpt>
      <trkpt lat="45.16987" lon="5.58385">
        <ele>1668.888</ele>
        <time>2021-06-26T15:01:41Z</time>
      </trkpt>
      <trkpt lat="45.16986" lon="5.58386">
        <ele>1669.369</ele>
        <time>2021-06-26T15:01:46Z</time>
      </trkpt>
      <trkpt lat="45.16983" lon="5.58383">
        <ele>1669.662</ele>
        <time>2021-06-26T15:01:51Z</time>
      </trkpt>
      <trkpt lat="45.16975" lon="5.58376">
        <ele>1670.478</ele>
        <time>2021-06-26T15:01:56Z</time>
      </trkpt>
      <trkpt lat="45.16962" lon="5.58373">
        <ele>1671.716</ele>
        <time>2021-06-26T15:02:01Z</time>
      </trkpt>
      <trkpt lat="45.16944" lon="5.58369">
        <ele>1671.425</ele>
        <time>2021-06-26T15:02:06Z</time>
      </trkpt>
      <trkpt lat="45.16922" lon="5.58361">
        <ele>1669.67</ele>
        <time>2021-06-26T15:02:11Z</time>
      </trkpt>
      <trkpt lat="45.16892" lon="5.58351">
        <ele>1668.013</ele>
        <time>2021-06-26T15:02:16Z</time>
      </trkpt>
      <trkpt lat="45.1686" lon="5.58341">
        <ele>1661.317</ele>
        <time>2021-06-26T15:02:21Z</time>
      </trkpt>
      <trkpt lat="45.16826" lon="5.58333">
        <ele>1661.481</ele>
        <time>2021-06-26T15:02:26Z</time>
      </trkpt>
      <trkpt lat="45.16791" lon="5.5833">
        <ele>1657.257</ele>
        <time>2021-06-26T15:02:31Z</time>
      </trkpt>
      <trkpt lat="45.16751" lon="5.58314">
        <ele>1650.937</ele>
        <time>2021-06-26T15:02:36Z</time>
      </trkpt>
      <trkpt lat="45.16715" lon="5.5831">
        <ele>1653.085</ele>
        <time>2021-06-26T15:02:41Z</time>
      </trkpt>
      <trkpt lat="45.16691" lon="5.58306">
        <ele>1655.811</ele>
        <time>2021-06-26T15:02:46Z</time>
      </trkpt>
      <trkpt lat="45.16676" lon="5.583">
        <ele>1658.211</ele>
        <time>2021-06-26T15:02:51Z</time>
      </trkpt>
      <trkpt lat="45.16665" lon="5.58298">
        <ele>1660.578</ele>
        <time>2021-06-26T15:02:56Z</time>
      </trkpt>
      <trkpt lat="45.16656" lon="5.58294">
        <ele>1662.748</ele>
        <time>2021-06-26T15:03:01Z</time>
      </trkpt>
      <trkpt lat="45.16646" lon="5.58293">
        <ele>1662.265</ele>
        <time>2021-06-26T15:03:06Z</time>
      </trkpt>
      <trkpt lat="45.16637" lon="5.58293">
        <ele>1662.345</ele>
        <time>2021-06-26T15:03:11Z</time>
      </trkpt>
      <trkpt lat="45.16627" lon="5.58291">
        <ele>1663.982</ele>
        <time>2021-06-26T15:03:16Z</time>
      </trkpt>
      <trkpt lat="45.16615" lon="5.58284">
        <ele>1664.219</ele>
        <time>2021-06-26T15:03:21Z</time>
      </trkpt>
      <trkpt lat="45.16602" lon="5.58282">
        <ele>1664.974</ele>
        <time>2021-06-26T15:03:26Z</time>
      </trkpt>
      <trkpt lat="45.16586" lon="5.58277">
        <ele>1664.532</ele>
        <time>2021-06-26T15:03:31Z</time>
      </trkpt>
      <trkpt lat="45.16571" lon="5.58272">
        <ele>1664.745</ele>
        <time>2021-06-26T15:03:36Z</time>
      </trkpt>
      <trkpt lat="45.16554" lon="5.58264">
        <ele>1665.543</ele>
        <time>2021-06-26T15:03:41Z</time>
      </trkpt>
      <trkpt lat="45.16534" lon="5.58256">
        <ele>1664.18</ele>
        <time>2021-06-26T15:03:46Z</time>
      </trkpt>
      <trkpt lat="45.16502" lon="5.58245">
        <ele>1662.281</ele>
        <time>2021-06-26T15:03:52Z</time>
      </trkpt>
      <trkpt lat="45.16474" lon="5.58231">
        <ele>1658.257</ele>
        <time>2021-06-26T15:03:57Z</time>
      </trkpt>
      <trkpt lat="45.16447" lon="5.58212">
        <ele>1659.329</ele>
        <time>2021-06-26T15:04:02Z</time>
      </trkpt>
      <trkpt lat="45.16426" lon="5.58186">
        <ele>1659.431</ele>
        <time>2021-06-26T15:04:07Z</time>
      </trkpt>
      <trkpt lat="45.16407" lon="5.58163">
        <ele>1660.792</ele>
        <time>2021-06-26T15:04:12Z</time>
      </trkpt>
      <trkpt lat="45.16391" lon="5.58145">
        <ele>1659.47</ele>
        <time>2021-06-26T15:04:17Z</time>
      </trkpt>
      <trkpt lat="45.16384" lon="5.58121">
        <ele>1659.653</ele>
        <time>2021-06-26T15:04:22Z</time>
      </trkpt>
      <trkpt lat="45.1638" lon="5.58117">
        <ele>1661.115</ele>
        <time>2021-06-26T15:04:27Z</time>
      </trkpt>
      <trkpt lat="45.16379" lon="5.58113">
        <ele>1661.589</ele>
        <time>2021-06-26T15:04:32Z</time>
      </trkpt>
      <trkpt lat="45.16378" lon="5.58108">
        <ele>1662.38</ele>
        <time>2021-06-26T15:04:37Z</time>
      </trkpt>
      <trkpt lat="45.16372" lon="5.58102">
        <ele>1661.773</ele>
        <time>2021-06-26T15:04:42Z</time>
      </trkpt>
      <trkpt lat="45.16364" lon="5.58097">
        <ele>1664.04</ele>
        <time>2021-06-26T15:04:47Z</time>
      </trkpt>
      <trkpt lat="45.16352" lon="5.58088">
        <ele>1664.84</ele>
        <time>2021-06-26T15:04:52Z</time>
      </trkpt>
      <trkpt lat="45.16339" lon="5.5808">
        <ele>1666.312</ele>
        <time>2021-06-26T15:04:57Z</time>
      </trkpt>
      <trkpt lat="45.16324" lon="5.58076">
        <ele>1666.898</ele>
        <time>2021-06-26T15:05:02Z</time>
      </trkpt>
      <trkpt lat="45.16315" lon="5.58065">
        <ele>1667.23</ele>
        <time>2021-06-26T15:05:07Z</time>
      </trkpt>
      <trkpt lat="45.16316" lon="5.58054">
        <ele>1667.787</ele>
        <time>2021-06-26T15:05:12Z</time>
      </trkpt>
      <trkpt lat="45.16306" lon="5.58055">
        <ele>1665.941</ele>
        <time>2021-06-26T15:05:17Z</time>
      </trkpt>
      <trkpt lat="45.16296" lon="5.58051">
        <ele>1665.213</ele>
        <time>2021-06-26T15:05:22Z</time>
      </trkpt>
      <trkpt lat="45.16287" lon="5.58061">
        <ele>1660.68</ele>
        <time>2021-06-26T15:05:27Z</time>
      </trkpt>
      <trkpt lat="45.16268" lon="5.5806">
        <ele>1657.992</ele>
        <time>2021-06-26T15:05:32Z</time>
      </trkpt>
      <trkpt lat="45.16247" lon="5.58056">
        <ele>1655.769</ele>
        <time>2021-06-26T15:05:37Z</time>
      </trkpt>
      <trkpt lat="45.1623" lon="5.5805">
        <ele>1655.346</ele>
        <time>2021-06-26T15:05:42Z</time>
      </trkpt>
      <trkpt lat="45.16211" lon="5.58046">
        <ele>1659.197</ele>
        <time>2021-06-26T15:05:47Z</time>
      </trkpt>
      <trkpt lat="45.16191" lon="5.58045">
        <ele>1660.707</ele>
        <time>2021-06-26T15:05:52Z</time>
      </trkpt>
      <trkpt lat="45.16176" lon="5.58039">
        <ele>1657.057</ele>
        <time>2021-06-26T15:05:57Z</time>
      </trkpt>
      <trkpt lat="45.16161" lon="5.5803">
        <ele>1661.804</ele>
        <time>2021-06-26T15:06:02Z</time>
      </trkpt>
      <trkpt lat="45.16134" lon="5.58034">
        <ele>1657.578</ele>
        <time>2021-06-26T15:06:07Z</time>
      </trkpt>
      <trkpt lat="45.16101" lon="5.58042">
        <ele>1654.335</ele>
        <time>2021-06-26T15:06:12Z</time>
      </trkpt>
      <trkpt lat="45.16065" lon="5.58032">
        <ele>1651.061</ele>
        <time>2021-06-26T15:06:17Z</time>
      </trkpt>
      <trkpt lat="45.16032" lon="5.58024">
        <ele>1651.66</ele>
        <time>2021-06-26T15:06:22Z</time>
      </trkpt>
      <trkpt lat="45.16001" lon="5.58016">
        <ele>1651.964</ele>
        <time>2021-06-26T15:06:27Z</time>
      </trkpt>
      <trkpt lat="45.15979" lon="5.58004">
        <ele>1651.424</ele>
        <time>2021-06-26T15:06:32Z</time>
      </trkpt>
      <trkpt lat="45.15962" lon="5.57992">
        <ele>1650.296</ele>
        <time>2021-06-26T15:06:37Z</time>
      </trkpt>
      <trkpt lat="45.15946" lon="5.57989">
        <ele>1650.253</ele>
        <time>2021-06-26T15:06:42Z</time>
      </trkpt>
      <trkpt lat="45.1593" lon="5.57979">
        <ele>1650.614</ele>
        <time>2021-06-26T15:06:47Z</time>
      </trkpt>
      <trkpt lat="45.15917" lon="5.57954">
        <ele>1649.145</ele>
        <time>2021-06-26T15:06:52Z</time>
      </trkpt>
      <trkpt lat="45.15894" lon="5.57927">
        <ele>1646.618</ele>
        <time>2021-06-26T15:06:57Z</time>
      </trkpt>
      <trkpt lat="45.15868" lon="5.57911">
        <ele>1642.708</ele>
        <time>2021-06-26T15:07:02Z</time>
      </trkpt>
      <trkpt lat="45.15848" lon="5.57898">
        <ele>1645.742</ele>
        <time>2021-06-26T15:07:07Z</time>
      </trkpt>
      <trkpt lat="45.15825" lon="5.57892">
        <ele>1643.648</ele>
        <time>2021-06-26T15:07:12Z</time>
      </trkpt>
      <trkpt lat="45.15801" lon="5.57879">
        <ele>1642.949</ele>
        <time>2021-06-26T15:07:17Z</time>
      </trkpt>
      <trkpt lat="45.1577" lon="5.57867">
        <ele>1639.365</ele>
        <time>2021-06-26T15:07:22Z</time>
      </trkpt>
      <trkpt lat="45.15731" lon="5.57857">
        <ele>1632.869</ele>
        <time>2021-06-26T15:07:27Z</time>
      </trkpt>
      <trkpt lat="45.15692" lon="5.57858">
        <ele>1630.18</ele>
        <time>2021-06-26T15:07:32Z</time>
      </trkpt>
      <trkpt lat="45.15659" lon="5.57867">
        <ele>1630.198</ele>
        <time>2021-06-26T15:07:37Z</time>
      </trkpt>
      <trkpt lat="45.15635" lon="5.57868">
        <ele>1631.967</ele>
        <time>2021-06-26T15:07:42Z</time>
      </trkpt>
      <trkpt lat="45.15608" lon="5.57865">
        <ele>1626.933</ele>
        <time>2021-06-26T15:07:47Z</time>
      </trkpt>
      <trkpt lat="45.15577" lon="5.57868">
        <ele>1625.274</ele>
        <time>2021-06-26T15:07:52Z</time>
      </trkpt>
      <trkpt lat="45.15556" lon="5.57853">
        <ele>1625.049</ele>
        <time>2021-06-26T15:07:57Z</time>
      </trkpt>
      <trkpt lat="45.15542" lon="5.57833">
        <ele>1626.241</ele>
        <time>2021-06-26T15:08:02Z</time>
      </trkpt>
      <trkpt lat="45.1553" lon="5.57821">
        <ele>1629.48</ele>
        <time>2021-06-26T15:08:07Z</time>
      </trkpt>
      <trkpt lat="45.15516" lon="5.5781">
        <ele>1628.45</ele>
        <time>2021-06-26T15:08:12Z</time>
      </trkpt>
      <trkpt lat="45.15501" lon="5.57799">
        <ele>1631.864</ele>
        <time>2021-06-26T15:08:17Z</time>
      </trkpt>
      <trkpt lat="45.15487" lon="5.57786">
        <ele>1631.352</ele>
        <time>2021-06-26T15:08:22Z</time>
      </trkpt>
      <trkpt lat="45.15475" lon="5.57779">
        <ele>1631.604</ele>
        <time>2021-06-26T15:08:27Z</time>
      </trkpt>
      <trkpt lat="45.1546" lon="5.57777">
        <ele>1630.069</ele>
        <time>2021-06-26T15:08:32Z</time>
      </trkpt>
      <trkpt lat="45.15442" lon="5.5778">
        <ele>1630.184</ele>
        <time>2021-06-26T15:08:37Z</time>
      </trkpt>
      <trkpt lat="45.15422" lon="5.57784">
        <ele>1630.245</ele>
        <time>2021-06-26T15:08:42Z</time>
      </trkpt>
      <trkpt lat="45.15396" lon="5.57789">
        <ele>1628.547</ele>
        <time>2021-06-26T15:08:47Z</time>
      </trkpt>
      <trkpt lat="45.1536" lon="5.57783">
        <ele>1621.625</ele>
        <time>2021-06-26T15:08:52Z</time>
      </trkpt>
      <trkpt lat="45.15319" lon="5.57761">
        <ele>1617.812</ele>
        <time>2021-06-26T15:08:57Z</time>
      </trkpt>
      <trkpt lat="45.15282" lon="5.57753">
        <ele>1611.634</ele>
        <time>2021-06-26T15:09:02Z</time>
      </trkpt>
      <trkpt lat="45.15242" lon="5.57739">
        <ele>1608.183</ele>
        <time>2021-06-26T15:09:07Z</time>
      </trkpt>
      <trkpt lat="45.15201" lon="5.57721">
        <ele>1603.916</ele>
        <time>2021-06-26T15:09:12Z</time>
      </trkpt>
      <trkpt lat="45.15166" lon="5.57701">
        <ele>1601.853</ele>
        <time>2021-06-26T15:09:17Z</time>
      </trkpt>
      <trkpt lat="45.15129" lon="5.57683">
        <ele>1597.925</ele>
        <time>2021-06-26T15:09:22Z</time>
      </trkpt>
      <trkpt lat="45.15092" lon="5.57672">
        <ele>1593.916</ele>
        <time>2021-06-26T15:09:27Z</time>
      </trkpt>
      <trkpt lat="45.15054" lon="5.57681">
        <ele>1589.027</ele>
        <time>2021-06-26T15:09:32Z</time>
      </trkpt>
      <trkpt lat="45.15021" lon="5.5768">
        <ele>1581.636</ele>
        <time>2021-06-26T15:09:37Z</time>
      </trkpt>
      <trkpt lat="45.1498" lon="5.57686">
        <ele>1580.224</ele>
        <time>2021-06-26T15:09:42Z</time>
      </trkpt>
      <trkpt lat="45.14951" lon="5.5767">
        <ele>1579.347</ele>
        <time>2021-06-26T15:09:47Z</time>
      </trkpt>
      <trkpt lat="45.14925" lon="5.57658">
        <ele>1580.666</ele>
        <time>2021-06-26T15:09:52Z</time>
      </trkpt>
      <trkpt lat="45.14896" lon="5.5765">
        <ele>1577.939</ele>
        <time>2021-06-26T15:09:57Z</time>
      </trkpt>
      <trkpt lat="45.14863" lon="5.5763">
        <ele>1576.028</ele>
        <time>2021-06-26T15:10:02Z</time>
      </trkpt>
      <trkpt lat="45.14837" lon="5.57593">
        <ele>1572.052</ele>
        <time>2021-06-26T15:10:07Z</time>
      </trkpt>
      <trkpt lat="45.14801" lon="5.57587">
        <ele>1565.405</ele>
        <time>2021-06-26T15:10:12Z</time>
      </trkpt>
      <trkpt lat="45.14757" lon="5.57573">
        <ele>1561.567</ele>
        <time>2021-06-26T15:10:17Z</time>
      </trkpt>
      <trkpt lat="45.14714" lon="5.57571">
        <ele>1556.524</ele>
        <time>2021-06-26T15:10:22Z</time>
      </trkpt>
      <trkpt lat="45.14672" lon="5.57566">
        <ele>1554.499</ele>
        <time>2021-06-26T15:10:27Z</time>
      </trkpt>
      <trkpt lat="45.1463" lon="5.57565">
        <ele>1548.264</ele>
        <time>2021-06-26T15:10:32Z</time>
      </trkpt>
      <trkpt lat="45.14586" lon="5.57562">
        <ele>1541.849</ele>
        <time>2021-06-26T15:10:37Z</time>
      </trkpt>
      <trkpt lat="45.14552" lon="5.5753">
        <ele>1539.781</ele>
        <time>2021-06-26T15:10:42Z</time>
      </trkpt>
      <trkpt lat="45.14513" lon="5.57528">
        <ele>1533.324</ele>
        <time>2021-06-26T15:10:47Z</time>
      </trkpt>
      <trkpt lat="45.14471" lon="5.57526">
        <ele>1528.229</ele>
        <time>2021-06-26T15:10:52Z</time>
      </trkpt>
      <trkpt lat="45.14431" lon="5.57526">
        <ele>1522.238</ele>
        <time>2021-06-26T15:10:57Z</time>
      </trkpt>
      <trkpt lat="45.14389" lon="5.57547">
        <ele>1521.225</ele>
        <time>2021-06-26T15:11:02Z</time>
      </trkpt>
      <trkpt lat="45.14358" lon="5.5755">
        <ele>1519.035</ele>
        <time>2021-06-26T15:11:07Z</time>
      </trkpt>
      <trkpt lat="45.14343" lon="5.5755">
        <ele>1523.283</ele>
        <time>2021-06-26T15:11:12Z</time>
      </trkpt>
      <trkpt lat="45.14342" lon="5.57551">
        <ele>1527.348</ele>
        <time>2021-06-26T15:11:17Z</time>
      </trkpt>
      <trkpt lat="45.14342" lon="5.57551">
        <ele>1527.91</ele>
        <time>2021-06-26T15:11:22Z</time>
      </trkpt>
      <trkpt lat="45.14343" lon="5.57551">
        <ele>1527.197</ele>
        <time>2021-06-26T15:11:27Z</time>
      </trkpt>
      <trkpt lat="45.14343" lon="5.57551">
        <ele>1527.228</ele>
        <time>2021-06-26T15:11:32Z</time>
      </trkpt>
      <trkpt lat="45.14338" lon="5.57554">
        <ele>1526.465</ele>
        <time>2021-06-26T15:11:37Z</time>
      </trkpt>
      <trkpt lat="45.14331" lon="5.57558">
        <ele>1524.691</ele>
        <time>2021-06-26T15:11:42Z</time>
      </trkpt>
      <trkpt lat="45.1432" lon="5.57559">
        <ele>1522.322</ele>
        <time>2021-06-26T15:11:47Z</time>
      </trkpt>
      <trkpt lat="45.14306" lon="5.57557">
        <ele>1520.311</ele>
        <time>2021-06-26T15:11:52Z</time>
      </trkpt>
      <trkpt lat="45.14287" lon="5.57553">
        <ele>1520.467</ele>
        <time>2021-06-26T15:11:57Z</time>
      </trkpt>
      <trkpt lat="45.14269" lon="5.57547">
        <ele>1520.344</ele>
        <time>2021-06-26T15:12:02Z</time>
      </trkpt>
      <trkpt lat="45.14271" lon="5.57546">
        <ele>1521.892</ele>
        <time>2021-06-26T15:12:07Z</time>
      </trkpt>
      <trkpt lat="45.14267" lon="5.5754">
        <ele>1520.506</ele>
        <time>2021-06-26T15:12:12Z</time>
      </trkpt>
      <trkpt lat="45.14254" lon="5.57525">
        <ele>1518.532</ele>
        <time>2021-06-26T15:12:17Z</time>
      </trkpt>
      <trkpt lat="45.14239" lon="5.57506">
        <ele>1515.041</ele>
        <time>2021-06-26T15:12:22Z</time>
      </trkpt>
      <trkpt lat="45.14221" lon="5.57483">
        <ele>1511.047</ele>
        <time>2021-06-26T15:12:27Z</time>
      </trkpt>
      <trkpt lat="45.14211" lon="5.57476">
        <ele>1509.49</ele>
        <time>2021-06-26T15:12:32Z</time>
      </trkpt>
      <trkpt lat="45.14206" lon="5.57475">
        <ele>1510.86</ele>
        <time>2021-06-26T15:12:37Z</time>
      </trkpt>
      <trkpt lat="45.14185" lon="5.57473">
        <ele>1506.782</ele>
        <time>2021-06-26T15:12:42Z</time>
      </trkpt>
      <trkpt lat="45.14152" lon="5.57481">
        <ele>1502.301</ele>
        <time>2021-06-26T15:12:47Z</time>
      </trkpt>
      <trkpt lat="45.14122" lon="5.57478">
        <ele>1501.98</ele>
        <time>2021-06-26T15:12:52Z</time>
      </trkpt>
      <trkpt lat="45.14106" lon="5.57474">
        <ele>1504.245</ele>
        <time>2021-06-26T15:12:57Z</time>
      </trkpt>
      <trkpt lat="45.14104" lon="5.5746">
        <ele>1502.211</ele>
        <time>2021-06-26T15:13:02Z</time>
      </trkpt>
      <trkpt lat="45.14096" lon="5.57445">
        <ele>1501.053</ele>
        <time>2021-06-26T15:13:07Z</time>
      </trkpt>
      <trkpt lat="45.14078" lon="5.57428">
        <ele>1498.01</ele>
        <time>2021-06-26T15:13:12Z</time>
      </trkpt>
      <trkpt lat="45.14061" lon="5.57416">
        <ele>1494.597</ele>
        <time>2021-06-26T15:13:17Z</time>
      </trkpt>
      <trkpt lat="45.14054" lon="5.57421">
        <ele>1493.381</ele>
        <time>2021-06-26T15:13:22Z</time>
      </trkpt>
      <trkpt lat="45.14031" lon="5.57416">
        <ele>1493.434</ele>
        <time>2021-06-26T15:13:27Z</time>
      </trkpt>
      <trkpt lat="45.14013" lon="5.57387">
        <ele>1489.33</ele>
        <time>2021-06-26T15:13:32Z</time>
      </trkpt>
      <trkpt lat="45.13985" lon="5.57353">
        <ele>1487.574</ele>
        <time>2021-06-26T15:13:37Z</time>
      </trkpt>
      <trkpt lat="45.13958" lon="5.57348">
        <ele>1478.972</ele>
        <time>2021-06-26T15:13:42Z</time>
      </trkpt>
      <trkpt lat="45.13943" lon="5.57352">
        <ele>1475.816</ele>
        <time>2021-06-26T15:13:47Z</time>
      </trkpt>
      <trkpt lat="45.13934" lon="5.57354">
        <ele>1472.275</ele>
        <time>2021-06-26T15:13:52Z</time>
      </trkpt>
      <trkpt lat="45.13929" lon="5.57362">
        <ele>1468.88</ele>
        <time>2021-06-26T15:13:57Z</time>
      </trkpt>
      <trkpt lat="45.13909" lon="5.57368">
        <ele>1464.605</ele>
        <time>2021-06-26T15:14:02Z</time>
      </trkpt>
      <trkpt lat="45.13896" lon="5.57375">
        <ele>1461.933</ele>
        <time>2021-06-26T15:14:07Z</time>
      </trkpt>
      <trkpt lat="45.13877" lon="5.57372">
        <ele>1460.394</ele>
        <time>2021-06-26T15:14:12Z</time>
      </trkpt>
      <trkpt lat="45.13853" lon="5.57361">
        <ele>1455.451</ele>
        <time>2021-06-26T15:14:17Z</time>
      </trkpt>
      <trkpt lat="45.13823" lon="5.57356">
        <ele>1448.79</ele>
        <time>2021-06-26T15:14:22Z</time>
      </trkpt>
      <trkpt lat="45.13801" lon="5.57363">
        <ele>1443.043</ele>
        <time>2021-06-26T15:14:27Z</time>
      </trkpt>
      <trkpt lat="45.13786" lon="5.57376">
        <ele>1442.564</ele>
        <time>2021-06-26T15:14:32Z</time>
      </trkpt>
      <trkpt lat="45.13774" lon="5.57391">
        <ele>1440.713</ele>
        <time>2021-06-26T15:14:37Z</time>
      </trkpt>
      <trkpt lat="45.13758" lon="5.57403">
        <ele>1439.225</ele>
        <time>2021-06-26T15:14:42Z</time>
      </trkpt>
      <trkpt lat="45.13747" lon="5.5741">
        <ele>1438.858</ele>
        <time>2021-06-26T15:14:47Z</time>
      </trkpt>
      <trkpt lat="45.13744" lon="5.5741">
        <ele>1441.061</ele>
        <time>2021-06-26T15:14:52Z</time>
      </trkpt>
      <trkpt lat="45.13745" lon="5.57411">
        <ele>1441.364</ele>
        <time>2021-06-26T15:14:57Z</time>
      </trkpt>
      <trkpt lat="45.13744" lon="5.57412">
        <ele>1441.702</ele>
        <time>2021-06-26T15:15:02Z</time>
      </trkpt>
      <trkpt lat="45.13744" lon="5.57412">
        <ele>1441.701</ele>
        <time>2021-06-26T15:15:06Z</time>
      </trkpt>
      <trkpt lat="45.13744" lon="5.57412">
        <ele>1441.701</ele>
        <time>2021-06-26T15:15:12Z</time>
      </trkpt>
      <trkpt lat="45.13744" lon="5.57412">
        <ele>1441.703</ele>
        <time>2021-06-26T15:15:17Z</time>
      </trkpt>
      <trkpt lat="45.13744" lon="5.57412">
        <ele>1441.694</ele>
        <time>2021-06-26T15:15:22Z</time>
      </trkpt>
      <trkpt lat="45.13744" lon="5.57412">
        <ele>1441.693</ele>
        <time>2021-06-26T15:15:27Z</time>
      </trkpt>
      <trkpt lat="45.13744" lon="5.57412">
        <ele>1441.695</ele>
        <time>2021-06-26T15:15:32Z</time>
      </trkpt>
      <trkpt lat="45.13744" lon="5.57412">
        <ele>1441.697</ele>
        <time>2021-06-26T15:15:37Z</time>
      </trkpt>
      <trkpt lat="45.13744" lon="5.57412">
        <ele>1441.701</ele>
        <time>2021-06-26T15:15:42Z</time>
      </trkpt>
      <trkpt lat="45.13744" lon="5.57412">
        <ele>1441.7</ele>
        <time>2021-06-26T15:15:47Z</time>
      </trkpt>
      <trkpt lat="45.13744" lon="5.57412">
        <ele>1441.703</ele>
        <time>2021-06-26T15:15:52Z</time>
      </trkpt>
      <trkpt lat="45.13744" lon="5.57412">
        <ele>1441.706</ele>
        <time>2021-06-26T15:15:57Z</time>
      </trkpt>
      <trkpt lat="45.13744" lon="5.57412">
        <ele>1441.711</ele>
        <time>2021-06-26T15:16:02Z</time>
      </trkpt>
      <trkpt lat="45.13744" lon="5.57412">
        <ele>1441.718</ele>
        <time>2021-06-26T15:16:07Z</time>
      </trkpt>
      <trkpt lat="45.13744" lon="5.57412">
        <ele>1441.721</ele>
        <time>2021-06-26T15:16:12Z</time>
      </trkpt>
      <trkpt lat="45.13744" lon="5.57412">
        <ele>1441.729</ele>
        <time>2021-06-26T15:16:17Z</time>
      </trkpt>
      <trkpt lat="45.13744" lon="5.57412">
        <ele>1441.738</ele>
        <time>2021-06-26T15:16:22Z</time>
      </trkpt>
      <trkpt lat="45.13744" lon="5.57412">
        <ele>1441.751</ele>
        <time>2021-06-26T15:16:27Z</time>
      </trkpt>
      <trkpt lat="45.13744" lon="5.57412">
        <ele>1441.752</ele>
        <time>2021-06-26T15:16:32Z</time>
      </trkpt>
      <trkpt lat="45.13744" lon="5.57412">
        <ele>1441.745</ele>
        <time>2021-06-26T15:16:37Z</time>
      </trkpt>
      <trkpt lat="45.13744" lon="5.57412">
        <ele>1441.74</ele>
        <time>2021-06-26T15:16:42Z</time>
      </trkpt>
      <trkpt lat="45.13744" lon="5.57412">
        <ele>1441.738</ele>
        <time>2021-06-26T15:16:47Z</time>
      </trkpt>
      <trkpt lat="45.13744" lon="5.57412">
        <ele>1441.751</ele>
        <time>2021-06-26T15:16:52Z</time>
      </trkpt>
      <trkpt lat="45.13744" lon="5.57412">
        <ele>1441.763</ele>
        <time>2021-06-26T15:16:57Z</time>
      </trkpt>
      <trkpt lat="45.13744" lon="5.57412">
        <ele>1441.774</ele>
        <time>2021-06-26T15:17:02Z</time>
      </trkpt>
      <trkpt lat="45.13744" lon="5.57412">
        <ele>1441.782</ele>
        <time>2021-06-26T15:17:07Z</time>
      </trkpt>
      <trkpt lat="45.13744" lon="5.57412">
        <ele>1441.781</ele>
        <time>2021-06-26T15:17:11Z</time>
      </trkpt>
      <trkpt lat="45.13739" lon="5.57411">
        <ele>1440.425</ele>
        <time>2021-06-26T15:17:17Z</time>
      </trkpt>
      <trkpt lat="45.13722" lon="5.57404">
        <ele>1438.453</ele>
        <time>2021-06-26T15:17:22Z</time>
      </trkpt>
      <trkpt lat="45.13694" lon="5.57389">
        <ele>1434.879</ele>
        <time>2021-06-26T15:17:27Z</time>
      </trkpt>
      <trkpt lat="45.13677" lon="5.57386">
        <ele>1437.085</ele>
        <time>2021-06-26T15:17:32Z</time>
      </trkpt>
      <trkpt lat="45.13668" lon="5.57377">
        <ele>1435.648</ele>
        <time>2021-06-26T15:17:37Z</time>
      </trkpt>
      <trkpt lat="45.13666" lon="5.57377">
        <ele>1435.343</ele>
        <time>2021-06-26T15:17:42Z</time>
      </trkpt>
      <trkpt lat="45.13666" lon="5.57378">
        <ele>1435.635</ele>
        <time>2021-06-26T15:17:47Z</time>
      </trkpt>
      <trkpt lat="45.1366" lon="5.57371">
        <ele>1438.689</ele>
        <time>2021-06-26T15:17:52Z</time>
      </trkpt>
      <trkpt lat="45.13639" lon="5.57354">
        <ele>1434.227</ele>
        <time>2021-06-26T15:17:57Z</time>
      </trkpt>
      <trkpt lat="45.13613" lon="5.57343">
        <ele>1435.139</ele>
        <time>2021-06-26T15:18:02Z</time>
      </trkpt>
      <trkpt lat="45.13597" lon="5.57335">
        <ele>1434.998</ele>
        <time>2021-06-26T15:18:07Z</time>
      </trkpt>
      <trkpt lat="45.13581" lon="5.57331">
        <ele>1434.002</ele>
        <time>2021-06-26T15:18:12Z</time>
      </trkpt>
      <trkpt lat="45.13556" lon="5.57324">
        <ele>1432.719</ele>
        <time>2021-06-26T15:18:17Z</time>
      </trkpt>
      <trkpt lat="45.13523" lon="5.57308">
        <ele>1429.26</ele>
        <time>2021-06-26T15:18:22Z</time>
      </trkpt>
      <trkpt lat="45.13484" lon="5.57292">
        <ele>1424.968</ele>
        <time>2021-06-26T15:18:27Z</time>
      </trkpt>
      <trkpt lat="45.13454" lon="5.57281">
        <ele>1423.446</ele>
        <time>2021-06-26T15:18:32Z</time>
      </trkpt>
      <trkpt lat="45.13422" lon="5.57264">
        <ele>1421.944</ele>
        <time>2021-06-26T15:18:37Z</time>
      </trkpt>
      <trkpt lat="45.13381" lon="5.57232">
        <ele>1419.168</ele>
        <time>2021-06-26T15:18:42Z</time>
      </trkpt>
      <trkpt lat="45.13345" lon="5.57207">
        <ele>1415.366</ele>
        <time>2021-06-26T15:18:47Z</time>
      </trkpt>
      <trkpt lat="45.13311" lon="5.57176">
        <ele>1408.887</ele>
        <time>2021-06-26T15:18:52Z</time>
      </trkpt>
      <trkpt lat="45.13279" lon="5.57146">
        <ele>1410.979</ele>
        <time>2021-06-26T15:18:57Z</time>
      </trkpt>
      <trkpt lat="45.13251" lon="5.57142">
        <ele>1408.026</ele>
        <time>2021-06-26T15:19:02Z</time>
      </trkpt>
      <trkpt lat="45.13234" lon="5.57132">
        <ele>1406.502</ele>
        <time>2021-06-26T15:19:07Z</time>
      </trkpt>
      <trkpt lat="45.13216" lon="5.57125">
        <ele>1407.079</ele>
        <time>2021-06-26T15:19:12Z</time>
      </trkpt>
      <trkpt lat="45.13198" lon="5.57132">
        <ele>1407.07</ele>
        <time>2021-06-26T15:19:17Z</time>
      </trkpt>
      <trkpt lat="45.1318" lon="5.57125">
        <ele>1401.545</ele>
        <time>2021-06-26T15:19:22Z</time>
      </trkpt>
      <trkpt lat="45.13159" lon="5.57115">
        <ele>1399.835</ele>
        <time>2021-06-26T15:19:27Z</time>
      </trkpt>
      <trkpt lat="45.13138" lon="5.571">
        <ele>1395.102</ele>
        <time>2021-06-26T15:19:32Z</time>
      </trkpt>
      <trkpt lat="45.13116" lon="5.57095">
        <ele>1394.235</ele>
        <time>2021-06-26T15:19:37Z</time>
      </trkpt>
      <trkpt lat="45.131" lon="5.57086">
        <ele>1391.779</ele>
        <time>2021-06-26T15:19:42Z</time>
      </trkpt>
      <trkpt lat="45.13077" lon="5.57084">
        <ele>1388.871</ele>
        <time>2021-06-26T15:19:47Z</time>
      </trkpt>
      <trkpt lat="45.1306" lon="5.57074">
        <ele>1386.144</ele>
        <time>2021-06-26T15:19:52Z</time>
      </trkpt>
      <trkpt lat="45.13037" lon="5.5708">
        <ele>1382.248</ele>
        <time>2021-06-26T15:19:57Z</time>
      </trkpt>
      <trkpt lat="45.13024" lon="5.57089">
        <ele>1378.497</ele>
        <time>2021-06-26T15:20:02Z</time>
      </trkpt>
      <trkpt lat="45.13014" lon="5.5709">
        <ele>1374.285</ele>
        <time>2021-06-26T15:20:07Z</time>
      </trkpt>
      <trkpt lat="45.13001" lon="5.57083">
        <ele>1371.003</ele>
        <time>2021-06-26T15:20:12Z</time>
      </trkpt>
      <trkpt lat="45.12987" lon="5.57073">
        <ele>1365.808</ele>
        <time>2021-06-26T15:20:17Z</time>
      </trkpt>
      <trkpt lat="45.12965" lon="5.57079">
        <ele>1358.428</ele>
        <time>2021-06-26T15:20:22Z</time>
      </trkpt>
      <trkpt lat="45.1294" lon="5.57062">
        <ele>1354.543</ele>
        <time>2021-06-26T15:20:27Z</time>
      </trkpt>
      <trkpt lat="45.12923" lon="5.5705">
        <ele>1350.306</ele>
        <time>2021-06-26T15:20:32Z</time>
      </trkpt>
      <trkpt lat="45.1291" lon="5.5704">
        <ele>1350.266</ele>
        <time>2021-06-26T15:20:37Z</time>
      </trkpt>
      <trkpt lat="45.12908" lon="5.57039">
        <ele>1352.174</ele>
        <time>2021-06-26T15:20:42Z</time>
      </trkpt>
      <trkpt lat="45.12907" lon="5.57039">
        <ele>1353.793</ele>
        <time>2021-06-26T15:20:47Z</time>
      </trkpt>
      <trkpt lat="45.12907" lon="5.57039">
        <ele>1354.011</ele>
        <time>2021-06-26T15:20:52Z</time>
      </trkpt>
      <trkpt lat="45.12907" lon="5.57039">
        <ele>1354.065</ele>
        <time>2021-06-26T15:20:57Z</time>
      </trkpt>
      <trkpt lat="45.12907" lon="5.57039">
        <ele>1353.976</ele>
        <time>2021-06-26T15:21:02Z</time>
      </trkpt>
      <trkpt lat="45.12901" lon="5.57033">
        <ele>1351.874</ele>
        <time>2021-06-26T15:21:07Z</time>
      </trkpt>
      <trkpt lat="45.12889" lon="5.57033">
        <ele>1347.806</ele>
        <time>2021-06-26T15:21:12Z</time>
      </trkpt>
      <trkpt lat="45.12876" lon="5.57036">
        <ele>1344.747</ele>
        <time>2021-06-26T15:21:17Z</time>
      </trkpt>
      <trkpt lat="45.12862" lon="5.57032">
        <ele>1341.442</ele>
        <time>2021-06-26T15:21:22Z</time>
      </trkpt>
      <trkpt lat="45.12832" lon="5.57021">
        <ele>1335.687</ele>
        <time>2021-06-26T15:21:27Z</time>
      </trkpt>
      <trkpt lat="45.12814" lon="5.57006">
        <ele>1330.773</ele>
        <time>2021-06-26T15:21:32Z</time>
      </trkpt>
      <trkpt lat="45.12792" lon="5.56988">
        <ele>1328.374</ele>
        <time>2021-06-26T15:21:37Z</time>
      </trkpt>
      <trkpt lat="45.12772" lon="5.56979">
        <ele>1328.543</ele>
        <time>2021-06-26T15:21:42Z</time>
      </trkpt>
      <trkpt lat="45.12758" lon="5.56972">
        <ele>1330.401</ele>
        <time>2021-06-26T15:21:47Z</time>
      </trkpt>
      <trkpt lat="45.12749" lon="5.56953">
        <ele>1328.546</ele>
        <time>2021-06-26T15:21:52Z</time>
      </trkpt>
      <trkpt lat="45.12726" lon="5.5695">
        <ele>1326.265</ele>
        <time>2021-06-26T15:21:57Z</time>
      </trkpt>
      <trkpt lat="45.12713" lon="5.56941">
        <ele>1322.942</ele>
        <time>2021-06-26T15:22:02Z</time>
      </trkpt>
      <trkpt lat="45.12713" lon="5.56932">
        <ele>1321.883</ele>
        <time>2021-06-26T15:22:07Z</time>
      </trkpt>
      <trkpt lat="45.12714" lon="5.56929">
        <ele>1322.191</ele>
        <time>2021-06-26T15:22:12Z</time>
      </trkpt>
      <trkpt lat="45.12716" lon="5.56921">
        <ele>1323.652</ele>
        <time>2021-06-26T15:22:17Z</time>
      </trkpt>
      <trkpt lat="45.12724" lon="5.56898">
        <ele>1320.973</ele>
        <time>2021-06-26T15:22:22Z</time>
      </trkpt>
      <trkpt lat="45.12733" lon="5.56868">
        <ele>1316.288</ele>
        <time>2021-06-26T15:22:27Z</time>
      </trkpt>
      <trkpt lat="45.12731" lon="5.5686">
        <ele>1310.426</ele>
        <time>2021-06-26T15:22:32Z</time>
      </trkpt>
      <trkpt lat="45.12723" lon="5.56856">
        <ele>1307.635</ele>
        <time>2021-06-26T15:22:37Z</time>
      </trkpt>
      <trkpt lat="45.12729" lon="5.56837">
        <ele>1306.412</ele>
        <time>2021-06-26T15:22:42Z</time>
      </trkpt>
      <trkpt lat="45.12729" lon="5.56816">
        <ele>1301.535</ele>
        <time>2021-06-26T15:22:47Z</time>
      </trkpt>
      <trkpt lat="45.12697" lon="5.56808">
        <ele>1296.806</ele>
        <time>2021-06-26T15:22:52Z</time>
      </trkpt>
      <trkpt lat="45.12662" lon="5.56796">
        <ele>1295.158</ele>
        <time>2021-06-26T15:22:57Z</time>
      </trkpt>
      <trkpt lat="45.12636" lon="5.56786">
        <ele>1290.409</ele>
        <time>2021-06-26T15:23:02Z</time>
      </trkpt>
      <trkpt lat="45.12614" lon="5.56768">
        <ele>1284.666</ele>
        <time>2021-06-26T15:23:07Z</time>
      </trkpt>
      <trkpt lat="45.12581" lon="5.5678">
        <ele>1282.456</ele>
        <time>2021-06-26T15:23:12Z</time>
      </trkpt>
      <trkpt lat="45.12546" lon="5.56789">
        <ele>1277.366</ele>
        <time>2021-06-26T15:23:17Z</time>
      </trkpt>
      <trkpt lat="45.1252" lon="5.56797">
        <ele>1269.872</ele>
        <time>2021-06-26T15:23:22Z</time>
      </trkpt>
      <trkpt lat="45.12504" lon="5.56786">
        <ele>1268.558</ele>
        <time>2021-06-26T15:23:27Z</time>
      </trkpt>
      <trkpt lat="45.12476" lon="5.56775">
        <ele>1265.541</ele>
        <time>2021-06-26T15:23:32Z</time>
      </trkpt>
      <trkpt lat="45.12452" lon="5.56771">
        <ele>1262.531</ele>
        <time>2021-06-26T15:23:37Z</time>
      </trkpt>
      <trkpt lat="45.12433" lon="5.56779">
        <ele>1259.28</ele>
        <time>2021-06-26T15:23:42Z</time>
      </trkpt>
      <trkpt lat="45.12413" lon="5.56789">
        <ele>1258.391</ele>
        <time>2021-06-26T15:23:47Z</time>
      </trkpt>
      <trkpt lat="45.12397" lon="5.56797">
        <ele>1259.091</ele>
        <time>2021-06-26T15:23:52Z</time>
      </trkpt>
      <trkpt lat="45.12386" lon="5.56812">
        <ele>1256.135</ele>
        <time>2021-06-26T15:23:57Z</time>
      </trkpt>
      <trkpt lat="45.12382" lon="5.56825">
        <ele>1256.397</ele>
        <time>2021-06-26T15:24:02Z</time>
      </trkpt>
      <trkpt lat="45.12375" lon="5.56832">
        <ele>1256.459</ele>
        <time>2021-06-26T15:24:07Z</time>
      </trkpt>
      <trkpt lat="45.12361" lon="5.56832">
        <ele>1255.506</ele>
        <time>2021-06-26T15:24:12Z</time>
      </trkpt>
      <trkpt lat="45.12342" lon="5.56834">
        <ele>1249.022</ele>
        <time>2021-06-26T15:24:17Z</time>
      </trkpt>
      <trkpt lat="45.12325" lon="5.56832">
        <ele>1247.053</ele>
        <time>2021-06-26T15:24:22Z</time>
      </trkpt>
      <trkpt lat="45.12302" lon="5.56825">
        <ele>1242.004</ele>
        <time>2021-06-26T15:24:27Z</time>
      </trkpt>
      <trkpt lat="45.12285" lon="5.56818">
        <ele>1238.532</ele>
        <time>2021-06-26T15:24:32Z</time>
      </trkpt>
      <trkpt lat="45.12277" lon="5.56845">
        <ele>1235.5</ele>
        <time>2021-06-26T15:24:37Z</time>
      </trkpt>
      <trkpt lat="45.12254" lon="5.56846">
        <ele>1229.277</ele>
        <time>2021-06-26T15:24:42Z</time>
      </trkpt>
      <trkpt lat="45.12236" lon="5.56848">
        <ele>1224.297</ele>
        <time>2021-06-26T15:24:47Z</time>
      </trkpt>
      <trkpt lat="45.12213" lon="5.56845">
        <ele>1219.247</ele>
        <time>2021-06-26T15:24:52Z</time>
      </trkpt>
      <trkpt lat="45.12194" lon="5.5684">
        <ele>1214.66</ele>
        <time>2021-06-26T15:24:57Z</time>
      </trkpt>
      <trkpt lat="45.12184" lon="5.56851">
        <ele>1210.062</ele>
        <time>2021-06-26T15:25:02Z</time>
      </trkpt>
      <trkpt lat="45.1217" lon="5.5685">
        <ele>1204.734</ele>
        <time>2021-06-26T15:25:07Z</time>
      </trkpt>
      <trkpt lat="45.12158" lon="5.56858">
        <ele>1202.902</ele>
        <time>2021-06-26T15:25:12Z</time>
      </trkpt>
      <trkpt lat="45.12149" lon="5.56867">
        <ele>1199.632</ele>
        <time>2021-06-26T15:25:17Z</time>
      </trkpt>
      <trkpt lat="45.12145" lon="5.56865">
        <ele>1199.677</ele>
        <time>2021-06-26T15:25:22Z</time>
      </trkpt>
      <trkpt lat="45.12144" lon="5.56865">
        <ele>1200.553</ele>
        <time>2021-06-26T15:25:27Z</time>
      </trkpt>
      <trkpt lat="45.12144" lon="5.56865">
        <ele>1201.168</ele>
        <time>2021-06-26T15:25:32Z</time>
      </trkpt>
      <trkpt lat="45.12144" lon="5.56866">
        <ele>1201.488</ele>
        <time>2021-06-26T15:25:37Z</time>
      </trkpt>
      <trkpt lat="45.12144" lon="5.56866">
        <ele>1201.51</ele>
        <time>2021-06-26T15:25:42Z</time>
      </trkpt>
      <trkpt lat="45.12144" lon="5.56866">
        <ele>1201.538</ele>
        <time>2021-06-26T15:25:47Z</time>
      </trkpt>
      <trkpt lat="45.12144" lon="5.56866">
        <ele>1201.656</ele>
        <time>2021-06-26T15:25:52Z</time>
      </trkpt>
      <trkpt lat="45.12142" lon="5.56864">
        <ele>1199.949</ele>
        <time>2021-06-26T15:25:57Z</time>
      </trkpt>
      <trkpt lat="45.1213" lon="5.56863">
        <ele>1194.754</ele>
        <time>2021-06-26T15:26:02Z</time>
      </trkpt>
      <trkpt lat="45.1212" lon="5.56866">
        <ele>1190.783</ele>
        <time>2021-06-26T15:26:07Z</time>
      </trkpt>
      <trkpt lat="45.12111" lon="5.56868">
        <ele>1187.161</ele>
        <time>2021-06-26T15:26:12Z</time>
      </trkpt>
      <trkpt lat="45.12085" lon="5.56859">
        <ele>1184.176</ele>
        <time>2021-06-26T15:26:17Z</time>
      </trkpt>
      <trkpt lat="45.12069" lon="5.56845">
        <ele>1184.379</ele>
        <time>2021-06-26T15:26:22Z</time>
      </trkpt>
      <trkpt lat="45.1205" lon="5.56836">
        <ele>1183.446</ele>
        <time>2021-06-26T15:26:27Z</time>
      </trkpt>
      <trkpt lat="45.12025" lon="5.56831">
        <ele>1180.82</ele>
        <time>2021-06-26T15:26:32Z</time>
      </trkpt>
      <trkpt lat="45.11999" lon="5.56832">
        <ele>1173.366</ele>
        <time>2021-06-26T15:26:37Z</time>
      </trkpt>
      <trkpt lat="45.11988" lon="5.56826">
        <ele>1173.082</ele>
        <time>2021-06-26T15:26:42Z</time>
      </trkpt>
      <trkpt lat="45.11985" lon="5.56808">
        <ele>1172.821</ele>
        <time>2021-06-26T15:26:47Z</time>
      </trkpt>
      <trkpt lat="45.11979" lon="5.5681">
        <ele>1171.281</ele>
        <time>2021-06-26T15:26:52Z</time>
      </trkpt>
      <trkpt lat="45.11972" lon="5.56834">
        <ele>1167.282</ele>
        <time>2021-06-26T15:26:57Z</time>
      </trkpt>
      <trkpt lat="45.11964" lon="5.56838">
        <ele>1163.494</ele>
        <time>2021-06-26T15:27:02Z</time>
      </trkpt>
      <trkpt lat="45.11954" lon="5.56838">
        <ele>1160.434</ele>
        <time>2021-06-26T15:27:07Z</time>
      </trkpt>
      <trkpt lat="45.11945" lon="5.56848">
        <ele>1157.807</ele>
        <time>2021-06-26T15:27:12Z</time>
      </trkpt>
      <trkpt lat="45.11937" lon="5.56848">
        <ele>1153.307</ele>
        <time>2021-06-26T15:27:17Z</time>
      </trkpt>
      <trkpt lat="45.11932" lon="5.56844">
        <ele>1149.873</ele>
        <time>2021-06-26T15:27:22Z</time>
      </trkpt>
      <trkpt lat="45.11924" lon="5.56843">
        <ele>1146.798</ele>
        <time>2021-06-26T15:27:27Z</time>
      </trkpt>
      <trkpt lat="45.11912" lon="5.56847">
        <ele>1145.56</ele>
        <time>2021-06-26T15:27:32Z</time>
      </trkpt>
      <trkpt lat="45.11905" lon="5.56847">
        <ele>1144.742</ele>
        <time>2021-06-26T15:27:37Z</time>
      </trkpt>
      <trkpt lat="45.11887" lon="5.56853">
        <ele>1142.095</ele>
        <time>2021-06-26T15:27:42Z</time>
      </trkpt>
      <trkpt lat="45.11877" lon="5.56846">
        <ele>1140.824</ele>
        <time>2021-06-26T15:27:47Z</time>
      </trkpt>
      <trkpt lat="45.11876" lon="5.56848">
        <ele>1140.909</ele>
        <time>2021-06-26T15:27:52Z</time>
      </trkpt>
      <trkpt lat="45.11875" lon="5.56848">
        <ele>1140.582</ele>
        <time>2021-06-26T15:27:57Z</time>
      </trkpt>
      <trkpt lat="45.11875" lon="5.56848">
        <ele>1140.535</ele>
        <time>2021-06-26T15:28:02Z</time>
      </trkpt>
      <trkpt lat="45.11875" lon="5.56848">
        <ele>1140.559</ele>
        <time>2021-06-26T15:28:07Z</time>
      </trkpt>
      <trkpt lat="45.11875" lon="5.56848">
        <ele>1140.586</ele>
        <time>2021-06-26T15:28:12Z</time>
      </trkpt>
      <trkpt lat="45.11875" lon="5.56848">
        <ele>1140.599</ele>
        <time>2021-06-26T15:28:17Z</time>
      </trkpt>
      <trkpt lat="45.11875" lon="5.56848">
        <ele>1140.596</ele>
        <time>2021-06-26T15:28:22Z</time>
      </trkpt>
      <trkpt lat="45.11875" lon="5.56848">
        <ele>1140.594</ele>
        <time>2021-06-26T15:28:27Z</time>
      </trkpt>
      <trkpt lat="45.11875" lon="5.56848">
        <ele>1140.589</ele>
        <time>2021-06-26T15:28:32Z</time>
      </trkpt>
      <trkpt lat="45.11875" lon="5.56848">
        <ele>1140.583</ele>
        <time>2021-06-26T15:28:37Z</time>
      </trkpt>
      <trkpt lat="45.11875" lon="5.56848">
        <ele>1140.581</ele>
        <time>2021-06-26T15:28:42Z</time>
      </trkpt>
      <trkpt lat="45.11875" lon="5.56848">
        <ele>1140.577</ele>
        <time>2021-06-26T15:28:47Z</time>
      </trkpt>
      <trkpt lat="45.11875" lon="5.56848">
        <ele>1140.572</ele>
        <time>2021-06-26T15:28:52Z</time>
      </trkpt>
      <trkpt lat="45.11875" lon="5.56848">
        <ele>1140.572</ele>
        <time>2021-06-26T15:28:57Z</time>
      </trkpt>
      <trkpt lat="45.11875" lon="5.56848">
        <ele>1140.567</ele>
        <time>2021-06-26T15:29:02Z</time>
      </trkpt>
      <trkpt lat="45.11875" lon="5.56848">
        <ele>1140.632</ele>
        <time>2021-06-26T15:29:07Z</time>
      </trkpt>
      <trkpt lat="45.11877" lon="5.56846">
        <ele>1138.856</ele>
        <time>2021-06-26T15:29:12Z</time>
      </trkpt>
      <trkpt lat="45.11881" lon="5.56844">
        <ele>1141.312</ele>
        <time>2021-06-26T15:29:17Z</time>
      </trkpt>
      <trkpt lat="45.11885" lon="5.56841">
        <ele>1141.194</ele>
        <time>2021-06-26T15:29:22Z</time>
      </trkpt>
      <trkpt lat="45.11891" lon="5.56834">
        <ele>1141.729</ele>
        <time>2021-06-26T15:29:27Z</time>
      </trkpt>
      <trkpt lat="45.11894" lon="5.56826">
        <ele>1142.666</ele>
        <time>2021-06-26T15:29:32Z</time>
      </trkpt>
      <trkpt lat="45.11897" lon="5.56816">
        <ele>1142.155</ele>
        <time>2021-06-26T15:29:37Z</time>
      </trkpt>
      <trkpt lat="45.119" lon="5.56802">
        <ele>1143.935</ele>
        <time>2021-06-26T15:29:42Z</time>
      </trkpt>
      <trkpt lat="45.11902" lon="5.56791">
        <ele>1141.775</ele>
        <time>2021-06-26T15:29:47Z</time>
      </trkpt>
      <trkpt lat="45.11905" lon="5.56778">
        <ele>1143.941</ele>
        <time>2021-06-26T15:29:52Z</time>
      </trkpt>
      <trkpt lat="45.11909" lon="5.56766">
        <ele>1144.461</ele>
        <time>2021-06-26T15:29:57Z</time>
      </trkpt>
      <trkpt lat="45.11912" lon="5.56755">
        <ele>1143.958</ele>
        <time>2021-06-26T15:30:02Z</time>
      </trkpt>
      <trkpt lat="45.11917" lon="5.56746">
        <ele>1143.848</ele>
        <time>2021-06-26T15:30:07Z</time>
      </trkpt>
      <trkpt lat="45.1192" lon="5.56736">
        <ele>1145.039</ele>
        <time>2021-06-26T15:30:12Z</time>
      </trkpt>
      <trkpt lat="45.11925" lon="5.56723">
        <ele>1146.406</ele>
        <time>2021-06-26T15:30:17Z</time>
      </trkpt>
      <trkpt lat="45.11929" lon="5.56712">
        <ele>1147.307</ele>
        <time>2021-06-26T15:30:22Z</time>
      </trkpt>
      <trkpt lat="45.11934" lon="5.56703">
        <ele>1146.125</ele>
        <time>2021-06-26T15:30:27Z</time>
      </trkpt>
      <trkpt lat="45.1194" lon="5.56693">
        <ele>1146.657</ele>
        <time>2021-06-26T15:30:32Z</time>
      </trkpt>
      <trkpt lat="45.11945" lon="5.56682">
        <ele>1148.22</ele>
        <time>2021-06-26T15:30:37Z</time>
      </trkpt>
      <trkpt lat="45.11952" lon="5.56669">
        <ele>1149.628</ele>
        <time>2021-06-26T15:30:42Z</time>
      </trkpt>
      <trkpt lat="45.11958" lon="5.56659">
        <ele>1151.209</ele>
        <time>2021-06-26T15:30:47Z</time>
      </trkpt>
      <trkpt lat="45.11964" lon="5.56651">
        <ele>1150.794</ele>
        <time>2021-06-26T15:30:52Z</time>
      </trkpt>
      <trkpt lat="45.11972" lon="5.56639">
        <ele>1153.064</ele>
        <time>2021-06-26T15:30:57Z</time>
      </trkpt>
      <trkpt lat="45.11978" lon="5.56627">
        <ele>1154.031</ele>
        <time>2021-06-26T15:31:02Z</time>
      </trkpt>
      <trkpt lat="45.11984" lon="5.56618">
        <ele>1154.788</ele>
        <time>2021-06-26T15:31:07Z</time>
      </trkpt>
      <trkpt lat="45.1199" lon="5.5661">
        <ele>1154.222</ele>
        <time>2021-06-26T15:31:12Z</time>
      </trkpt>
      <trkpt lat="45.11998" lon="5.56601">
        <ele>1154.75</ele>
        <time>2021-06-26T15:31:17Z</time>
      </trkpt>
      <trkpt lat="45.12006" lon="5.56594">
        <ele>1154.345</ele>
        <time>2021-06-26T15:31:22Z</time>
      </trkpt>
      <trkpt lat="45.12016" lon="5.5659">
        <ele>1154.06</ele>
        <time>2021-06-26T15:31:27Z</time>
      </trkpt>
      <trkpt lat="45.12026" lon="5.56587">
        <ele>1155.547</ele>
        <time>2021-06-26T15:31:32Z</time>
      </trkpt>
      <trkpt lat="45.12034" lon="5.56587">
        <ele>1158.373</ele>
        <time>2021-06-26T15:31:37Z</time>
      </trkpt>
      <trkpt lat="45.12044" lon="5.56589">
        <ele>1162.118</ele>
        <time>2021-06-26T15:31:42Z</time>
      </trkpt>
      <trkpt lat="45.12053" lon="5.5659">
        <ele>1164.458</ele>
        <time>2021-06-26T15:31:47Z</time>
      </trkpt>
      <trkpt lat="45.12062" lon="5.56585">
        <ele>1164.369</ele>
        <time>2021-06-26T15:31:52Z</time>
      </trkpt>
      <trkpt lat="45.12065" lon="5.56574">
        <ele>1160.399</ele>
        <time>2021-06-26T15:31:57Z</time>
      </trkpt>
      <trkpt lat="45.12064" lon="5.56562">
        <ele>1160.78</ele>
        <time>2021-06-26T15:32:02Z</time>
      </trkpt>
      <trkpt lat="45.12059" lon="5.56554">
        <ele>1163.685</ele>
        <time>2021-06-26T15:32:07Z</time>
      </trkpt>
      <trkpt lat="45.12052" lon="5.56548">
        <ele>1163.891</ele>
        <time>2021-06-26T15:32:12Z</time>
      </trkpt>
      <trkpt lat="45.12044" lon="5.56542">
        <ele>1167.178</ele>
        <time>2021-06-26T15:32:17Z</time>
      </trkpt>
      <trkpt lat="45.12034" lon="5.56529">
        <ele>1172.225</ele>
        <time>2021-06-26T15:32:22Z</time>
      </trkpt>
      <trkpt lat="45.1203" lon="5.56517">
        <ele>1174.594</ele>
        <time>2021-06-26T15:32:27Z</time>
      </trkpt>
      <trkpt lat="45.12026" lon="5.56507">
        <ele>1174.483</ele>
        <time>2021-06-26T15:32:32Z</time>
      </trkpt>
      <trkpt lat="45.12021" lon="5.565">
        <ele>1174.542</ele>
        <time>2021-06-26T15:32:37Z</time>
      </trkpt>
      <trkpt lat="45.12015" lon="5.56493">
        <ele>1174.493</ele>
        <time>2021-06-26T15:32:42Z</time>
      </trkpt>
      <trkpt lat="45.12008" lon="5.56488">
        <ele>1175.723</ele>
        <time>2021-06-26T15:32:47Z</time>
      </trkpt>
      <trkpt lat="45.12" lon="5.56483">
        <ele>1174.07</ele>
        <time>2021-06-26T15:32:52Z</time>
      </trkpt>
      <trkpt lat="45.11994" lon="5.56475">
        <ele>1172.496</ele>
        <time>2021-06-26T15:32:57Z</time>
      </trkpt>
      <trkpt lat="45.11987" lon="5.56468">
        <ele>1175.564</ele>
        <time>2021-06-26T15:33:02Z</time>
      </trkpt>
      <trkpt lat="45.1198" lon="5.56461">
        <ele>1179.192</ele>
        <time>2021-06-26T15:33:07Z</time>
      </trkpt>
      <trkpt lat="45.11974" lon="5.56445">
        <ele>1180.191</ele>
        <time>2021-06-26T15:33:12Z</time>
      </trkpt>
      <trkpt lat="45.11972" lon="5.56428">
        <ele>1181.493</ele>
        <time>2021-06-26T15:33:18Z</time>
      </trkpt>
      <trkpt lat="45.11976" lon="5.56414">
        <ele>1181.469</ele>
        <time>2021-06-26T15:33:23Z</time>
      </trkpt>
      <trkpt lat="45.11981" lon="5.564">
        <ele>1182.462</ele>
        <time>2021-06-26T15:33:28Z</time>
      </trkpt>
      <trkpt lat="45.11987" lon="5.56389">
        <ele>1183.602</ele>
        <time>2021-06-26T15:33:33Z</time>
      </trkpt>
      <trkpt lat="45.11996" lon="5.56383">
        <ele>1184.154</ele>
        <time>2021-06-26T15:33:38Z</time>
      </trkpt>
      <trkpt lat="45.12006" lon="5.56384">
        <ele>1179.637</ele>
        <time>2021-06-26T15:33:43Z</time>
      </trkpt>
      <trkpt lat="45.12014" lon="5.56383">
        <ele>1179.152</ele>
        <time>2021-06-26T15:33:48Z</time>
      </trkpt>
      <trkpt lat="45.12021" lon="5.56377">
        <ele>1179.394</ele>
        <time>2021-06-26T15:33:53Z</time>
      </trkpt>
      <trkpt lat="45.12032" lon="5.56373">
        <ele>1176.779</ele>
        <time>2021-06-26T15:33:58Z</time>
      </trkpt>
      <trkpt lat="45.12045" lon="5.56371">
        <ele>1176.945</ele>
        <time>2021-06-26T15:34:03Z</time>
      </trkpt>
      <trkpt lat="45.12056" lon="5.56366">
        <ele>1174.498</ele>
        <time>2021-06-26T15:34:08Z</time>
      </trkpt>
      <trkpt lat="45.12063" lon="5.56362">
        <ele>1170.906</ele>
        <time>2021-06-26T15:34:13Z</time>
      </trkpt>
      <trkpt lat="45.1207" lon="5.56362">
        <ele>1177.4</ele>
      </trkpt>
      <trkpt lat="45.12099" lon="5.56351">
        <ele>1177.3</ele>
        <time>2021-06-26T15:34:23Z</time>
      </trkpt>
      <trkpt lat="45.12121" lon="5.56337">
        <ele>1177.6</ele>
        <time>2021-06-26T15:34:28Z</time>
      </trkpt>
      <trkpt lat="45.12139" lon="5.5632">
        <ele>1178</ele>
      </trkpt>
      <trkpt lat="45.12152" lon="5.56297">
        <ele>1178.2</ele>
        <time>2021-06-26T15:34:38Z</time>
      </trkpt>
      <trkpt lat="45.12136" lon="5.56261">
        <ele>1176.1</ele>
      </trkpt>
      <trkpt lat="45.12127" lon="5.56223">
        <ele>1159.819</ele>
        <time>2021-06-26T15:34:53Z</time>
      </trkpt>
      <trkpt lat="45.12128" lon="5.56204">
        <ele>1172.9</ele>
      </trkpt>
      <trkpt lat="45.1218" lon="5.56154">
        <ele>1174.6</ele>
      </trkpt>
      <trkpt lat="45.12239" lon="5.56113">
        <ele>1183.4</ele>
      </trkpt>
      <trkpt lat="45.12273" lon="5.56098">
        <ele>1186.3</ele>
      </trkpt>
      <trkpt lat="45.12302" lon="5.56095">
        <ele>1188.1</ele>
      </trkpt>
      <trkpt lat="45.12345" lon="5.56109">
        <ele>1191.3</ele>
      </trkpt>
      <trkpt lat="45.12382" lon="5.56137">
        <ele>1192.6</ele>
      </trkpt>
      <trkpt lat="45.12399" lon="5.56138">
        <ele>1192.3</ele>
      </trkpt>
      <trkpt lat="45.12403" lon="5.5612">
        <ele>1192</ele>
      </trkpt>
      <trkpt lat="45.1242" lon="5.56112">
        <ele>1192.2</ele>
      </trkpt>
      <trkpt lat="45.12435" lon="5.56087">
        <ele>1193.3</ele>
      </trkpt>
      <trkpt lat="45.12398" lon="5.56026">
        <ele>1196.8</ele>
      </trkpt>
      <trkpt lat="45.12377" lon="5.55999">
        <ele>1198.6</ele>
      </trkpt>
      <trkpt lat="45.12362" lon="5.55964">
        <ele>1201.5</ele>
      </trkpt>
      <trkpt lat="45.12372" lon="5.55887">
        <ele>1208.9</ele>
      </trkpt>
      <trkpt lat="45.12395" lon="5.55808">
        <ele>1216.4</ele>
      </trkpt>
      <trkpt lat="45.12424" lon="5.55774">
        <ele>1211.188</ele>
        <time>2021-06-26T15:38:24Z</time>
      </trkpt>
      <trkpt lat="45.12433" lon="5.5577">
        <ele>1212.74</ele>
        <time>2021-06-26T15:38:29Z</time>
      </trkpt>
      <trkpt lat="45.1244" lon="5.55762">
        <ele>1211.711</ele>
        <time>2021-06-26T15:38:34Z</time>
      </trkpt>
      <trkpt lat="45.12448" lon="5.5575">
        <ele>1214.901</ele>
        <time>2021-06-26T15:38:39Z</time>
      </trkpt>
      <trkpt lat="45.1245" lon="5.55737">
        <ele>1214.797</ele>
        <time>2021-06-26T15:38:44Z</time>
      </trkpt>
      <trkpt lat="45.12444" lon="5.55721">
        <ele>1215.288</ele>
        <time>2021-06-26T15:38:49Z</time>
      </trkpt>
      <trkpt lat="45.12436" lon="5.55714">
        <ele>1215.805</ele>
        <time>2021-06-26T15:38:54Z</time>
      </trkpt>
      <trkpt lat="45.12429" lon="5.55711">
        <ele>1216.938</ele>
        <time>2021-06-26T15:38:59Z</time>
      </trkpt>
      <trkpt lat="45.1242" lon="5.55707">
        <ele>1216.945</ele>
        <time>2021-06-26T15:39:04Z</time>
      </trkpt>
      <trkpt lat="45.1241" lon="5.55705">
        <ele>1217.155</ele>
        <time>2021-06-26T15:39:09Z</time>
      </trkpt>
      <trkpt lat="45.124" lon="5.55704">
        <ele>1218.567</ele>
        <time>2021-06-26T15:39:14Z</time>
      </trkpt>
      <trkpt lat="45.12389" lon="5.55695">
        <ele>1222.747</ele>
        <time>2021-06-26T15:39:19Z</time>
      </trkpt>
      <trkpt lat="45.1238" lon="5.55686">
        <ele>1223.833</ele>
        <time>2021-06-26T15:39:24Z</time>
      </trkpt>
      <trkpt lat="45.12375" lon="5.55675">
        <ele>1224.56</ele>
        <time>2021-06-26T15:39:29Z</time>
      </trkpt>
      <trkpt lat="45.12373" lon="5.55664">
        <ele>1220.529</ele>
        <time>2021-06-26T15:39:34Z</time>
      </trkpt>
      <trkpt lat="45.12375" lon="5.5565">
        <ele>1217.023</ele>
        <time>2021-06-26T15:39:39Z</time>
      </trkpt>
      <trkpt lat="45.12373" lon="5.55628">
        <ele>1218.041</ele>
        <time>2021-06-26T15:39:44Z</time>
      </trkpt>
      <trkpt lat="45.12373" lon="5.55612">
        <ele>1215.5</ele>
        <time>2021-06-26T15:39:49Z</time>
      </trkpt>
      <trkpt lat="45.12373" lon="5.55587">
        <ele>1220.009</ele>
        <time>2021-06-26T15:39:54Z</time>
      </trkpt>
      <trkpt lat="45.12373" lon="5.55562">
        <ele>1225.531</ele>
        <time>2021-06-26T15:39:59Z</time>
      </trkpt>
      <trkpt lat="45.12374" lon="5.5554">
        <ele>1228.606</ele>
        <time>2021-06-26T15:40:04Z</time>
      </trkpt>
      <trkpt lat="45.12375" lon="5.55521">
        <ele>1230.25</ele>
        <time>2021-06-26T15:40:09Z</time>
      </trkpt>
      <trkpt lat="45.12377" lon="5.55507">
        <ele>1231.295</ele>
        <time>2021-06-26T15:40:14Z</time>
      </trkpt>
      <trkpt lat="45.12379" lon="5.55498">
        <ele>1231.043</ele>
        <time>2021-06-26T15:40:19Z</time>
      </trkpt>
      <trkpt lat="45.12382" lon="5.55486">
        <ele>1230.616</ele>
        <time>2021-06-26T15:40:24Z</time>
      </trkpt>
      <trkpt lat="45.12386" lon="5.55472">
        <ele>1230.533</ele>
        <time>2021-06-26T15:40:29Z</time>
      </trkpt>
      <trkpt lat="45.1239" lon="5.55451">
        <ele>1233.315</ele>
        <time>2021-06-26T15:40:34Z</time>
      </trkpt>
      <trkpt lat="45.12396" lon="5.5544">
        <ele>1233.466</ele>
        <time>2021-06-26T15:40:39Z</time>
      </trkpt>
      <trkpt lat="45.12403" lon="5.5542">
        <ele>1236.692</ele>
        <time>2021-06-26T15:40:44Z</time>
      </trkpt>
      <trkpt lat="45.12411" lon="5.55403">
        <ele>1239.531</ele>
        <time>2021-06-26T15:40:49Z</time>
      </trkpt>
      <trkpt lat="45.12418" lon="5.55382">
        <ele>1242.5</ele>
        <time>2021-06-26T15:40:54Z</time>
      </trkpt>
      <trkpt lat="45.12426" lon="5.55364">
        <ele>1241.634</ele>
        <time>2021-06-26T15:40:59Z</time>
      </trkpt>
      <trkpt lat="45.12432" lon="5.55348">
        <ele>1239.056</ele>
        <time>2021-06-26T15:41:04Z</time>
      </trkpt>
      <trkpt lat="45.12443" lon="5.55331">
        <ele>1239.691</ele>
        <time>2021-06-26T15:41:09Z</time>
      </trkpt>
      <trkpt lat="45.12455" lon="5.55313">
        <ele>1240.878</ele>
        <time>2021-06-26T15:41:14Z</time>
      </trkpt>
      <trkpt lat="45.12465" lon="5.55296">
        <ele>1242.267</ele>
        <time>2021-06-26T15:41:19Z</time>
      </trkpt>
      <trkpt lat="45.12471" lon="5.55282">
        <ele>1244.392</ele>
        <time>2021-06-26T15:41:24Z</time>
      </trkpt>
      <trkpt lat="45.12477" lon="5.55268">
        <ele>1241.207</ele>
        <time>2021-06-26T15:41:29Z</time>
      </trkpt>
      <trkpt lat="45.12481" lon="5.55254">
        <ele>1237.573</ele>
        <time>2021-06-26T15:41:34Z</time>
      </trkpt>
      <trkpt lat="45.12484" lon="5.55242">
        <ele>1228.147</ele>
        <time>2021-06-26T15:41:39Z</time>
      </trkpt>
      <trkpt lat="45.12486" lon="5.55229">
        <ele>1223.657</ele>
        <time>2021-06-26T15:41:44Z</time>
      </trkpt>
      <trkpt lat="45.12487" lon="5.55206">
        <ele>1227.229</ele>
        <time>2021-06-26T15:41:49Z</time>
      </trkpt>
      <trkpt lat="45.12484" lon="5.55173">
        <ele>1233.116</ele>
        <time>2021-06-26T15:41:54Z</time>
      </trkpt>
      <trkpt lat="45.12479" lon="5.55138">
        <ele>1232.307</ele>
        <time>2021-06-26T15:41:59Z</time>
      </trkpt>
      <trkpt lat="45.12475" lon="5.55102">
        <ele>1230.978</ele>
        <time>2021-06-26T15:42:04Z</time>
      </trkpt>
      <trkpt lat="45.12472" lon="5.55065">
        <ele>1245.12</ele>
        <time>2021-06-26T15:42:09Z</time>
      </trkpt>
      <trkpt lat="45.12471" lon="5.55048">
        <ele>1249.079</ele>
        <time>2021-06-26T15:42:14Z</time>
      </trkpt>
      <trkpt lat="45.12466" lon="5.55027">
        <ele>1248.095</ele>
        <time>2021-06-26T15:42:19Z</time>
      </trkpt>
      <trkpt lat="45.12456" lon="5.55007">
        <ele>1248.453</ele>
        <time>2021-06-26T15:42:24Z</time>
      </trkpt>
      <trkpt lat="45.12439" lon="5.54995">
        <ele>1246.035</ele>
        <time>2021-06-26T15:42:29Z</time>
      </trkpt>
      <trkpt lat="45.12419" lon="5.54985">
        <ele>1245.91</ele>
        <time>2021-06-26T15:42:34Z</time>
      </trkpt>
      <trkpt lat="45.124" lon="5.54975">
        <ele>1246.457</ele>
        <time>2021-06-26T15:42:39Z</time>
      </trkpt>
      <trkpt lat="45.12379" lon="5.54966">
        <ele>1246.629</ele>
        <time>2021-06-26T15:42:44Z</time>
      </trkpt>
      <trkpt lat="45.12357" lon="5.54958">
        <ele>1246.487</ele>
        <time>2021-06-26T15:42:49Z</time>
      </trkpt>
      <trkpt lat="45.12334" lon="5.54946">
        <ele>1248.209</ele>
        <time>2021-06-26T15:42:54Z</time>
      </trkpt>
      <trkpt lat="45.12314" lon="5.54936">
        <ele>1248.169</ele>
        <time>2021-06-26T15:42:59Z</time>
      </trkpt>
      <trkpt lat="45.1229" lon="5.54924">
        <ele>1248.108</ele>
        <time>2021-06-26T15:43:04Z</time>
      </trkpt>
      <trkpt lat="45.12267" lon="5.54916">
        <ele>1249.978</ele>
        <time>2021-06-26T15:43:09Z</time>
      </trkpt>
      <trkpt lat="45.12245" lon="5.54908">
        <ele>1249.497</ele>
        <time>2021-06-26T15:43:14Z</time>
      </trkpt>
      <trkpt lat="45.12226" lon="5.54897">
        <ele>1248.517</ele>
        <time>2021-06-26T15:43:19Z</time>
      </trkpt>
      <trkpt lat="45.12206" lon="5.54888">
        <ele>1249.373</ele>
        <time>2021-06-26T15:43:24Z</time>
      </trkpt>
      <trkpt lat="45.12188" lon="5.54878">
        <ele>1250.8</ele>
        <time>2021-06-26T15:43:29Z</time>
      </trkpt>
      <trkpt lat="45.12172" lon="5.54867">
        <ele>1250.767</ele>
        <time>2021-06-26T15:43:34Z</time>
      </trkpt>
      <trkpt lat="45.12156" lon="5.54859">
        <ele>1251.17</ele>
        <time>2021-06-26T15:43:39Z</time>
      </trkpt>
      <trkpt lat="45.12138" lon="5.54851">
        <ele>1250.576</ele>
        <time>2021-06-26T15:43:44Z</time>
      </trkpt>
      <trkpt lat="45.1212" lon="5.54848">
        <ele>1249.495</ele>
        <time>2021-06-26T15:43:49Z</time>
      </trkpt>
      <trkpt lat="45.12101" lon="5.54845">
        <ele>1250.994</ele>
        <time>2021-06-26T15:43:54Z</time>
      </trkpt>
      <trkpt lat="45.12081" lon="5.54843">
        <ele>1252.515</ele>
        <time>2021-06-26T15:43:59Z</time>
      </trkpt>
      <trkpt lat="45.12062" lon="5.54842">
        <ele>1251.887</ele>
        <time>2021-06-26T15:44:04Z</time>
      </trkpt>
      <trkpt lat="45.12043" lon="5.54848">
        <ele>1251.417</ele>
        <time>2021-06-26T15:44:09Z</time>
      </trkpt>
      <trkpt lat="45.12024" lon="5.54862">
        <ele>1252.237</ele>
        <time>2021-06-26T15:44:14Z</time>
      </trkpt>
      <trkpt lat="45.12004" lon="5.54878">
        <ele>1251.513</ele>
        <time>2021-06-26T15:44:19Z</time>
      </trkpt>
      <trkpt lat="45.11983" lon="5.54882">
        <ele>1252.203</ele>
        <time>2021-06-26T15:44:24Z</time>
      </trkpt>
      <trkpt lat="45.11964" lon="5.54869">
        <ele>1254.166</ele>
        <time>2021-06-26T15:44:29Z</time>
      </trkpt>
      <trkpt lat="45.11957" lon="5.54844">
        <ele>1254.858</ele>
        <time>2021-06-26T15:44:34Z</time>
      </trkpt>
      <trkpt lat="45.11957" lon="5.54825">
        <ele>1255.596</ele>
        <time>2021-06-26T15:44:39Z</time>
      </trkpt>
      <trkpt lat="45.11954" lon="5.54804">
        <ele>1258.626</ele>
        <time>2021-06-26T15:44:44Z</time>
      </trkpt>
      <trkpt lat="45.11944" lon="5.54785">
        <ele>1258.076</ele>
        <time>2021-06-26T15:44:49Z</time>
      </trkpt>
      <trkpt lat="45.11929" lon="5.54778">
        <ele>1258.494</ele>
        <time>2021-06-26T15:44:54Z</time>
      </trkpt>
      <trkpt lat="45.11911" lon="5.54778">
        <ele>1257.405</ele>
        <time>2021-06-26T15:44:59Z</time>
      </trkpt>
      <trkpt lat="45.11896" lon="5.54782">
        <ele>1258.908</ele>
        <time>2021-06-26T15:45:04Z</time>
      </trkpt>
      <trkpt lat="45.11881" lon="5.54786">
        <ele>1261.8</ele>
        <time>2021-06-26T15:45:09Z</time>
      </trkpt>
      <trkpt lat="45.11869" lon="5.54793">
        <ele>1262.345</ele>
        <time>2021-06-26T15:45:14Z</time>
      </trkpt>
      <trkpt lat="45.11858" lon="5.54796">
        <ele>1257.571</ele>
        <time>2021-06-26T15:45:19Z</time>
      </trkpt>
      <trkpt lat="45.11842" lon="5.54799">
        <ele>1256.83</ele>
        <time>2021-06-26T15:45:24Z</time>
      </trkpt>
      <trkpt lat="45.11821" lon="5.54808">
        <ele>1257.908</ele>
        <time>2021-06-26T15:45:29Z</time>
      </trkpt>
      <trkpt lat="45.118" lon="5.54815">
        <ele>1260.725</ele>
        <time>2021-06-26T15:45:34Z</time>
      </trkpt>
      <trkpt lat="45.1178" lon="5.54818">
        <ele>1263.231</ele>
        <time>2021-06-26T15:45:39Z</time>
      </trkpt>
      <trkpt lat="45.1176" lon="5.54822">
        <ele>1265.199</ele>
        <time>2021-06-26T15:45:44Z</time>
      </trkpt>
      <trkpt lat="45.1174" lon="5.54825">
        <ele>1265.518</ele>
        <time>2021-06-26T15:45:49Z</time>
      </trkpt>
      <trkpt lat="45.11719" lon="5.54834">
        <ele>1266.389</ele>
        <time>2021-06-26T15:45:54Z</time>
      </trkpt>
      <trkpt lat="45.11699" lon="5.54842">
        <ele>1266.209</ele>
        <time>2021-06-26T15:45:59Z</time>
      </trkpt>
      <trkpt lat="45.11679" lon="5.5485">
        <ele>1264.269</ele>
        <time>2021-06-26T15:46:04Z</time>
      </trkpt>
      <trkpt lat="45.11657" lon="5.54863">
        <ele>1266.712</ele>
        <time>2021-06-26T15:46:09Z</time>
      </trkpt>
      <trkpt lat="45.11635" lon="5.54869">
        <ele>1266.755</ele>
        <time>2021-06-26T15:46:14Z</time>
      </trkpt>
      <trkpt lat="45.11613" lon="5.54879">
        <ele>1267.734</ele>
        <time>2021-06-26T15:46:19Z</time>
      </trkpt>
      <trkpt lat="45.11593" lon="5.54878">
        <ele>1267.793</ele>
        <time>2021-06-26T15:46:24Z</time>
      </trkpt>
      <trkpt lat="45.11573" lon="5.54869">
        <ele>1268.84</ele>
        <time>2021-06-26T15:46:29Z</time>
      </trkpt>
      <trkpt lat="45.11565" lon="5.54858">
        <ele>1269.017</ele>
        <time>2021-06-26T15:46:34Z</time>
      </trkpt>
      <trkpt lat="45.11559" lon="5.54839">
        <ele>1270.264</ele>
        <time>2021-06-26T15:46:39Z</time>
      </trkpt>
      <trkpt lat="45.11551" lon="5.54836">
        <ele>1272.102</ele>
        <time>2021-06-26T15:46:44Z</time>
      </trkpt>
      <trkpt lat="45.11545" lon="5.54828">
        <ele>1273.656</ele>
        <time>2021-06-26T15:46:49Z</time>
      </trkpt>
      <trkpt lat="45.1154" lon="5.54819">
        <ele>1275.041</ele>
        <time>2021-06-26T15:46:54Z</time>
      </trkpt>
      <trkpt lat="45.11531" lon="5.54814">
        <ele>1274.172</ele>
        <time>2021-06-26T15:46:59Z</time>
      </trkpt>
      <trkpt lat="45.11524" lon="5.54812">
        <ele>1275.684</ele>
        <time>2021-06-26T15:47:04Z</time>
      </trkpt>
      <trkpt lat="45.11516" lon="5.54811">
        <ele>1274.804</ele>
        <time>2021-06-26T15:47:09Z</time>
      </trkpt>
      <trkpt lat="45.11508" lon="5.54811">
        <ele>1270.871</ele>
        <time>2021-06-26T15:47:14Z</time>
      </trkpt>
      <trkpt lat="45.115" lon="5.54808">
        <ele>1268.631</ele>
        <time>2021-06-26T15:47:19Z</time>
      </trkpt>
      <trkpt lat="45.11491" lon="5.548">
        <ele>1273.359</ele>
        <time>2021-06-26T15:47:24Z</time>
      </trkpt>
      <trkpt lat="45.11479" lon="5.54791">
        <ele>1275.97</ele>
        <time>2021-06-26T15:47:29Z</time>
      </trkpt>
      <trkpt lat="45.11469" lon="5.54785">
        <ele>1277.452</ele>
        <time>2021-06-26T15:47:34Z</time>
      </trkpt>
      <trkpt lat="45.11457" lon="5.54787">
        <ele>1275.323</ele>
        <time>2021-06-26T15:47:39Z</time>
      </trkpt>
      <trkpt lat="45.11442" lon="5.54792">
        <ele>1275.76</ele>
        <time>2021-06-26T15:47:44Z</time>
      </trkpt>
      <trkpt lat="45.11428" lon="5.54785">
        <ele>1277.258</ele>
        <time>2021-06-26T15:47:49Z</time>
      </trkpt>
      <trkpt lat="45.11418" lon="5.54777">
        <ele>1276.497</ele>
        <time>2021-06-26T15:47:54Z</time>
      </trkpt>
      <trkpt lat="45.11407" lon="5.54779">
        <ele>1274.651</ele>
        <time>2021-06-26T15:47:59Z</time>
      </trkpt>
      <trkpt lat="45.11393" lon="5.54772">
        <ele>1275.688</ele>
        <time>2021-06-26T15:48:04Z</time>
      </trkpt>
      <trkpt lat="45.11379" lon="5.54763">
        <ele>1275.838</ele>
        <time>2021-06-26T15:48:09Z</time>
      </trkpt>
      <trkpt lat="45.11364" lon="5.54757">
        <ele>1275.303</ele>
        <time>2021-06-26T15:48:14Z</time>
      </trkpt>
      <trkpt lat="45.11348" lon="5.54752">
        <ele>1276.093</ele>
        <time>2021-06-26T15:48:19Z</time>
      </trkpt>
      <trkpt lat="45.11332" lon="5.5476">
        <ele>1275.292</ele>
        <time>2021-06-26T15:48:24Z</time>
      </trkpt>
      <trkpt lat="45.11315" lon="5.54762">
        <ele>1275.4</ele>
        <time>2021-06-26T15:48:29Z</time>
      </trkpt>
      <trkpt lat="45.11302" lon="5.54756">
        <ele>1269.204</ele>
        <time>2021-06-26T15:48:34Z</time>
      </trkpt>
      <trkpt lat="45.11285" lon="5.54747">
        <ele>1262.955</ele>
        <time>2021-06-26T15:48:39Z</time>
      </trkpt>
      <trkpt lat="45.11236" lon="5.54746">
        <ele>1260.121</ele>
        <time>2021-06-26T15:48:44Z</time>
      </trkpt>
      <trkpt lat="45.11225" lon="5.54762">
        <ele>1264.269</ele>
        <time>2021-06-26T15:48:49Z</time>
      </trkpt>
      <trkpt lat="45.11209" lon="5.54767">
        <ele>1265.64</ele>
        <time>2021-06-26T15:48:54Z</time>
      </trkpt>
      <trkpt lat="45.11198" lon="5.54768">
        <ele>1264.804</ele>
        <time>2021-06-26T15:48:59Z</time>
      </trkpt>
      <trkpt lat="45.1118" lon="5.54764">
        <ele>1264.449</ele>
        <time>2021-06-26T15:49:04Z</time>
      </trkpt>
      <trkpt lat="45.11158" lon="5.54762">
        <ele>1266.97</ele>
        <time>2021-06-26T15:49:09Z</time>
      </trkpt>
      <trkpt lat="45.1114" lon="5.54746">
        <ele>1265.487</ele>
        <time>2021-06-26T15:49:14Z</time>
      </trkpt>
      <trkpt lat="45.11118" lon="5.54737">
        <ele>1259</ele>
        <time>2021-06-26T15:49:19Z</time>
      </trkpt>
      <trkpt lat="45.11108" lon="5.54744">
        <ele>1261.155</ele>
        <time>2021-06-26T15:49:24Z</time>
      </trkpt>
      <trkpt lat="45.11097" lon="5.54742">
        <ele>1261.721</ele>
        <time>2021-06-26T15:49:29Z</time>
      </trkpt>
      <trkpt lat="45.11077" lon="5.54749">
        <ele>1259.324</ele>
        <time>2021-06-26T15:49:34Z</time>
      </trkpt>
      <trkpt lat="45.11059" lon="5.54748">
        <ele>1258.957</ele>
        <time>2021-06-26T15:49:39Z</time>
      </trkpt>
      <trkpt lat="45.11043" lon="5.54745">
        <ele>1258.144</ele>
        <time>2021-06-26T15:49:44Z</time>
      </trkpt>
      <trkpt lat="45.11024" lon="5.54748">
        <ele>1259.043</ele>
        <time>2021-06-26T15:49:49Z</time>
      </trkpt>
      <trkpt lat="45.11012" lon="5.54752">
        <ele>1258.1</ele>
        <time>2021-06-26T15:49:54Z</time>
      </trkpt>
      <trkpt lat="45.10994" lon="5.54748">
        <ele>1255.579</ele>
        <time>2021-06-26T15:49:59Z</time>
      </trkpt>
      <trkpt lat="45.10977" lon="5.54745">
        <ele>1253.354</ele>
        <time>2021-06-26T15:50:04Z</time>
      </trkpt>
      <trkpt lat="45.10962" lon="5.54744">
        <ele>1252.096</ele>
        <time>2021-06-26T15:50:09Z</time>
      </trkpt>
      <trkpt lat="45.10939" lon="5.54729">
        <ele>1250.187</ele>
        <time>2021-06-26T15:50:14Z</time>
      </trkpt>
      <trkpt lat="45.10917" lon="5.54732">
        <ele>1250.767</ele>
        <time>2021-06-26T15:50:19Z</time>
      </trkpt>
      <trkpt lat="45.10906" lon="5.5474">
        <ele>1256.193</ele>
        <time>2021-06-26T15:50:24Z</time>
      </trkpt>
      <trkpt lat="45.109" lon="5.54736">
        <ele>1243.733</ele>
        <time>2021-06-26T15:50:29Z</time>
      </trkpt>
      <trkpt lat="45.10888" lon="5.54733">
        <ele>1246.723</ele>
        <time>2021-06-26T15:50:34Z</time>
      </trkpt>
      <trkpt lat="45.10874" lon="5.5474">
        <ele>1248.693</ele>
        <time>2021-06-26T15:50:39Z</time>
      </trkpt>
      <trkpt lat="45.10856" lon="5.54735">
        <ele>1248.851</ele>
        <time>2021-06-26T15:50:44Z</time>
      </trkpt>
      <trkpt lat="45.10839" lon="5.54723">
        <ele>1246.764</ele>
        <time>2021-06-26T15:50:49Z</time>
      </trkpt>
      <trkpt lat="45.1083" lon="5.54718">
        <ele>1244.39</ele>
        <time>2021-06-26T15:50:54Z</time>
      </trkpt>
      <trkpt lat="45.10808" lon="5.54725">
        <ele>1242.912</ele>
        <time>2021-06-26T15:50:59Z</time>
      </trkpt>
      <trkpt lat="45.10795" lon="5.54722">
        <ele>1242.635</ele>
        <time>2021-06-26T15:51:04Z</time>
      </trkpt>
      <trkpt lat="45.10783" lon="5.54709">
        <ele>1237.605</ele>
        <time>2021-06-26T15:51:09Z</time>
      </trkpt>
      <trkpt lat="45.10771" lon="5.54698">
        <ele>1232.181</ele>
        <time>2021-06-26T15:51:14Z</time>
      </trkpt>
      <trkpt lat="45.10756" lon="5.54693">
        <ele>1227.38</ele>
        <time>2021-06-26T15:51:19Z</time>
      </trkpt>
      <trkpt lat="45.10744" lon="5.5469">
        <ele>1228.898</ele>
        <time>2021-06-26T15:51:24Z</time>
      </trkpt>
      <trkpt lat="45.10729" lon="5.54679">
        <ele>1226.69</ele>
        <time>2021-06-26T15:51:29Z</time>
      </trkpt>
      <trkpt lat="45.10716" lon="5.54653">
        <ele>1221.254</ele>
        <time>2021-06-26T15:51:34Z</time>
      </trkpt>
      <trkpt lat="45.10701" lon="5.5465">
        <ele>1223.848</ele>
        <time>2021-06-26T15:51:39Z</time>
      </trkpt>
      <trkpt lat="45.10689" lon="5.54642">
        <ele>1223.424</ele>
        <time>2021-06-26T15:51:44Z</time>
      </trkpt>
      <trkpt lat="45.10678" lon="5.54636">
        <ele>1224.073</ele>
        <time>2021-06-26T15:51:49Z</time>
      </trkpt>
      <trkpt lat="45.10669" lon="5.54626">
        <ele>1223.322</ele>
        <time>2021-06-26T15:51:54Z</time>
      </trkpt>
      <trkpt lat="45.10657" lon="5.54614">
        <ele>1220.021</ele>
        <time>2021-06-26T15:51:59Z</time>
      </trkpt>
      <trkpt lat="45.10647" lon="5.54606">
        <ele>1219.726</ele>
        <time>2021-06-26T15:52:04Z</time>
      </trkpt>
      <trkpt lat="45.10643" lon="5.54596">
        <ele>1222.962</ele>
        <time>2021-06-26T15:52:09Z</time>
      </trkpt>
      <trkpt lat="45.10641" lon="5.54585">
        <ele>1224.525</ele>
        <time>2021-06-26T15:52:14Z</time>
      </trkpt>
      <trkpt lat="45.10635" lon="5.54574">
        <ele>1222.353</ele>
        <time>2021-06-26T15:52:19Z</time>
      </trkpt>
      <trkpt lat="45.10629" lon="5.54566">
        <ele>1223.036</ele>
        <time>2021-06-26T15:52:24Z</time>
      </trkpt>
      <trkpt lat="45.10628" lon="5.54555">
        <ele>1221.921</ele>
        <time>2021-06-26T15:52:29Z</time>
      </trkpt>
      <trkpt lat="45.10625" lon="5.54544">
        <ele>1224.473</ele>
        <time>2021-06-26T15:52:34Z</time>
      </trkpt>
      <trkpt lat="45.10618" lon="5.54535">
        <ele>1224.803</ele>
        <time>2021-06-26T15:52:39Z</time>
      </trkpt>
      <trkpt lat="45.10611" lon="5.54525">
        <ele>1224.726</ele>
        <time>2021-06-26T15:52:44Z</time>
      </trkpt>
      <trkpt lat="45.10606" lon="5.54512">
        <ele>1224.203</ele>
        <time>2021-06-26T15:52:49Z</time>
      </trkpt>
      <trkpt lat="45.10606" lon="5.545">
        <ele>1225.466</ele>
        <time>2021-06-26T15:52:54Z</time>
      </trkpt>
      <trkpt lat="45.10607" lon="5.54483">
        <ele>1225.865</ele>
        <time>2021-06-26T15:52:59Z</time>
      </trkpt>
      <trkpt lat="45.10599" lon="5.54475">
        <ele>1226.831</ele>
        <time>2021-06-26T15:53:04Z</time>
      </trkpt>
      <trkpt lat="45.10591" lon="5.54468">
        <ele>1227.107</ele>
        <time>2021-06-26T15:53:09Z</time>
      </trkpt>
      <trkpt lat="45.10588" lon="5.54453">
        <ele>1227.759</ele>
        <time>2021-06-26T15:53:14Z</time>
      </trkpt>
      <trkpt lat="45.10582" lon="5.5444">
        <ele>1229.64</ele>
        <time>2021-06-26T15:53:19Z</time>
      </trkpt>
      <trkpt lat="45.10575" lon="5.5443">
        <ele>1229.035</ele>
        <time>2021-06-26T15:53:24Z</time>
      </trkpt>
      <trkpt lat="45.10573" lon="5.54417">
        <ele>1229.895</ele>
        <time>2021-06-26T15:53:29Z</time>
      </trkpt>
      <trkpt lat="45.10567" lon="5.54407">
        <ele>1232.468</ele>
        <time>2021-06-26T15:53:34Z</time>
      </trkpt>
      <trkpt lat="45.10564" lon="5.54393">
        <ele>1231.9</ele>
        <time>2021-06-26T15:53:39Z</time>
      </trkpt>
      <trkpt lat="45.10556" lon="5.54383">
        <ele>1230.32</ele>
        <time>2021-06-26T15:53:44Z</time>
      </trkpt>
      <trkpt lat="45.10549" lon="5.54371">
        <ele>1227.435</ele>
        <time>2021-06-26T15:53:49Z</time>
      </trkpt>
      <trkpt lat="45.10538" lon="5.54363">
        <ele>1229.421</ele>
        <time>2021-06-26T15:53:54Z</time>
      </trkpt>
      <trkpt lat="45.10525" lon="5.54364">
        <ele>1228.524</ele>
        <time>2021-06-26T15:53:59Z</time>
      </trkpt>
      <trkpt lat="45.10512" lon="5.54357">
        <ele>1231.217</ele>
        <time>2021-06-26T15:54:04Z</time>
      </trkpt>
      <trkpt lat="45.10502" lon="5.54353">
        <ele>1229.539</ele>
        <time>2021-06-26T15:54:09Z</time>
      </trkpt>
      <trkpt lat="45.1049" lon="5.54349">
        <ele>1230.009</ele>
        <time>2021-06-26T15:54:14Z</time>
      </trkpt>
      <trkpt lat="45.10481" lon="5.54341">
        <ele>1230.854</ele>
        <time>2021-06-26T15:54:19Z</time>
      </trkpt>
      <trkpt lat="45.10473" lon="5.54336">
        <ele>1232.821</ele>
        <time>2021-06-26T15:54:24Z</time>
      </trkpt>
      <trkpt lat="45.10462" lon="5.54332">
        <ele>1233.171</ele>
        <time>2021-06-26T15:54:29Z</time>
      </trkpt>
      <trkpt lat="45.10452" lon="5.54328">
        <ele>1235.062</ele>
        <time>2021-06-26T15:54:34Z</time>
      </trkpt>
      <trkpt lat="45.10445" lon="5.5432">
        <ele>1236.552</ele>
        <time>2021-06-26T15:54:39Z</time>
      </trkpt>
      <trkpt lat="45.10443" lon="5.54307">
        <ele>1237.134</ele>
        <time>2021-06-26T15:54:44Z</time>
      </trkpt>
      <trkpt lat="45.10435" lon="5.54293">
        <ele>1236.989</ele>
        <time>2021-06-26T15:54:49Z</time>
      </trkpt>
      <trkpt lat="45.10429" lon="5.54283">
        <ele>1237.375</ele>
        <time>2021-06-26T15:54:54Z</time>
      </trkpt>
      <trkpt lat="45.1043" lon="5.54272">
        <ele>1236.323</ele>
        <time>2021-06-26T15:54:59Z</time>
      </trkpt>
      <trkpt lat="45.10421" lon="5.54263">
        <ele>1235.065</ele>
        <time>2021-06-26T15:55:04Z</time>
      </trkpt>
      <trkpt lat="45.10414" lon="5.54255">
        <ele>1237.805</ele>
        <time>2021-06-26T15:55:09Z</time>
      </trkpt>
      <trkpt lat="45.10404" lon="5.54257">
        <ele>1238.455</ele>
        <time>2021-06-26T15:55:14Z</time>
      </trkpt>
      <trkpt lat="45.10397" lon="5.54259">
        <ele>1239.182</ele>
        <time>2021-06-26T15:55:19Z</time>
      </trkpt>
      <trkpt lat="45.10392" lon="5.54253">
        <ele>1242.478</ele>
        <time>2021-06-26T15:55:24Z</time>
      </trkpt>
      <trkpt lat="45.10388" lon="5.54243">
        <ele>1246.048</ele>
        <time>2021-06-26T15:55:29Z</time>
      </trkpt>
      <trkpt lat="45.10382" lon="5.54235">
        <ele>1246.067</ele>
        <time>2021-06-26T15:55:34Z</time>
      </trkpt>
      <trkpt lat="45.10373" lon="5.54232">
        <ele>1243.004</ele>
        <time>2021-06-26T15:55:39Z</time>
      </trkpt>
      <trkpt lat="45.10365" lon="5.54235">
        <ele>1244.476</ele>
        <time>2021-06-26T15:55:44Z</time>
      </trkpt>
      <trkpt lat="45.10358" lon="5.5423">
        <ele>1245.024</ele>
        <time>2021-06-26T15:55:49Z</time>
      </trkpt>
      <trkpt lat="45.10351" lon="5.54228">
        <ele>1245.501</ele>
        <time>2021-06-26T15:55:54Z</time>
      </trkpt>
      <trkpt lat="45.10343" lon="5.54219">
        <ele>1246.486</ele>
        <time>2021-06-26T15:55:59Z</time>
      </trkpt>
      <trkpt lat="45.10335" lon="5.54223">
        <ele>1246.133</ele>
        <time>2021-06-26T15:56:04Z</time>
      </trkpt>
      <trkpt lat="45.10326" lon="5.54225">
        <ele>1246.519</ele>
        <time>2021-06-26T15:56:09Z</time>
      </trkpt>
      <trkpt lat="45.10317" lon="5.5423">
        <ele>1249.711</ele>
        <time>2021-06-26T15:56:14Z</time>
      </trkpt>
      <trkpt lat="45.10312" lon="5.54237">
        <ele>1250.261</ele>
        <time>2021-06-26T15:56:19Z</time>
      </trkpt>
      <trkpt lat="45.10303" lon="5.54238">
        <ele>1250.238</ele>
        <time>2021-06-26T15:56:24Z</time>
      </trkpt>
      <trkpt lat="45.10292" lon="5.54239">
        <ele>1251.729</ele>
        <time>2021-06-26T15:56:29Z</time>
      </trkpt>
      <trkpt lat="45.10286" lon="5.54247">
        <ele>1252.105</ele>
        <time>2021-06-26T15:56:34Z</time>
      </trkpt>
      <trkpt lat="45.10282" lon="5.54253">
        <ele>1250.88</ele>
        <time>2021-06-26T15:56:39Z</time>
      </trkpt>
      <trkpt lat="45.10275" lon="5.54253">
        <ele>1249.771</ele>
        <time>2021-06-26T15:56:44Z</time>
      </trkpt>
      <trkpt lat="45.10269" lon="5.54249">
        <ele>1249.151</ele>
        <time>2021-06-26T15:56:49Z</time>
      </trkpt>
      <trkpt lat="45.1026" lon="5.54252">
        <ele>1251.614</ele>
        <time>2021-06-26T15:56:54Z</time>
      </trkpt>
      <trkpt lat="45.10252" lon="5.54244">
        <ele>1250.423</ele>
        <time>2021-06-26T15:56:59Z</time>
      </trkpt>
      <trkpt lat="45.10238" lon="5.54244">
        <ele>1249.669</ele>
        <time>2021-06-26T15:57:04Z</time>
      </trkpt>
      <trkpt lat="45.10222" lon="5.54237">
        <ele>1247.174</ele>
        <time>2021-06-26T15:57:09Z</time>
      </trkpt>
      <trkpt lat="45.10215" lon="5.54223">
        <ele>1246.151</ele>
        <time>2021-06-26T15:57:14Z</time>
      </trkpt>
      <trkpt lat="45.10199" lon="5.54223">
        <ele>1251.352</ele>
        <time>2021-06-26T15:57:19Z</time>
      </trkpt>
      <trkpt lat="45.10189" lon="5.5422">
        <ele>1251.867</ele>
        <time>2021-06-26T15:57:24Z</time>
      </trkpt>
      <trkpt lat="45.10185" lon="5.54218">
        <ele>1249.466</ele>
        <time>2021-06-26T15:57:29Z</time>
      </trkpt>
      <trkpt lat="45.1018" lon="5.54212">
        <ele>1250.265</ele>
        <time>2021-06-26T15:57:34Z</time>
      </trkpt>
      <trkpt lat="45.10174" lon="5.54204">
        <ele>1251.021</ele>
        <time>2021-06-26T15:57:39Z</time>
      </trkpt>
      <trkpt lat="45.10168" lon="5.54194">
        <ele>1250.153</ele>
        <time>2021-06-26T15:57:44Z</time>
      </trkpt>
      <trkpt lat="45.10158" lon="5.54194">
        <ele>1247.888</ele>
        <time>2021-06-26T15:57:49Z</time>
      </trkpt>
      <trkpt lat="45.10149" lon="5.54196">
        <ele>1248.183</ele>
        <time>2021-06-26T15:57:54Z</time>
      </trkpt>
      <trkpt lat="45.10146" lon="5.54199">
        <ele>1249.261</ele>
        <time>2021-06-26T15:57:58Z</time>
      </trkpt>
      <trkpt lat="45.10143" lon="5.54206">
        <ele>1253.768</ele>
        <time>2021-06-26T15:58:04Z</time>
      </trkpt>
      <trkpt lat="45.10143" lon="5.54211">
        <ele>1255.619</ele>
        <time>2021-06-26T15:58:09Z</time>
      </trkpt>
      <trkpt lat="45.10143" lon="5.54213">
        <ele>1257.552</ele>
        <time>2021-06-26T15:58:14Z</time>
      </trkpt>
      <trkpt lat="45.10138" lon="5.54214">
        <ele>1254.06</ele>
        <time>2021-06-26T15:58:19Z</time>
      </trkpt>
      <trkpt lat="45.10135" lon="5.54213">
        <ele>1254</ele>
        <time>2021-06-26T15:58:24Z</time>
      </trkpt>
      <trkpt lat="45.10129" lon="5.54211">
        <ele>1255.889</ele>
        <time>2021-06-26T15:58:29Z</time>
      </trkpt>
      <trkpt lat="45.10124" lon="5.54212">
        <ele>1254.023</ele>
        <time>2021-06-26T15:58:34Z</time>
      </trkpt>
      <trkpt lat="45.10119" lon="5.54209">
        <ele>1254.667</ele>
        <time>2021-06-26T15:58:39Z</time>
      </trkpt>
      <trkpt lat="45.10118" lon="5.54197">
        <ele>1253.228</ele>
        <time>2021-06-26T15:58:44Z</time>
      </trkpt>
      <trkpt lat="45.10108" lon="5.54191">
        <ele>1253.419</ele>
        <time>2021-06-26T15:58:49Z</time>
      </trkpt>
      <trkpt lat="45.10098" lon="5.54194">
        <ele>1253.322</ele>
        <time>2021-06-26T15:58:54Z</time>
      </trkpt>
      <trkpt lat="45.10091" lon="5.54188">
        <ele>1251.223</ele>
        <time>2021-06-26T15:58:59Z</time>
      </trkpt>
      <trkpt lat="45.10086" lon="5.54167">
        <ele>1251.188</ele>
        <time>2021-06-26T15:59:04Z</time>
      </trkpt>
      <trkpt lat="45.10085" lon="5.54163">
        <ele>1250.509</ele>
        <time>2021-06-26T15:59:08Z</time>
      </trkpt>
      <trkpt lat="45.10085" lon="5.54164">
        <ele>1250.553</ele>
        <time>2021-06-26T15:59:14Z</time>
      </trkpt>
      <trkpt lat="45.10085" lon="5.54163">
        <ele>1253.221</ele>
        <time>2021-06-26T15:59:19Z</time>
      </trkpt>
      <trkpt lat="45.10084" lon="5.54162">
        <ele>1253.99</ele>
        <time>2021-06-26T15:59:24Z</time>
      </trkpt>
      <trkpt lat="45.10084" lon="5.54162">
        <ele>1253.965</ele>
        <time>2021-06-26T15:59:29Z</time>
      </trkpt>
      <trkpt lat="45.10084" lon="5.54162">
        <ele>1253.968</ele>
        <time>2021-06-26T15:59:34Z</time>
      </trkpt>
      <trkpt lat="45.10084" lon="5.54162">
        <ele>1253.978</ele>
        <time>2021-06-26T15:59:39Z</time>
      </trkpt>
      <trkpt lat="45.10084" lon="5.54162">
        <ele>1253.981</ele>
        <time>2021-06-26T15:59:44Z</time>
      </trkpt>
      <trkpt lat="45.10084" lon="5.54162">
        <ele>1253.991</ele>
        <time>2021-06-26T15:59:49Z</time>
      </trkpt>
      <trkpt lat="45.10084" lon="5.54162">
        <ele>1250.871</ele>
        <time>2021-06-26T15:59:54Z</time>
      </trkpt>
      <trkpt lat="45.10083" lon="5.54162">
        <ele>1251.382</ele>
        <time>2021-06-26T15:59:59Z</time>
      </trkpt>
      <trkpt lat="45.10082" lon="5.54162">
        <ele>1252.405</ele>
        <time>2021-06-26T16:00:04Z</time>
      </trkpt>
      <trkpt lat="45.10082" lon="5.54161">
        <ele>1252.404</ele>
        <time>2021-06-26T16:00:09Z</time>
      </trkpt>
      <trkpt lat="45.10089" lon="5.54144">
        <ele>1251.2</ele>
        <time>2021-06-26T16:00:14Z</time>
      </trkpt>
      <trkpt lat="45.101" lon="5.54125">
        <ele>1250.775</ele>
        <time>2021-06-26T16:00:19Z</time>
      </trkpt>
      <trkpt lat="45.10088" lon="5.54108">
        <ele>1249.196</ele>
        <time>2021-06-26T16:00:24Z</time>
      </trkpt>
      <trkpt lat="45.10061" lon="5.54089">
        <ele>1244.777</ele>
        <time>2021-06-26T16:00:29Z</time>
      </trkpt>
      <trkpt lat="45.10045" lon="5.54078">
        <ele>1242.943</ele>
        <time>2021-06-26T16:00:34Z</time>
      </trkpt>
      <trkpt lat="45.10038" lon="5.54073">
        <ele>1243.02</ele>
        <time>2021-06-26T16:00:39Z</time>
      </trkpt>
      <trkpt lat="45.10029" lon="5.54075">
        <ele>1245.619</ele>
        <time>2021-06-26T16:00:44Z</time>
      </trkpt>
      <trkpt lat="45.1002" lon="5.54076">
        <ele>1247.48</ele>
        <time>2021-06-26T16:00:49Z</time>
      </trkpt>
      <trkpt lat="45.10014" lon="5.54072">
        <ele>1245.617</ele>
        <time>2021-06-26T16:00:54Z</time>
      </trkpt>
      <trkpt lat="45.10007" lon="5.5407">
        <ele>1252.413</ele>
        <time>2021-06-26T16:00:59Z</time>
      </trkpt>
      <trkpt lat="45.09999" lon="5.54067">
        <ele>1250.821</ele>
        <time>2021-06-26T16:01:04Z</time>
      </trkpt>
      <trkpt lat="45.09996" lon="5.54062">
        <ele>1255.602</ele>
        <time>2021-06-26T16:01:09Z</time>
      </trkpt>
      <trkpt lat="45.09993" lon="5.54055">
        <ele>1255.465</ele>
        <time>2021-06-26T16:01:14Z</time>
      </trkpt>
      <trkpt lat="45.09986" lon="5.54057">
        <ele>1252.498</ele>
        <time>2021-06-26T16:01:19Z</time>
      </trkpt>
      <trkpt lat="45.09979" lon="5.54063">
        <ele>1251.848</ele>
        <time>2021-06-26T16:01:24Z</time>
      </trkpt>
      <trkpt lat="45.09971" lon="5.54065">
        <ele>1251.355</ele>
        <time>2021-06-26T16:01:29Z</time>
      </trkpt>
      <trkpt lat="45.09968" lon="5.54059">
        <ele>1254.814</ele>
        <time>2021-06-26T16:01:34Z</time>
      </trkpt>
      <trkpt lat="45.09967" lon="5.54049">
        <ele>1254.009</ele>
        <time>2021-06-26T16:01:39Z</time>
      </trkpt>
      <trkpt lat="45.09963" lon="5.54043">
        <ele>1256.892</ele>
        <time>2021-06-26T16:01:44Z</time>
      </trkpt>
      <trkpt lat="45.09957" lon="5.5404">
        <ele>1256.952</ele>
        <time>2021-06-26T16:01:49Z</time>
      </trkpt>
      <trkpt lat="45.09952" lon="5.54039">
        <ele>1255.804</ele>
        <time>2021-06-26T16:01:54Z</time>
      </trkpt>
      <trkpt lat="45.09948" lon="5.54041">
        <ele>1258.15</ele>
        <time>2021-06-26T16:01:59Z</time>
      </trkpt>
      <trkpt lat="45.09945" lon="5.54043">
        <ele>1259.436</ele>
        <time>2021-06-26T16:02:04Z</time>
      </trkpt>
      <trkpt lat="45.09941" lon="5.54044">
        <ele>1259.889</ele>
        <time>2021-06-26T16:02:09Z</time>
      </trkpt>
      <trkpt lat="45.09938" lon="5.54045">
        <ele>1261.501</ele>
        <time>2021-06-26T16:02:14Z</time>
      </trkpt>
      <trkpt lat="45.09938" lon="5.54044">
        <ele>1261.444</ele>
        <time>2021-06-26T16:02:19Z</time>
      </trkpt>
      <trkpt lat="45.09938" lon="5.54044">
        <ele>1261.43</ele>
        <time>2021-06-26T16:02:24Z</time>
      </trkpt>
      <trkpt lat="45.09938" lon="5.54044">
        <ele>1261.47</ele>
        <time>2021-06-26T16:02:29Z</time>
      </trkpt>
      <trkpt lat="45.09938" lon="5.54044">
        <ele>1261.502</ele>
        <time>2021-06-26T16:02:34Z</time>
      </trkpt>
      <trkpt lat="45.09938" lon="5.54044">
        <ele>1261.526</ele>
        <time>2021-06-26T16:02:39Z</time>
      </trkpt>
      <trkpt lat="45.09938" lon="5.54044">
        <ele>1261.539</ele>
        <time>2021-06-26T16:02:44Z</time>
      </trkpt>
      <trkpt lat="45.09937" lon="5.54044">
        <ele>1262.482</ele>
        <time>2021-06-26T16:02:49Z</time>
      </trkpt>
      <trkpt lat="45.09937" lon="5.54044">
        <ele>1262.51</ele>
        <time>2021-06-26T16:02:54Z</time>
      </trkpt>
      <trkpt lat="45.09934" lon="5.54041">
        <ele>1261.08</ele>
        <time>2021-06-26T16:02:59Z</time>
      </trkpt>
      <trkpt lat="45.09931" lon="5.54041">
        <ele>1262.01</ele>
        <time>2021-06-26T16:03:04Z</time>
      </trkpt>
      <trkpt lat="45.09927" lon="5.54039">
        <ele>1265.053</ele>
        <time>2021-06-26T16:03:09Z</time>
      </trkpt>
      <trkpt lat="45.09924" lon="5.54037">
        <ele>1268.755</ele>
        <time>2021-06-26T16:03:14Z</time>
      </trkpt>
      <trkpt lat="45.0992" lon="5.54033">
        <ele>1271.21</ele>
        <time>2021-06-26T16:03:19Z</time>
      </trkpt>
      <trkpt lat="45.09918" lon="5.54028">
        <ele>1272.894</ele>
        <time>2021-06-26T16:03:24Z</time>
      </trkpt>
      <trkpt lat="45.09914" lon="5.54026">
        <ele>1270.972</ele>
        <time>2021-06-26T16:03:29Z</time>
      </trkpt>
      <trkpt lat="45.0991" lon="5.54027">
        <ele>1271.312</ele>
        <time>2021-06-26T16:03:34Z</time>
      </trkpt>
      <trkpt lat="45.09906" lon="5.5403">
        <ele>1271.938</ele>
        <time>2021-06-26T16:03:39Z</time>
      </trkpt>
      <trkpt lat="45.09902" lon="5.54028">
        <ele>1270.364</ele>
        <time>2021-06-26T16:03:44Z</time>
      </trkpt>
      <trkpt lat="45.09898" lon="5.54028">
        <ele>1270.758</ele>
        <time>2021-06-26T16:03:49Z</time>
      </trkpt>
      <trkpt lat="45.09894" lon="5.54029">
        <ele>1270.955</ele>
        <time>2021-06-26T16:03:54Z</time>
      </trkpt>
      <trkpt lat="45.09889" lon="5.54029">
        <ele>1273.115</ele>
        <time>2021-06-26T16:03:59Z</time>
      </trkpt>
      <trkpt lat="45.09886" lon="5.5403">
        <ele>1272.465</ele>
        <time>2021-06-26T16:04:04Z</time>
      </trkpt>
      <trkpt lat="45.09882" lon="5.54029">
        <ele>1272.862</ele>
        <time>2021-06-26T16:04:09Z</time>
      </trkpt>
      <trkpt lat="45.09878" lon="5.54026">
        <ele>1273.786</ele>
        <time>2021-06-26T16:04:14Z</time>
      </trkpt>
      <trkpt lat="45.09874" lon="5.54025">
        <ele>1276.874</ele>
        <time>2021-06-26T16:04:19Z</time>
      </trkpt>
      <trkpt lat="45.09871" lon="5.54022">
        <ele>1275.722</ele>
        <time>2021-06-26T16:04:24Z</time>
      </trkpt>
      <trkpt lat="45.09868" lon="5.5402">
        <ele>1277.474</ele>
        <time>2021-06-26T16:04:29Z</time>
      </trkpt>
      <trkpt lat="45.09866" lon="5.54017">
        <ele>1277.782</ele>
        <time>2021-06-26T16:04:34Z</time>
      </trkpt>
      <trkpt lat="45.09864" lon="5.54014">
        <ele>1279.177</ele>
        <time>2021-06-26T16:04:39Z</time>
      </trkpt>
      <trkpt lat="45.09863" lon="5.54012">
        <ele>1281.601</ele>
        <time>2021-06-26T16:04:44Z</time>
      </trkpt>
      <trkpt lat="45.09861" lon="5.54009">
        <ele>1282.57</ele>
        <time>2021-06-26T16:04:49Z</time>
      </trkpt>
      <trkpt lat="45.09862" lon="5.54003">
        <ele>1279.823</ele>
        <time>2021-06-26T16:04:54Z</time>
      </trkpt>
      <trkpt lat="45.09863" lon="5.53999">
        <ele>1280.75</ele>
        <time>2021-06-26T16:04:59Z</time>
      </trkpt>
      <trkpt lat="45.09865" lon="5.53993">
        <ele>1284.344</ele>
        <time>2021-06-26T16:05:04Z</time>
      </trkpt>
      <trkpt lat="45.09868" lon="5.53986">
        <ele>1282.378</ele>
        <time>2021-06-26T16:05:09Z</time>
      </trkpt>
      <trkpt lat="45.0987" lon="5.53981">
        <ele>1281.586</ele>
        <time>2021-06-26T16:05:14Z</time>
      </trkpt>
      <trkpt lat="45.0987" lon="5.53978">
        <ele>1281.855</ele>
        <time>2021-06-26T16:05:19Z</time>
      </trkpt>
      <trkpt lat="45.09868" lon="5.53972">
        <ele>1283.134</ele>
        <time>2021-06-26T16:05:24Z</time>
      </trkpt>
      <trkpt lat="45.09868" lon="5.53967">
        <ele>1287.823</ele>
        <time>2021-06-26T16:05:29Z</time>
      </trkpt>
      <trkpt lat="45.0987" lon="5.53963">
        <ele>1286.604</ele>
        <time>2021-06-26T16:05:34Z</time>
      </trkpt>
      <trkpt lat="45.09871" lon="5.53958">
        <ele>1285.969</ele>
        <time>2021-06-26T16:05:39Z</time>
      </trkpt>
      <trkpt lat="45.09872" lon="5.53954">
        <ele>1286.402</ele>
        <time>2021-06-26T16:05:44Z</time>
      </trkpt>
      <trkpt lat="45.09873" lon="5.5395">
        <ele>1285.906</ele>
        <time>2021-06-26T16:05:49Z</time>
      </trkpt>
      <trkpt lat="45.09871" lon="5.53946">
        <ele>1285.6</ele>
        <time>2021-06-26T16:05:55Z</time>
      </trkpt>
      <trkpt lat="45.0987" lon="5.53944">
        <ele>1287.601</ele>
        <time>2021-06-26T16:06:00Z</time>
      </trkpt>
      <trkpt lat="45.09868" lon="5.53943">
        <ele>1287.334</ele>
        <time>2021-06-26T16:06:05Z</time>
      </trkpt>
      <trkpt lat="45.09866" lon="5.53941">
        <ele>1289.298</ele>
        <time>2021-06-26T16:06:10Z</time>
      </trkpt>
      <trkpt lat="45.09865" lon="5.53938">
        <ele>1291.43</ele>
        <time>2021-06-26T16:06:15Z</time>
      </trkpt>
      <trkpt lat="45.09865" lon="5.53934">
        <ele>1293.36</ele>
        <time>2021-06-26T16:06:20Z</time>
      </trkpt>
      <trkpt lat="45.09864" lon="5.53929">
        <ele>1294.493</ele>
        <time>2021-06-26T16:06:25Z</time>
      </trkpt>
      <trkpt lat="45.09863" lon="5.53927">
        <ele>1294.398</ele>
        <time>2021-06-26T16:06:30Z</time>
      </trkpt>
      <trkpt lat="45.0986" lon="5.53927">
        <ele>1295.376</ele>
        <time>2021-06-26T16:06:35Z</time>
      </trkpt>
      <trkpt lat="45.09858" lon="5.53927">
        <ele>1292.479</ele>
        <time>2021-06-26T16:06:40Z</time>
      </trkpt>
      <trkpt lat="45.09856" lon="5.53927">
        <ele>1293.537</ele>
        <time>2021-06-26T16:06:45Z</time>
      </trkpt>
      <trkpt lat="45.09856" lon="5.53927">
        <ele>1293.524</ele>
        <time>2021-06-26T16:06:50Z</time>
      </trkpt>
      <trkpt lat="45.09855" lon="5.53927">
        <ele>1293.778</ele>
        <time>2021-06-26T16:06:55Z</time>
      </trkpt>
      <trkpt lat="45.09855" lon="5.53926">
        <ele>1293.79</ele>
        <time>2021-06-26T16:07:00Z</time>
      </trkpt>
      <trkpt lat="45.09856" lon="5.53927">
        <ele>1293.94</ele>
        <time>2021-06-26T16:07:05Z</time>
      </trkpt>
      <trkpt lat="45.09855" lon="5.53927">
        <ele>1293.789</ele>
        <time>2021-06-26T16:07:10Z</time>
      </trkpt>
      <trkpt lat="45.09854" lon="5.53929">
        <ele>1294.377</ele>
        <time>2021-06-26T16:07:15Z</time>
      </trkpt>
      <trkpt lat="45.09854" lon="5.53933">
        <ele>1293.893</ele>
        <time>2021-06-26T16:07:20Z</time>
      </trkpt>
      <trkpt lat="45.09854" lon="5.53934">
        <ele>1292.826</ele>
        <time>2021-06-26T16:07:25Z</time>
      </trkpt>
      <trkpt lat="45.09854" lon="5.53933">
        <ele>1292.86</ele>
        <time>2021-06-26T16:07:30Z</time>
      </trkpt>
      <trkpt lat="45.09854" lon="5.53934">
        <ele>1293.09</ele>
        <time>2021-06-26T16:07:35Z</time>
      </trkpt>
      <trkpt lat="45.09853" lon="5.53934">
        <ele>1293.096</ele>
        <time>2021-06-26T16:07:40Z</time>
      </trkpt>
      <trkpt lat="45.09853" lon="5.53934">
        <ele>1293.101</ele>
        <time>2021-06-26T16:07:45Z</time>
      </trkpt>
      <trkpt lat="45.09853" lon="5.53934">
        <ele>1293.106</ele>
        <time>2021-06-26T16:07:50Z</time>
      </trkpt>
      <trkpt lat="45.09853" lon="5.53934">
        <ele>1293.109</ele>
        <time>2021-06-26T16:07:55Z</time>
      </trkpt>
      <trkpt lat="45.09853" lon="5.53934">
        <ele>1293.121</ele>
        <time>2021-06-26T16:08:00Z</time>
      </trkpt>
      <trkpt lat="45.09853" lon="5.53934">
        <ele>1293.113</ele>
        <time>2021-06-26T16:08:05Z</time>
      </trkpt>
      <trkpt lat="45.09853" lon="5.53934">
        <ele>1293.09</ele>
        <time>2021-06-26T16:08:10Z</time>
      </trkpt>
      <trkpt lat="45.09853" lon="5.53934">
        <ele>1293.087</ele>
        <time>2021-06-26T16:08:15Z</time>
      </trkpt>
      <trkpt lat="45.09853" lon="5.53934">
        <ele>1293.062</ele>
        <time>2021-06-26T16:08:20Z</time>
      </trkpt>
      <trkpt lat="45.09853" lon="5.53934">
        <ele>1293.054</ele>
        <time>2021-06-26T16:08:25Z</time>
      </trkpt>
      <trkpt lat="45.09853" lon="5.53934">
        <ele>1293.041</ele>
        <time>2021-06-26T16:08:30Z</time>
      </trkpt>
      <trkpt lat="45.09853" lon="5.53934">
        <ele>1293.043</ele>
        <time>2021-06-26T16:08:35Z</time>
      </trkpt>
      <trkpt lat="45.09853" lon="5.53934">
        <ele>1293.033</ele>
        <time>2021-06-26T16:08:40Z</time>
      </trkpt>
      <trkpt lat="45.09853" lon="5.53934">
        <ele>1293.024</ele>
        <time>2021-06-26T16:08:45Z</time>
      </trkpt>
      <trkpt lat="45.09853" lon="5.53934">
        <ele>1293.022</ele>
        <time>2021-06-26T16:08:50Z</time>
      </trkpt>
      <trkpt lat="45.09853" lon="5.53934">
        <ele>1293.012</ele>
        <time>2021-06-26T16:08:55Z</time>
      </trkpt>
      <trkpt lat="45.09852" lon="5.53935">
        <ele>1293.003</ele>
        <time>2021-06-26T16:09:00Z</time>
      </trkpt>
      <trkpt lat="45.09847" lon="5.53945">
        <ele>1292.887</ele>
        <time>2021-06-26T16:09:05Z</time>
      </trkpt>
      <trkpt lat="45.09834" lon="5.53962">
        <ele>1291.488</ele>
        <time>2021-06-26T16:09:10Z</time>
      </trkpt>
      <trkpt lat="45.09809" lon="5.53989">
        <ele>1294.426</ele>
        <time>2021-06-26T16:09:15Z</time>
      </trkpt>
      <trkpt lat="45.09786" lon="5.54018">
        <ele>1291.771</ele>
        <time>2021-06-26T16:09:20Z</time>
      </trkpt>
      <trkpt lat="45.09758" lon="5.54048">
        <ele>1287.32</ele>
        <time>2021-06-26T16:09:25Z</time>
      </trkpt>
      <trkpt lat="45.09764" lon="5.54103">
        <ele>1284.225</ele>
        <time>2021-06-26T16:09:30Z</time>
      </trkpt>
      <trkpt lat="45.09784" lon="5.54152">
        <ele>1285.596</ele>
        <time>2021-06-26T16:09:35Z</time>
      </trkpt>
      <trkpt lat="45.09794" lon="5.54185">
        <ele>1283.277</ele>
        <time>2021-06-26T16:09:40Z</time>
      </trkpt>
      <trkpt lat="45.09791" lon="5.54194">
        <ele>1286.682</ele>
        <time>2021-06-26T16:09:45Z</time>
      </trkpt>
      <trkpt lat="45.09784" lon="5.54197">
        <ele>1285.193</ele>
        <time>2021-06-26T16:09:50Z</time>
      </trkpt>
      <trkpt lat="45.09779" lon="5.542">
        <ele>1285.603</ele>
        <time>2021-06-26T16:09:55Z</time>
      </trkpt>
      <trkpt lat="45.09772" lon="5.54202">
        <ele>1283.769</ele>
        <time>2021-06-26T16:10:00Z</time>
      </trkpt>
      <trkpt lat="45.09766" lon="5.54201">
        <ele>1282.081</ele>
        <time>2021-06-26T16:10:05Z</time>
      </trkpt>
      <trkpt lat="45.09759" lon="5.54203">
        <ele>1280.464</ele>
        <time>2021-06-26T16:10:10Z</time>
      </trkpt>
      <trkpt lat="45.09751" lon="5.54206">
        <ele>1282.683</ele>
        <time>2021-06-26T16:10:15Z</time>
      </trkpt>
      <trkpt lat="45.09745" lon="5.54207">
        <ele>1281.734</ele>
        <time>2021-06-26T16:10:20Z</time>
      </trkpt>
      <trkpt lat="45.09739" lon="5.54207">
        <ele>1284.007</ele>
        <time>2021-06-26T16:10:25Z</time>
      </trkpt>
      <trkpt lat="45.09732" lon="5.54208">
        <ele>1284.128</ele>
        <time>2021-06-26T16:10:30Z</time>
      </trkpt>
      <trkpt lat="45.09725" lon="5.54208">
        <ele>1283.861</ele>
        <time>2021-06-26T16:10:35Z</time>
      </trkpt>
      <trkpt lat="45.09718" lon="5.5421">
        <ele>1286.128</ele>
        <time>2021-06-26T16:10:40Z</time>
      </trkpt>
      <trkpt lat="45.09711" lon="5.54209">
        <ele>1286.854</ele>
        <time>2021-06-26T16:10:45Z</time>
      </trkpt>
      <trkpt lat="45.09705" lon="5.54208">
        <ele>1284.299</ele>
        <time>2021-06-26T16:10:50Z</time>
      </trkpt>
      <trkpt lat="45.09697" lon="5.54207">
        <ele>1281.043</ele>
        <time>2021-06-26T16:10:55Z</time>
      </trkpt>
      <trkpt lat="45.09691" lon="5.542">
        <ele>1281.803</ele>
        <time>2021-06-26T16:11:00Z</time>
      </trkpt>
      <trkpt lat="45.09686" lon="5.54201">
        <ele>1288.189</ele>
        <time>2021-06-26T16:11:05Z</time>
      </trkpt>
      <trkpt lat="45.0968" lon="5.54204">
        <ele>1293.309</ele>
        <time>2021-06-26T16:11:10Z</time>
      </trkpt>
      <trkpt lat="45.09674" lon="5.54204">
        <ele>1295.162</ele>
        <time>2021-06-26T16:11:15Z</time>
      </trkpt>
      <trkpt lat="45.0967" lon="5.54204">
        <ele>1294.699</ele>
        <time>2021-06-26T16:11:20Z</time>
      </trkpt>
      <trkpt lat="45.09663" lon="5.54201">
        <ele>1299.255</ele>
        <time>2021-06-26T16:11:25Z</time>
      </trkpt>
      <trkpt lat="45.09656" lon="5.54204">
        <ele>1300.373</ele>
        <time>2021-06-26T16:11:30Z</time>
      </trkpt>
      <trkpt lat="45.09651" lon="5.54201">
        <ele>1300.436</ele>
        <time>2021-06-26T16:11:35Z</time>
      </trkpt>
      <trkpt lat="45.09644" lon="5.54202">
        <ele>1303.314</ele>
        <time>2021-06-26T16:11:40Z</time>
      </trkpt>
      <trkpt lat="45.0964" lon="5.54202">
        <ele>1302.742</ele>
        <time>2021-06-26T16:11:45Z</time>
      </trkpt>
      <trkpt lat="45.09636" lon="5.542">
        <ele>1300.1</ele>
        <time>2021-06-26T16:11:50Z</time>
      </trkpt>
      <trkpt lat="45.09631" lon="5.54197">
        <ele>1300.277</ele>
        <time>2021-06-26T16:11:55Z</time>
      </trkpt>
      <trkpt lat="45.09625" lon="5.54196">
        <ele>1301.566</ele>
        <time>2021-06-26T16:12:00Z</time>
      </trkpt>
      <trkpt lat="45.09619" lon="5.54194">
        <ele>1302.366</ele>
        <time>2021-06-26T16:12:05Z</time>
      </trkpt>
      <trkpt lat="45.09614" lon="5.54193">
        <ele>1303.398</ele>
        <time>2021-06-26T16:12:10Z</time>
      </trkpt>
      <trkpt lat="45.09609" lon="5.54192">
        <ele>1304.736</ele>
        <time>2021-06-26T16:12:15Z</time>
      </trkpt>
      <trkpt lat="45.09603" lon="5.54192">
        <ele>1306.083</ele>
        <time>2021-06-26T16:12:20Z</time>
      </trkpt>
      <trkpt lat="45.09598" lon="5.54189">
        <ele>1306.251</ele>
        <time>2021-06-26T16:12:25Z</time>
      </trkpt>
      <trkpt lat="45.09592" lon="5.54186">
        <ele>1309.063</ele>
        <time>2021-06-26T16:12:30Z</time>
      </trkpt>
      <trkpt lat="45.09587" lon="5.54184">
        <ele>1310.187</ele>
        <time>2021-06-26T16:12:35Z</time>
      </trkpt>
      <trkpt lat="45.09583" lon="5.54183">
        <ele>1307.655</ele>
        <time>2021-06-26T16:12:40Z</time>
      </trkpt>
      <trkpt lat="45.09579" lon="5.54182">
        <ele>1307.844</ele>
        <time>2021-06-26T16:12:45Z</time>
      </trkpt>
      <trkpt lat="45.09575" lon="5.54178">
        <ele>1307.396</ele>
        <time>2021-06-26T16:12:50Z</time>
      </trkpt>
      <trkpt lat="45.0957" lon="5.54175">
        <ele>1309.019</ele>
        <time>2021-06-26T16:12:55Z</time>
      </trkpt>
      <trkpt lat="45.09565" lon="5.54173">
        <ele>1309.996</ele>
        <time>2021-06-26T16:13:00Z</time>
      </trkpt>
      <trkpt lat="45.09559" lon="5.5417">
        <ele>1310.412</ele>
        <time>2021-06-26T16:13:05Z</time>
      </trkpt>
      <trkpt lat="45.09554" lon="5.54168">
        <ele>1311.831</ele>
        <time>2021-06-26T16:13:10Z</time>
      </trkpt>
      <trkpt lat="45.09548" lon="5.54165">
        <ele>1314.645</ele>
        <time>2021-06-26T16:13:15Z</time>
      </trkpt>
      <trkpt lat="45.09541" lon="5.54163">
        <ele>1316.136</ele>
        <time>2021-06-26T16:13:20Z</time>
      </trkpt>
      <trkpt lat="45.09535" lon="5.5416">
        <ele>1316.762</ele>
        <time>2021-06-26T16:13:25Z</time>
      </trkpt>
      <trkpt lat="45.09529" lon="5.54158">
        <ele>1316.87</ele>
        <time>2021-06-26T16:13:30Z</time>
      </trkpt>
      <trkpt lat="45.09525" lon="5.54155">
        <ele>1318.029</ele>
        <time>2021-06-26T16:13:35Z</time>
      </trkpt>
      <trkpt lat="45.0952" lon="5.54154">
        <ele>1320.508</ele>
        <time>2021-06-26T16:13:40Z</time>
      </trkpt>
      <trkpt lat="45.09515" lon="5.54152">
        <ele>1322.39</ele>
        <time>2021-06-26T16:13:45Z</time>
      </trkpt>
      <trkpt lat="45.0951" lon="5.54151">
        <ele>1321.205</ele>
        <time>2021-06-26T16:13:50Z</time>
      </trkpt>
      <trkpt lat="45.09505" lon="5.5415">
        <ele>1321.971</ele>
        <time>2021-06-26T16:13:55Z</time>
      </trkpt>
      <trkpt lat="45.09501" lon="5.54149">
        <ele>1321.235</ele>
        <time>2021-06-26T16:14:00Z</time>
      </trkpt>
      <trkpt lat="45.09496" lon="5.54145">
        <ele>1323.933</ele>
        <time>2021-06-26T16:14:05Z</time>
      </trkpt>
      <trkpt lat="45.09491" lon="5.54142">
        <ele>1325.506</ele>
        <time>2021-06-26T16:14:10Z</time>
      </trkpt>
      <trkpt lat="45.09486" lon="5.54137">
        <ele>1326.007</ele>
        <time>2021-06-26T16:14:15Z</time>
      </trkpt>
      <trkpt lat="45.09481" lon="5.54133">
        <ele>1326.16</ele>
        <time>2021-06-26T16:14:20Z</time>
      </trkpt>
      <trkpt lat="45.09476" lon="5.54129">
        <ele>1326.684</ele>
        <time>2021-06-26T16:14:25Z</time>
      </trkpt>
      <trkpt lat="45.09472" lon="5.54123">
        <ele>1323.73</ele>
        <time>2021-06-26T16:14:30Z</time>
      </trkpt>
      <trkpt lat="45.09467" lon="5.54117">
        <ele>1326.996</ele>
        <time>2021-06-26T16:14:35Z</time>
      </trkpt>
      <trkpt lat="45.09463" lon="5.54113">
        <ele>1328.201</ele>
        <time>2021-06-26T16:14:40Z</time>
      </trkpt>
      <trkpt lat="45.09459" lon="5.54107">
        <ele>1329.824</ele>
        <time>2021-06-26T16:14:45Z</time>
      </trkpt>
      <trkpt lat="45.09455" lon="5.54104">
        <ele>1328.075</ele>
        <time>2021-06-26T16:14:50Z</time>
      </trkpt>
      <trkpt lat="45.09452" lon="5.541">
        <ele>1328.103</ele>
        <time>2021-06-26T16:14:55Z</time>
      </trkpt>
      <trkpt lat="45.09448" lon="5.54097">
        <ele>1325.788</ele>
        <time>2021-06-26T16:15:00Z</time>
      </trkpt>
      <trkpt lat="45.09443" lon="5.54095">
        <ele>1325.891</ele>
        <time>2021-06-26T16:15:05Z</time>
      </trkpt>
      <trkpt lat="45.09437" lon="5.54094">
        <ele>1326.957</ele>
        <time>2021-06-26T16:15:10Z</time>
      </trkpt>
      <trkpt lat="45.0943" lon="5.54094">
        <ele>1329.253</ele>
        <time>2021-06-26T16:15:15Z</time>
      </trkpt>
      <trkpt lat="45.09422" lon="5.54096">
        <ele>1330.64</ele>
        <time>2021-06-26T16:15:20Z</time>
      </trkpt>
      <trkpt lat="45.09413" lon="5.54097">
        <ele>1331.617</ele>
        <time>2021-06-26T16:15:25Z</time>
      </trkpt>
      <trkpt lat="45.09404" lon="5.54097">
        <ele>1330.181</ele>
        <time>2021-06-26T16:15:30Z</time>
      </trkpt>
      <trkpt lat="45.09396" lon="5.54097">
        <ele>1324.856</ele>
        <time>2021-06-26T16:15:35Z</time>
      </trkpt>
      <trkpt lat="45.09385" lon="5.54097">
        <ele>1325.14</ele>
        <time>2021-06-26T16:15:40Z</time>
      </trkpt>
      <trkpt lat="45.09376" lon="5.54096">
        <ele>1327.121</ele>
        <time>2021-06-26T16:15:45Z</time>
      </trkpt>
      <trkpt lat="45.09367" lon="5.54094">
        <ele>1327.471</ele>
        <time>2021-06-26T16:15:50Z</time>
      </trkpt>
      <trkpt lat="45.09358" lon="5.54095">
        <ele>1331.118</ele>
        <time>2021-06-26T16:15:55Z</time>
      </trkpt>
      <trkpt lat="45.0935" lon="5.54096">
        <ele>1339.917</ele>
        <time>2021-06-26T16:16:00Z</time>
      </trkpt>
      <trkpt lat="45.09351" lon="5.54095">
        <ele>1337.145</ele>
        <time>2021-06-26T16:16:05Z</time>
      </trkpt>
      <trkpt lat="45.09351" lon="5.54095">
        <ele>1337.147</ele>
        <time>2021-06-26T16:16:10Z</time>
      </trkpt>
      <trkpt lat="45.09351" lon="5.54095">
        <ele>1338.697</ele>
        <time>2021-06-26T16:16:15Z</time>
      </trkpt>
      <trkpt lat="45.0935" lon="5.54097">
        <ele>1338.529</ele>
        <time>2021-06-26T16:16:20Z</time>
      </trkpt>
      <trkpt lat="45.09349" lon="5.54097">
        <ele>1337.543</ele>
        <time>2021-06-26T16:16:25Z</time>
      </trkpt>
      <trkpt lat="45.09349" lon="5.54097">
        <ele>1337.597</ele>
        <time>2021-06-26T16:16:30Z</time>
      </trkpt>
      <trkpt lat="45.09349" lon="5.54097">
        <ele>1337.59</ele>
        <time>2021-06-26T16:16:35Z</time>
      </trkpt>
      <trkpt lat="45.09349" lon="5.54097">
        <ele>1337.575</ele>
        <time>2021-06-26T16:16:40Z</time>
      </trkpt>
      <trkpt lat="45.09349" lon="5.54096">
        <ele>1337.272</ele>
        <time>2021-06-26T16:16:45Z</time>
      </trkpt>
      <trkpt lat="45.09349" lon="5.54096">
        <ele>1337.27</ele>
        <time>2021-06-26T16:16:50Z</time>
      </trkpt>
      <trkpt lat="45.09349" lon="5.54096">
        <ele>1337.252</ele>
        <time>2021-06-26T16:16:55Z</time>
      </trkpt>
      <trkpt lat="45.09349" lon="5.54096">
        <ele>1337.064</ele>
        <time>2021-06-26T16:17:00Z</time>
      </trkpt>
      <trkpt lat="45.0935" lon="5.54096">
        <ele>1337.02</ele>
        <time>2021-06-26T16:17:05Z</time>
      </trkpt>
      <trkpt lat="45.0935" lon="5.54096">
        <ele>1337.014</ele>
        <time>2021-06-26T16:17:10Z</time>
      </trkpt>
      <trkpt lat="45.0935" lon="5.54096">
        <ele>1337.008</ele>
        <time>2021-06-26T16:17:15Z</time>
      </trkpt>
      <trkpt lat="45.0935" lon="5.54096">
        <ele>1337.006</ele>
        <time>2021-06-26T16:17:20Z</time>
      </trkpt>
      <trkpt lat="45.0935" lon="5.54096">
        <ele>1337.002</ele>
        <time>2021-06-26T16:17:25Z</time>
      </trkpt>
      <trkpt lat="45.0935" lon="5.54096">
        <ele>1336.975</ele>
        <time>2021-06-26T16:17:30Z</time>
      </trkpt>
      <trkpt lat="45.0935" lon="5.54096">
        <ele>1336.97</ele>
        <time>2021-06-26T16:17:35Z</time>
      </trkpt>
      <trkpt lat="45.0935" lon="5.54097">
        <ele>1336.357</ele>
        <time>2021-06-26T16:17:40Z</time>
      </trkpt>
      <trkpt lat="45.0935" lon="5.54097">
        <ele>1336.345</ele>
        <time>2021-06-26T16:17:45Z</time>
      </trkpt>
      <trkpt lat="45.0935" lon="5.54097">
        <ele>1336.328</ele>
        <time>2021-06-26T16:17:50Z</time>
      </trkpt>
      <trkpt lat="45.0935" lon="5.54097">
        <ele>1336.312</ele>
        <time>2021-06-26T16:17:55Z</time>
      </trkpt>
      <trkpt lat="45.0935" lon="5.54097">
        <ele>1336.297</ele>
        <time>2021-06-26T16:18:00Z</time>
      </trkpt>
      <trkpt lat="45.0935" lon="5.54097">
        <ele>1336.281</ele>
        <time>2021-06-26T16:18:05Z</time>
      </trkpt>
      <trkpt lat="45.0935" lon="5.54097">
        <ele>1336.279</ele>
        <time>2021-06-26T16:18:10Z</time>
      </trkpt>
      <trkpt lat="45.0935" lon="5.54097">
        <ele>1336.271</ele>
        <time>2021-06-26T16:18:15Z</time>
      </trkpt>
      <trkpt lat="45.0935" lon="5.54097">
        <ele>1336.255</ele>
        <time>2021-06-26T16:18:20Z</time>
      </trkpt>
      <trkpt lat="45.0935" lon="5.54097">
        <ele>1336.247</ele>
        <time>2021-06-26T16:18:25Z</time>
      </trkpt>
      <trkpt lat="45.0935" lon="5.54097">
        <ele>1336.234</ele>
        <time>2021-06-26T16:18:30Z</time>
      </trkpt>
      <trkpt lat="45.0935" lon="5.54097">
        <ele>1336.234</ele>
        <time>2021-06-26T16:18:35Z</time>
      </trkpt>
      <trkpt lat="45.0935" lon="5.54097">
        <ele>1336.222</ele>
        <time>2021-06-26T16:18:40Z</time>
      </trkpt>
      <trkpt lat="45.0935" lon="5.54097">
        <ele>1336.201</ele>
        <time>2021-06-26T16:18:45Z</time>
      </trkpt>
      <trkpt lat="45.0935" lon="5.54097">
        <ele>1336.185</ele>
        <time>2021-06-26T16:18:50Z</time>
      </trkpt>
      <trkpt lat="45.0935" lon="5.54097">
        <ele>1336.168</ele>
        <time>2021-06-26T16:18:55Z</time>
      </trkpt>
      <trkpt lat="45.0935" lon="5.54097">
        <ele>1336.165</ele>
        <time>2021-06-26T16:19:00Z</time>
      </trkpt>
      <trkpt lat="45.0935" lon="5.54097">
        <ele>1336.187</ele>
        <time>2021-06-26T16:19:05Z</time>
      </trkpt>
      <trkpt lat="45.0935" lon="5.54097">
        <ele>1336.195</ele>
        <time>2021-06-26T16:19:10Z</time>
      </trkpt>
      <trkpt lat="45.09351" lon="5.54098">
        <ele>1335.17</ele>
        <time>2021-06-26T16:19:15Z</time>
      </trkpt>
      <trkpt lat="45.09351" lon="5.54098">
        <ele>1335.165</ele>
        <time>2021-06-26T16:19:20Z</time>
      </trkpt>
      <trkpt lat="45.09351" lon="5.54098">
        <ele>1335.145</ele>
        <time>2021-06-26T16:19:25Z</time>
      </trkpt>
      <trkpt lat="45.09351" lon="5.54098">
        <ele>1335.111</ele>
        <time>2021-06-26T16:19:30Z</time>
      </trkpt>
      <trkpt lat="45.09351" lon="5.54098">
        <ele>1335.077</ele>
        <time>2021-06-26T16:19:35Z</time>
      </trkpt>
      <trkpt lat="45.09351" lon="5.54098">
        <ele>1335.053</ele>
        <time>2021-06-26T16:19:40Z</time>
      </trkpt>
      <trkpt lat="45.09351" lon="5.54098">
        <ele>1335.015</ele>
        <time>2021-06-26T16:19:45Z</time>
      </trkpt>
      <trkpt lat="45.09351" lon="5.54099">
        <ele>1334.94</ele>
        <time>2021-06-26T16:19:50Z</time>
      </trkpt>
      <trkpt lat="45.09351" lon="5.54099">
        <ele>1335.412</ele>
        <time>2021-06-26T16:19:55Z</time>
      </trkpt>
      <trkpt lat="45.09351" lon="5.54099">
        <ele>1335.446</ele>
        <time>2021-06-26T16:20:00Z</time>
      </trkpt>
      <trkpt lat="45.09351" lon="5.54099">
        <ele>1335.453</ele>
        <time>2021-06-26T16:20:05Z</time>
      </trkpt>
      <trkpt lat="45.09351" lon="5.54099">
        <ele>1335.45</ele>
        <time>2021-06-26T16:20:10Z</time>
      </trkpt>
      <trkpt lat="45.09351" lon="5.54099">
        <ele>1335.454</ele>
        <time>2021-06-26T16:20:15Z</time>
      </trkpt>
      <trkpt lat="45.09351" lon="5.54099">
        <ele>1335.481</ele>
        <time>2021-06-26T16:20:20Z</time>
      </trkpt>
      <trkpt lat="45.09351" lon="5.54098">
        <ele>1335.176</ele>
        <time>2021-06-26T16:20:25Z</time>
      </trkpt>
      <trkpt lat="45.09351" lon="5.54098">
        <ele>1335.171</ele>
        <time>2021-06-26T16:20:30Z</time>
      </trkpt>
      <trkpt lat="45.09351" lon="5.54098">
        <ele>1335.308</ele>
        <time>2021-06-26T16:20:35Z</time>
      </trkpt>
      <trkpt lat="45.09351" lon="5.54098">
        <ele>1335.335</ele>
        <time>2021-06-26T16:20:40Z</time>
      </trkpt>
      <trkpt lat="45.09351" lon="5.54098">
        <ele>1335.943</ele>
        <time>2021-06-26T16:20:45Z</time>
      </trkpt>
      <trkpt lat="45.09352" lon="5.54096">
        <ele>1335.422</ele>
        <time>2021-06-26T16:20:50Z</time>
      </trkpt>
      <trkpt lat="45.09352" lon="5.54096">
        <ele>1335.64</ele>
        <time>2021-06-26T16:20:55Z</time>
      </trkpt>
      <trkpt lat="45.09352" lon="5.54096">
        <ele>1335.631</ele>
        <time>2021-06-26T16:21:00Z</time>
      </trkpt>
      <trkpt lat="45.09352" lon="5.54096">
        <ele>1335.708</ele>
        <time>2021-06-26T16:21:05Z</time>
      </trkpt>
      <trkpt lat="45.09352" lon="5.54096">
        <ele>1335.813</ele>
        <time>2021-06-26T16:21:10Z</time>
      </trkpt>
      <trkpt lat="45.09352" lon="5.54098">
        <ele>1335.961</ele>
        <time>2021-06-26T16:21:15Z</time>
      </trkpt>
      <trkpt lat="45.09352" lon="5.54099">
        <ele>1335.934</ele>
        <time>2021-06-26T16:21:20Z</time>
      </trkpt>
      <trkpt lat="45.09359" lon="5.54111">
        <ele>1333.239</ele>
        <time>2021-06-26T16:21:25Z</time>
      </trkpt>
      <trkpt lat="45.09375" lon="5.54132">
        <ele>1331.216</ele>
        <time>2021-06-26T16:21:30Z</time>
      </trkpt>
      <trkpt lat="45.09393" lon="5.54155">
        <ele>1326.244</ele>
        <time>2021-06-26T16:21:35Z</time>
      </trkpt>
      <trkpt lat="45.09409" lon="5.54174">
        <ele>1323.909</ele>
        <time>2021-06-26T16:21:40Z</time>
      </trkpt>
      <trkpt lat="45.09427" lon="5.54185">
        <ele>1319.388</ele>
        <time>2021-06-26T16:21:45Z</time>
      </trkpt>
      <trkpt lat="45.0945" lon="5.54202">
        <ele>1312.962</ele>
        <time>2021-06-26T16:21:50Z</time>
      </trkpt>
      <trkpt lat="45.09483" lon="5.54205">
        <ele>1310.451</ele>
        <time>2021-06-26T16:21:55Z</time>
      </trkpt>
      <trkpt lat="45.09501" lon="5.54218">
        <ele>1305.492</ele>
        <time>2021-06-26T16:22:00Z</time>
      </trkpt>
      <trkpt lat="45.09503" lon="5.54237">
        <ele>1299.063</ele>
        <time>2021-06-26T16:22:05Z</time>
      </trkpt>
      <trkpt lat="45.09515" lon="5.5426">
        <ele>1291.913</ele>
        <time>2021-06-26T16:22:10Z</time>
      </trkpt>
      <trkpt lat="45.09514" lon="5.54282">
        <ele>1292.268</ele>
        <time>2021-06-26T16:22:15Z</time>
      </trkpt>
      <trkpt lat="45.09539" lon="5.54298">
        <ele>1290.813</ele>
        <time>2021-06-26T16:22:20Z</time>
      </trkpt>
      <trkpt lat="45.0956" lon="5.54308">
        <ele>1287.101</ele>
        <time>2021-06-26T16:22:25Z</time>
      </trkpt>
      <trkpt lat="45.09574" lon="5.5432">
        <ele>1279.968</ele>
        <time>2021-06-26T16:22:30Z</time>
      </trkpt>
      <trkpt lat="45.09596" lon="5.54333">
        <ele>1280.443</ele>
        <time>2021-06-26T16:22:35Z</time>
      </trkpt>
      <trkpt lat="45.09617" lon="5.54351">
        <ele>1276.85</ele>
        <time>2021-06-26T16:22:40Z</time>
      </trkpt>
      <trkpt lat="45.09632" lon="5.54367">
        <ele>1269.628</ele>
        <time>2021-06-26T16:22:45Z</time>
      </trkpt>
      <trkpt lat="45.09636" lon="5.54382">
        <ele>1263.632</ele>
        <time>2021-06-26T16:22:50Z</time>
      </trkpt>
      <trkpt lat="45.09642" lon="5.54403">
        <ele>1260.028</ele>
        <time>2021-06-26T16:22:55Z</time>
      </trkpt>
      <trkpt lat="45.09653" lon="5.54409">
        <ele>1258.454</ele>
        <time>2021-06-26T16:23:00Z</time>
      </trkpt>
      <trkpt lat="45.09647" lon="5.54419">
        <ele>1256.381</ele>
        <time>2021-06-26T16:23:05Z</time>
      </trkpt>
      <trkpt lat="45.09646" lon="5.54424">
        <ele>1257.782</ele>
        <time>2021-06-26T16:23:10Z</time>
      </trkpt>
      <trkpt lat="45.09646" lon="5.54422">
        <ele>1257.157</ele>
        <time>2021-06-26T16:23:15Z</time>
      </trkpt>
      <trkpt lat="45.09646" lon="5.54421">
        <ele>1256.639</ele>
        <time>2021-06-26T16:23:20Z</time>
      </trkpt>
      <trkpt lat="45.09646" lon="5.54421">
        <ele>1256.634</ele>
        <time>2021-06-26T16:23:25Z</time>
      </trkpt>
      <trkpt lat="45.09646" lon="5.54421">
        <ele>1256.629</ele>
        <time>2021-06-26T16:23:30Z</time>
      </trkpt>
      <trkpt lat="45.09646" lon="5.54421">
        <ele>1256.631</ele>
        <time>2021-06-26T16:23:35Z</time>
      </trkpt>
      <trkpt lat="45.09646" lon="5.54421">
        <ele>1256.618</ele>
        <time>2021-06-26T16:23:40Z</time>
      </trkpt>
      <trkpt lat="45.09646" lon="5.54421">
        <ele>1256.631</ele>
        <time>2021-06-26T16:23:45Z</time>
      </trkpt>
      <trkpt lat="45.09646" lon="5.54429">
        <ele>1255.443</ele>
        <time>2021-06-26T16:23:50Z</time>
      </trkpt>
      <trkpt lat="45.09648" lon="5.54468">
        <ele>1251.651</ele>
        <time>2021-06-26T16:23:55Z</time>
      </trkpt>
      <trkpt lat="45.09655" lon="5.54501">
        <ele>1241.663</ele>
        <time>2021-06-26T16:24:00Z</time>
      </trkpt>
      <trkpt lat="45.0965" lon="5.54528">
        <ele>1239.005</ele>
        <time>2021-06-26T16:24:05Z</time>
      </trkpt>
      <trkpt lat="45.0966" lon="5.54556">
        <ele>1233.728</ele>
        <time>2021-06-26T16:24:10Z</time>
      </trkpt>
      <trkpt lat="45.09663" lon="5.54585">
        <ele>1228.816</ele>
        <time>2021-06-26T16:24:15Z</time>
      </trkpt>
      <trkpt lat="45.09658" lon="5.54612">
        <ele>1221.619</ele>
        <time>2021-06-26T16:24:20Z</time>
      </trkpt>
      <trkpt lat="45.09667" lon="5.54618">
        <ele>1218.739</ele>
        <time>2021-06-26T16:24:25Z</time>
      </trkpt>
      <trkpt lat="45.09676" lon="5.54616">
        <ele>1217.303</ele>
        <time>2021-06-26T16:24:30Z</time>
      </trkpt>
      <trkpt lat="45.09686" lon="5.54617">
        <ele>1220.378</ele>
        <time>2021-06-26T16:24:35Z</time>
      </trkpt>
      <trkpt lat="45.09697" lon="5.54624">
        <ele>1218.642</ele>
        <time>2021-06-26T16:24:40Z</time>
      </trkpt>
      <trkpt lat="45.09701" lon="5.54646">
        <ele>1215.818</ele>
        <time>2021-06-26T16:24:45Z</time>
      </trkpt>
      <trkpt lat="45.09718" lon="5.54662">
        <ele>1211.583</ele>
        <time>2021-06-26T16:24:50Z</time>
      </trkpt>
      <trkpt lat="45.09736" lon="5.54673">
        <ele>1208.928</ele>
        <time>2021-06-26T16:24:55Z</time>
      </trkpt>
      <trkpt lat="45.0975" lon="5.54698">
        <ele>1205.217</ele>
        <time>2021-06-26T16:25:00Z</time>
      </trkpt>
      <trkpt lat="45.09764" lon="5.54706">
        <ele>1204.896</ele>
        <time>2021-06-26T16:25:05Z</time>
      </trkpt>
      <trkpt lat="45.09768" lon="5.54713">
        <ele>1191.906</ele>
        <time>2021-06-26T16:25:10Z</time>
      </trkpt>
      <trkpt lat="45.09784" lon="5.54732">
        <ele>1191.659</ele>
        <time>2021-06-26T16:25:15Z</time>
      </trkpt>
      <trkpt lat="45.09793" lon="5.5474">
        <ele>1189.481</ele>
        <time>2021-06-26T16:25:20Z</time>
      </trkpt>
      <trkpt lat="45.09799" lon="5.54764">
        <ele>1187.238</ele>
        <time>2021-06-26T16:25:25Z</time>
      </trkpt>
      <trkpt lat="45.09801" lon="5.54782">
        <ele>1183.302</ele>
        <time>2021-06-26T16:25:30Z</time>
      </trkpt>
      <trkpt lat="45.09777" lon="5.54807">
        <ele>1178.79</ele>
        <time>2021-06-26T16:25:35Z</time>
      </trkpt>
      <trkpt lat="45.09761" lon="5.54819">
        <ele>1174.065</ele>
        <time>2021-06-26T16:25:40Z</time>
      </trkpt>
      <trkpt lat="45.09735" lon="5.54835">
        <ele>1168.025</ele>
        <time>2021-06-26T16:25:45Z</time>
      </trkpt>
      <trkpt lat="45.09707" lon="5.54861">
        <ele>1165.235</ele>
        <time>2021-06-26T16:25:50Z</time>
      </trkpt>
      <trkpt lat="45.09695" lon="5.54875">
        <ele>1157.488</ele>
        <time>2021-06-26T16:25:55Z</time>
      </trkpt>
      <trkpt lat="45.09694" lon="5.54876">
        <ele>1157.904</ele>
        <time>2021-06-26T16:26:00Z</time>
      </trkpt>
      <trkpt lat="45.09694" lon="5.54877">
        <ele>1157.275</ele>
        <time>2021-06-26T16:26:05Z</time>
      </trkpt>
      <trkpt lat="45.09694" lon="5.54877">
        <ele>1156.858</ele>
        <time>2021-06-26T16:26:10Z</time>
      </trkpt>
      <trkpt lat="45.09694" lon="5.54878">
        <ele>1156.36</ele>
        <time>2021-06-26T16:26:15Z</time>
      </trkpt>
      <trkpt lat="45.09694" lon="5.54878">
        <ele>1156.336</ele>
        <time>2021-06-26T16:26:20Z</time>
      </trkpt>
      <trkpt lat="45.09694" lon="5.54878">
        <ele>1156.298</ele>
        <time>2021-06-26T16:26:25Z</time>
      </trkpt>
      <trkpt lat="45.09694" lon="5.54878">
        <ele>1156.302</ele>
        <time>2021-06-26T16:26:30Z</time>
      </trkpt>
      <trkpt lat="45.09694" lon="5.54878">
        <ele>1156.312</ele>
        <time>2021-06-26T16:26:35Z</time>
      </trkpt>
      <trkpt lat="45.09694" lon="5.54879">
        <ele>1156.299</ele>
        <time>2021-06-26T16:26:40Z</time>
      </trkpt>
      <trkpt lat="45.09694" lon="5.54879">
        <ele>1156.306</ele>
        <time>2021-06-26T16:26:45Z</time>
      </trkpt>
      <trkpt lat="45.09695" lon="5.54883">
        <ele>1152.914</ele>
        <time>2021-06-26T16:26:50Z</time>
      </trkpt>
      <trkpt lat="45.09707" lon="5.54892">
        <ele>1146.698</ele>
        <time>2021-06-26T16:26:55Z</time>
      </trkpt>
      <trkpt lat="45.09729" lon="5.54886">
        <ele>1141.935</ele>
        <time>2021-06-26T16:27:00Z</time>
      </trkpt>
      <trkpt lat="45.09738" lon="5.54902">
        <ele>1135.856</ele>
        <time>2021-06-26T16:27:05Z</time>
      </trkpt>
      <trkpt lat="45.09731" lon="5.54924">
        <ele>1134.555</ele>
        <time>2021-06-26T16:27:10Z</time>
      </trkpt>
      <trkpt lat="45.09723" lon="5.5494">
        <ele>1131.202</ele>
        <time>2021-06-26T16:27:15Z</time>
      </trkpt>
      <trkpt lat="45.09725" lon="5.54957">
        <ele>1128.237</ele>
        <time>2021-06-26T16:27:20Z</time>
      </trkpt>
      <trkpt lat="45.09733" lon="5.54975">
        <ele>1123.878</ele>
        <time>2021-06-26T16:27:25Z</time>
      </trkpt>
      <trkpt lat="45.09747" lon="5.54977">
        <ele>1118.923</ele>
        <time>2021-06-26T16:27:30Z</time>
      </trkpt>
      <trkpt lat="45.09767" lon="5.54972">
        <ele>1115.681</ele>
        <time>2021-06-26T16:27:35Z</time>
      </trkpt>
      <trkpt lat="45.09784" lon="5.54988">
        <ele>1112.185</ele>
        <time>2021-06-26T16:27:40Z</time>
      </trkpt>
      <trkpt lat="45.09773" lon="5.54992">
        <ele>1106.437</ele>
        <time>2021-06-26T16:27:45Z</time>
      </trkpt>
      <trkpt lat="45.09769" lon="5.55009">
        <ele>1104.394</ele>
        <time>2021-06-26T16:27:50Z</time>
      </trkpt>
      <trkpt lat="45.09786" lon="5.55024">
        <ele>1098.943</ele>
        <time>2021-06-26T16:27:55Z</time>
      </trkpt>
      <trkpt lat="45.09789" lon="5.55043">
        <ele>1097.752</ele>
        <time>2021-06-26T16:28:00Z</time>
      </trkpt>
      <trkpt lat="45.09771" lon="5.55072">
        <ele>1095.673</ele>
        <time>2021-06-26T16:28:05Z</time>
      </trkpt>
      <trkpt lat="45.09775" lon="5.55106">
        <ele>1094.295</ele>
        <time>2021-06-26T16:28:10Z</time>
      </trkpt>
      <trkpt lat="45.09764" lon="5.55133">
        <ele>1091.52</ele>
        <time>2021-06-26T16:28:15Z</time>
      </trkpt>
      <trkpt lat="45.09771" lon="5.55137">
        <ele>1088.504</ele>
        <time>2021-06-26T16:28:20Z</time>
      </trkpt>
      <trkpt lat="45.09768" lon="5.55158">
        <ele>1086.523</ele>
        <time>2021-06-26T16:28:25Z</time>
      </trkpt>
      <trkpt lat="45.09764" lon="5.55177">
        <ele>1083.531</ele>
        <time>2021-06-26T16:28:30Z</time>
      </trkpt>
      <trkpt lat="45.09775" lon="5.55179">
        <ele>1077.998</ele>
        <time>2021-06-26T16:28:35Z</time>
      </trkpt>
      <trkpt lat="45.0978" lon="5.55207">
        <ele>1073.319</ele>
        <time>2021-06-26T16:28:40Z</time>
      </trkpt>
      <trkpt lat="45.09791" lon="5.55206">
        <ele>1069.461</ele>
        <time>2021-06-26T16:28:45Z</time>
      </trkpt>
      <trkpt lat="45.09801" lon="5.55227">
        <ele>1068.313</ele>
        <time>2021-06-26T16:28:50Z</time>
      </trkpt>
      <trkpt lat="45.09808" lon="5.55236">
        <ele>1063.24</ele>
        <time>2021-06-26T16:28:55Z</time>
      </trkpt>
      <trkpt lat="45.09805" lon="5.55253">
        <ele>1063.986</ele>
        <time>2021-06-26T16:29:00Z</time>
      </trkpt>
      <trkpt lat="45.09795" lon="5.55266">
        <ele>1061.163</ele>
        <time>2021-06-26T16:29:04Z</time>
      </trkpt>
      <trkpt lat="45.09802" lon="5.55289">
        <ele>1056.705</ele>
        <time>2021-06-26T16:29:10Z</time>
      </trkpt>
      <trkpt lat="45.09793" lon="5.55306">
        <ele>1053.977</ele>
        <time>2021-06-26T16:29:15Z</time>
      </trkpt>
      <trkpt lat="45.09785" lon="5.55336">
        <ele>1050.777</ele>
        <time>2021-06-26T16:29:20Z</time>
      </trkpt>
      <trkpt lat="45.09784" lon="5.5537">
        <ele>1043.799</ele>
        <time>2021-06-26T16:29:25Z</time>
      </trkpt>
      <trkpt lat="45.09785" lon="5.55386">
        <ele>1041.359</ele>
        <time>2021-06-26T16:29:30Z</time>
      </trkpt>
      <trkpt lat="45.09785" lon="5.55387">
        <ele>1041.175</ele>
        <time>2021-06-26T16:29:35Z</time>
      </trkpt>
      <trkpt lat="45.09785" lon="5.55388">
        <ele>1041.18</ele>
        <time>2021-06-26T16:29:40Z</time>
      </trkpt>
      <trkpt lat="45.09785" lon="5.55388">
        <ele>1041.191</ele>
        <time>2021-06-26T16:29:45Z</time>
      </trkpt>
      <trkpt lat="45.09785" lon="5.55388">
        <ele>1041.183</ele>
        <time>2021-06-26T16:29:50Z</time>
      </trkpt>
      <trkpt lat="45.09786" lon="5.55395">
        <ele>1038.445</ele>
        <time>2021-06-26T16:29:55Z</time>
      </trkpt>
      <trkpt lat="45.09791" lon="5.55408">
        <ele>1038.621</ele>
        <time>2021-06-26T16:30:00Z</time>
      </trkpt>
      <trkpt lat="45.09801" lon="5.55423">
        <ele>1035.461</ele>
        <time>2021-06-26T16:30:05Z</time>
      </trkpt>
      <trkpt lat="45.09815" lon="5.55443">
        <ele>1033.477</ele>
        <time>2021-06-26T16:30:10Z</time>
      </trkpt>
      <trkpt lat="45.09831" lon="5.55446">
        <ele>1032.282</ele>
        <time>2021-06-26T16:30:15Z</time>
      </trkpt>
      <trkpt lat="45.09848" lon="5.55451">
        <ele>1031.969</ele>
        <time>2021-06-26T16:30:20Z</time>
      </trkpt>
      <trkpt lat="45.09861" lon="5.5548">
        <ele>1030.87</ele>
        <time>2021-06-26T16:30:25Z</time>
      </trkpt>
      <trkpt lat="45.09871" lon="5.55516">
        <ele>1029.812</ele>
        <time>2021-06-26T16:30:30Z</time>
      </trkpt>
      <trkpt lat="45.09869" lon="5.55555">
        <ele>1029.395</ele>
        <time>2021-06-26T16:30:35Z</time>
      </trkpt>
      <trkpt lat="45.09868" lon="5.55596">
        <ele>1026.701</ele>
        <time>2021-06-26T16:30:40Z</time>
      </trkpt>
      <trkpt lat="45.09865" lon="5.55637">
        <ele>1023.212</ele>
        <time>2021-06-26T16:30:45Z</time>
      </trkpt>
      <trkpt lat="45.09878" lon="5.55674">
        <ele>1018.037</ele>
        <time>2021-06-26T16:30:50Z</time>
      </trkpt>
      <trkpt lat="45.09862" lon="5.55713">
        <ele>1013.808</ele>
        <time>2021-06-26T16:30:55Z</time>
      </trkpt>
      <trkpt lat="45.09831" lon="5.55735">
        <ele>1010.82</ele>
        <time>2021-06-26T16:31:00Z</time>
      </trkpt>
      <trkpt lat="45.09848" lon="5.55777">
        <ele>1004.055</ele>
        <time>2021-06-26T16:31:05Z</time>
      </trkpt>
      <trkpt lat="45.09886" lon="5.55816">
        <ele>998.131</ele>
        <time>2021-06-26T16:31:10Z</time>
      </trkpt>
      <trkpt lat="45.09924" lon="5.55844">
        <ele>994.538</ele>
        <time>2021-06-26T16:31:15Z</time>
      </trkpt>
      <trkpt lat="45.09956" lon="5.55879">
        <ele>993.073</ele>
        <time>2021-06-26T16:31:20Z</time>
      </trkpt>
      <trkpt lat="45.09984" lon="5.55914">
        <ele>992.464</ele>
        <time>2021-06-26T16:31:25Z</time>
      </trkpt>
      <trkpt lat="45.10009" lon="5.55944">
        <ele>993.696</ele>
        <time>2021-06-26T16:31:30Z</time>
      </trkpt>
      <trkpt lat="45.1003" lon="5.55973">
        <ele>993.918</ele>
        <time>2021-06-26T16:31:35Z</time>
      </trkpt>
      <trkpt lat="45.1005" lon="5.55998">
        <ele>995.143</ele>
        <time>2021-06-26T16:31:40Z</time>
      </trkpt>
      <trkpt lat="45.10053" lon="5.56034">
        <ele>993.11</ele>
        <time>2021-06-26T16:31:45Z</time>
      </trkpt>
      <trkpt lat="45.10063" lon="5.56075">
        <ele>993.507</ele>
        <time>2021-06-26T16:31:50Z</time>
      </trkpt>
      <trkpt lat="45.1007" lon="5.56115">
        <ele>993.94</ele>
        <time>2021-06-26T16:31:55Z</time>
      </trkpt>
      <trkpt lat="45.10072" lon="5.56149">
        <ele>995.065</ele>
        <time>2021-06-26T16:32:00Z</time>
      </trkpt>
      <trkpt lat="45.10077" lon="5.56182">
        <ele>994.798</ele>
        <time>2021-06-26T16:32:05Z</time>
      </trkpt>
      <trkpt lat="45.10089" lon="5.5622">
        <ele>993.939</ele>
        <time>2021-06-26T16:32:10Z</time>
      </trkpt>
      <trkpt lat="45.10099" lon="5.56255">
        <ele>994.209</ele>
        <time>2021-06-26T16:32:15Z</time>
      </trkpt>
      <trkpt lat="45.10101" lon="5.56284">
        <ele>996.368</ele>
        <time>2021-06-26T16:32:20Z</time>
      </trkpt>
      <trkpt lat="45.101" lon="5.56305">
        <ele>997.029</ele>
        <time>2021-06-26T16:32:25Z</time>
      </trkpt>
      <trkpt lat="45.10113" lon="5.56324">
        <ele>997.004</ele>
        <time>2021-06-26T16:32:30Z</time>
      </trkpt>
      <trkpt lat="45.1013" lon="5.5634">
        <ele>997.033</ele>
        <time>2021-06-26T16:32:35Z</time>
      </trkpt>
      <trkpt lat="45.10147" lon="5.56356">
        <ele>998.15</ele>
        <time>2021-06-26T16:32:40Z</time>
      </trkpt>
      <trkpt lat="45.10162" lon="5.56369">
        <ele>998.339</ele>
        <time>2021-06-26T16:32:45Z</time>
      </trkpt>
      <trkpt lat="45.10177" lon="5.56382">
        <ele>998.6</ele>
        <time>2021-06-26T16:32:50Z</time>
      </trkpt>
      <trkpt lat="45.10191" lon="5.56395">
        <ele>999.165</ele>
        <time>2021-06-26T16:32:55Z</time>
      </trkpt>
      <trkpt lat="45.10206" lon="5.5641">
        <ele>999.661</ele>
        <time>2021-06-26T16:33:00Z</time>
      </trkpt>
      <trkpt lat="45.10222" lon="5.56425">
        <ele>999.452</ele>
        <time>2021-06-26T16:33:05Z</time>
      </trkpt>
      <trkpt lat="45.10238" lon="5.56442">
        <ele>998.603</ele>
        <time>2021-06-26T16:33:10Z</time>
      </trkpt>
      <trkpt lat="45.10259" lon="5.56458">
        <ele>998.812</ele>
        <time>2021-06-26T16:33:15Z</time>
      </trkpt>
      <trkpt lat="45.1028" lon="5.56475">
        <ele>998.956</ele>
        <time>2021-06-26T16:33:20Z</time>
      </trkpt>
      <trkpt lat="45.10301" lon="5.56493">
        <ele>999.289</ele>
        <time>2021-06-26T16:33:25Z</time>
      </trkpt>
      <trkpt lat="45.10323" lon="5.56513">
        <ele>999.168</ele>
        <time>2021-06-26T16:33:30Z</time>
      </trkpt>
      <trkpt lat="45.10345" lon="5.56532">
        <ele>994.913</ele>
        <time>2021-06-26T16:33:35Z</time>
      </trkpt>
      <trkpt lat="45.10368" lon="5.56554">
        <ele>996.193</ele>
        <time>2021-06-26T16:33:40Z</time>
      </trkpt>
      <trkpt lat="45.10392" lon="5.56576">
        <ele>997.418</ele>
        <time>2021-06-26T16:33:45Z</time>
      </trkpt>
      <trkpt lat="45.10414" lon="5.56594">
        <ele>995.853</ele>
        <time>2021-06-26T16:33:50Z</time>
      </trkpt>
      <trkpt lat="45.10436" lon="5.56614">
        <ele>996.221</ele>
        <time>2021-06-26T16:33:55Z</time>
      </trkpt>
      <trkpt lat="45.10457" lon="5.56634">
        <ele>997.068</ele>
        <time>2021-06-26T16:34:00Z</time>
      </trkpt>
      <trkpt lat="45.10478" lon="5.56656">
        <ele>998.491</ele>
        <time>2021-06-26T16:34:05Z</time>
      </trkpt>
      <trkpt lat="45.10501" lon="5.56679">
        <ele>999.112</ele>
        <time>2021-06-26T16:34:10Z</time>
      </trkpt>
      <trkpt lat="45.10522" lon="5.56702">
        <ele>998.871</ele>
        <time>2021-06-26T16:34:15Z</time>
      </trkpt>
      <trkpt lat="45.10541" lon="5.56725">
        <ele>998.665</ele>
        <time>2021-06-26T16:34:20Z</time>
      </trkpt>
      <trkpt lat="45.10561" lon="5.56747">
        <ele>998.408</ele>
        <time>2021-06-26T16:34:25Z</time>
      </trkpt>
      <trkpt lat="45.10581" lon="5.56769">
        <ele>997.9</ele>
        <time>2021-06-26T16:34:30Z</time>
      </trkpt>
      <trkpt lat="45.106" lon="5.5679">
        <ele>998.078</ele>
        <time>2021-06-26T16:34:35Z</time>
      </trkpt>
      <trkpt lat="45.10619" lon="5.56813">
        <ele>998.275</ele>
        <time>2021-06-26T16:34:40Z</time>
      </trkpt>
      <trkpt lat="45.10638" lon="5.56835">
        <ele>998.56</ele>
        <time>2021-06-26T16:34:45Z</time>
      </trkpt>
      <trkpt lat="45.10658" lon="5.56858">
        <ele>999.179</ele>
        <time>2021-06-26T16:34:50Z</time>
      </trkpt>
      <trkpt lat="45.10678" lon="5.5688">
        <ele>999.905</ele>
        <time>2021-06-26T16:34:55Z</time>
      </trkpt>
      <trkpt lat="45.10697" lon="5.56902">
        <ele>999.264</ele>
        <time>2021-06-26T16:35:00Z</time>
      </trkpt>
      <trkpt lat="45.10715" lon="5.56925">
        <ele>998.781</ele>
        <time>2021-06-26T16:35:05Z</time>
      </trkpt>
      <trkpt lat="45.10734" lon="5.56947">
        <ele>998.852</ele>
        <time>2021-06-26T16:35:10Z</time>
      </trkpt>
      <trkpt lat="45.10752" lon="5.56969">
        <ele>998.63</ele>
        <time>2021-06-26T16:35:15Z</time>
      </trkpt>
      <trkpt lat="45.1077" lon="5.56991">
        <ele>998.03</ele>
        <time>2021-06-26T16:35:20Z</time>
      </trkpt>
      <trkpt lat="45.10788" lon="5.57013">
        <ele>998.324</ele>
        <time>2021-06-26T16:35:25Z</time>
      </trkpt>
      <trkpt lat="45.10805" lon="5.57035">
        <ele>998.41</ele>
        <time>2021-06-26T16:35:30Z</time>
      </trkpt>
      <trkpt lat="45.10824" lon="5.57056">
        <ele>999.174</ele>
        <time>2021-06-26T16:35:35Z</time>
      </trkpt>
      <trkpt lat="45.10843" lon="5.57077">
        <ele>999.073</ele>
        <time>2021-06-26T16:35:40Z</time>
      </trkpt>
      <trkpt lat="45.10863" lon="5.57099">
        <ele>999.247</ele>
        <time>2021-06-26T16:35:45Z</time>
      </trkpt>
      <trkpt lat="45.10882" lon="5.57121">
        <ele>999.65</ele>
        <time>2021-06-26T16:35:50Z</time>
      </trkpt>
      <trkpt lat="45.109" lon="5.57143">
        <ele>999.264</ele>
        <time>2021-06-26T16:35:55Z</time>
      </trkpt>
      <trkpt lat="45.10915" lon="5.5716">
        <ele>999.405</ele>
        <time>2021-06-26T16:36:00Z</time>
      </trkpt>
      <trkpt lat="45.10934" lon="5.57183">
        <ele>999.645</ele>
        <time>2021-06-26T16:36:05Z</time>
      </trkpt>
      <trkpt lat="45.10954" lon="5.57205">
        <ele>1000.001</ele>
        <time>2021-06-26T16:36:10Z</time>
      </trkpt>
      <trkpt lat="45.10974" lon="5.57226">
        <ele>1000.559</ele>
        <time>2021-06-26T16:36:15Z</time>
      </trkpt>
      <trkpt lat="45.10992" lon="5.57249">
        <ele>1000.404</ele>
        <time>2021-06-26T16:36:20Z</time>
      </trkpt>
      <trkpt lat="45.1101" lon="5.5727">
        <ele>1001.135</ele>
        <time>2021-06-26T16:36:25Z</time>
      </trkpt>
      <trkpt lat="45.11027" lon="5.57291">
        <ele>1001.237</ele>
        <time>2021-06-26T16:36:30Z</time>
      </trkpt>
      <trkpt lat="45.11045" lon="5.57311">
        <ele>1000.831</ele>
        <time>2021-06-26T16:36:35Z</time>
      </trkpt>
      <trkpt lat="45.11063" lon="5.57332">
        <ele>1001.603</ele>
        <time>2021-06-26T16:36:40Z</time>
      </trkpt>
      <trkpt lat="45.11081" lon="5.57353">
        <ele>1002.836</ele>
        <time>2021-06-26T16:36:45Z</time>
      </trkpt>
      <trkpt lat="45.11099" lon="5.57374">
        <ele>1003.275</ele>
        <time>2021-06-26T16:36:50Z</time>
      </trkpt>
      <trkpt lat="45.11117" lon="5.57392">
        <ele>1003.232</ele>
        <time>2021-06-26T16:36:55Z</time>
      </trkpt>
      <trkpt lat="45.11136" lon="5.57409">
        <ele>1000.548</ele>
        <time>2021-06-26T16:37:00Z</time>
      </trkpt>
      <trkpt lat="45.11156" lon="5.57425">
        <ele>1000.346</ele>
        <time>2021-06-26T16:37:05Z</time>
      </trkpt>
      <trkpt lat="45.11177" lon="5.57439">
        <ele>1000.613</ele>
        <time>2021-06-26T16:37:10Z</time>
      </trkpt>
      <trkpt lat="45.11199" lon="5.57455">
        <ele>1000.609</ele>
        <time>2021-06-26T16:37:15Z</time>
      </trkpt>
      <trkpt lat="45.1122" lon="5.57469">
        <ele>1001.338</ele>
        <time>2021-06-26T16:37:20Z</time>
      </trkpt>
      <trkpt lat="45.11243" lon="5.57484">
        <ele>1001.593</ele>
        <time>2021-06-26T16:37:25Z</time>
      </trkpt>
      <trkpt lat="45.11266" lon="5.575">
        <ele>1001.907</ele>
        <time>2021-06-26T16:37:30Z</time>
      </trkpt>
      <trkpt lat="45.11289" lon="5.57516">
        <ele>1001.832</ele>
        <time>2021-06-26T16:37:35Z</time>
      </trkpt>
      <trkpt lat="45.11312" lon="5.57532">
        <ele>1002.221</ele>
        <time>2021-06-26T16:37:40Z</time>
      </trkpt>
      <trkpt lat="45.11335" lon="5.57547">
        <ele>1002.142</ele>
        <time>2021-06-26T16:37:45Z</time>
      </trkpt>
      <trkpt lat="45.11358" lon="5.57564">
        <ele>1002.095</ele>
        <time>2021-06-26T16:37:50Z</time>
      </trkpt>
      <trkpt lat="45.11382" lon="5.5758">
        <ele>1002.18</ele>
        <time>2021-06-26T16:37:55Z</time>
      </trkpt>
      <trkpt lat="45.11404" lon="5.57596">
        <ele>1002.213</ele>
        <time>2021-06-26T16:38:00Z</time>
      </trkpt>
      <trkpt lat="45.11425" lon="5.57612">
        <ele>1002.803</ele>
        <time>2021-06-26T16:38:05Z</time>
      </trkpt>
      <trkpt lat="45.11447" lon="5.57627">
        <ele>1002.815</ele>
        <time>2021-06-26T16:38:10Z</time>
      </trkpt>
      <trkpt lat="45.1147" lon="5.57643">
        <ele>1002.964</ele>
        <time>2021-06-26T16:38:15Z</time>
      </trkpt>
      <trkpt lat="45.11495" lon="5.57658">
        <ele>1002.769</ele>
        <time>2021-06-26T16:38:20Z</time>
      </trkpt>
      <trkpt lat="45.11518" lon="5.57674">
        <ele>1003.217</ele>
        <time>2021-06-26T16:38:25Z</time>
      </trkpt>
      <trkpt lat="45.11541" lon="5.57689">
        <ele>1003.596</ele>
        <time>2021-06-26T16:38:30Z</time>
      </trkpt>
      <trkpt lat="45.11563" lon="5.57705">
        <ele>1003.564</ele>
        <time>2021-06-26T16:38:35Z</time>
      </trkpt>
      <trkpt lat="45.11585" lon="5.5772">
        <ele>1003.861</ele>
        <time>2021-06-26T16:38:40Z</time>
      </trkpt>
      <trkpt lat="45.11608" lon="5.57736">
        <ele>1003.474</ele>
        <time>2021-06-26T16:38:45Z</time>
      </trkpt>
      <trkpt lat="45.1163" lon="5.57751">
        <ele>1003.619</ele>
        <time>2021-06-26T16:38:50Z</time>
      </trkpt>
      <trkpt lat="45.11651" lon="5.57766">
        <ele>1003.602</ele>
        <time>2021-06-26T16:38:55Z</time>
      </trkpt>
      <trkpt lat="45.11673" lon="5.57781">
        <ele>1003.677</ele>
        <time>2021-06-26T16:39:00Z</time>
      </trkpt>
      <trkpt lat="45.11695" lon="5.57796">
        <ele>1003.846</ele>
        <time>2021-06-26T16:39:05Z</time>
      </trkpt>
      <trkpt lat="45.11717" lon="5.57812">
        <ele>1004.774</ele>
        <time>2021-06-26T16:39:10Z</time>
      </trkpt>
      <trkpt lat="45.11741" lon="5.57829">
        <ele>1004.948</ele>
        <time>2021-06-26T16:39:15Z</time>
      </trkpt>
      <trkpt lat="45.11764" lon="5.57845">
        <ele>1005.077</ele>
        <time>2021-06-26T16:39:20Z</time>
      </trkpt>
      <trkpt lat="45.11787" lon="5.57861">
        <ele>1005.413</ele>
        <time>2021-06-26T16:39:25Z</time>
      </trkpt>
      <trkpt lat="45.11811" lon="5.57877">
        <ele>1004.948</ele>
        <time>2021-06-26T16:39:30Z</time>
      </trkpt>
      <trkpt lat="45.11834" lon="5.57894">
        <ele>1005.317</ele>
        <time>2021-06-26T16:39:35Z</time>
      </trkpt>
      <trkpt lat="45.11858" lon="5.5791">
        <ele>1005.391</ele>
        <time>2021-06-26T16:39:40Z</time>
      </trkpt>
      <trkpt lat="45.11882" lon="5.57926">
        <ele>1005.74</ele>
        <time>2021-06-26T16:39:45Z</time>
      </trkpt>
      <trkpt lat="45.11904" lon="5.57942">
        <ele>1005.968</ele>
        <time>2021-06-26T16:39:50Z</time>
      </trkpt>
      <trkpt lat="45.11927" lon="5.57958">
        <ele>1006.601</ele>
        <time>2021-06-26T16:39:55Z</time>
      </trkpt>
      <trkpt lat="45.11949" lon="5.57974">
        <ele>1006.832</ele>
        <time>2021-06-26T16:40:00Z</time>
      </trkpt>
      <trkpt lat="45.11973" lon="5.5799">
        <ele>1007.04</ele>
        <time>2021-06-26T16:40:05Z</time>
      </trkpt>
      <trkpt lat="45.11996" lon="5.58005">
        <ele>1007.601</ele>
        <time>2021-06-26T16:40:10Z</time>
      </trkpt>
      <trkpt lat="45.12018" lon="5.58017">
        <ele>1007.615</ele>
        <time>2021-06-26T16:40:15Z</time>
      </trkpt>
      <trkpt lat="45.12042" lon="5.58028">
        <ele>1007.234</ele>
        <time>2021-06-26T16:40:20Z</time>
      </trkpt>
      <trkpt lat="45.12067" lon="5.58039">
        <ele>1007.527</ele>
        <time>2021-06-26T16:40:25Z</time>
      </trkpt>
      <trkpt lat="45.1209" lon="5.58047">
        <ele>1007.271</ele>
        <time>2021-06-26T16:40:30Z</time>
      </trkpt>
      <trkpt lat="45.12113" lon="5.58055">
        <ele>1007.925</ele>
        <time>2021-06-26T16:40:35Z</time>
      </trkpt>
      <trkpt lat="45.12136" lon="5.58064">
        <ele>1008.306</ele>
        <time>2021-06-26T16:40:40Z</time>
      </trkpt>
      <trkpt lat="45.12161" lon="5.58071">
        <ele>1008.38</ele>
        <time>2021-06-26T16:40:45Z</time>
      </trkpt>
      <trkpt lat="45.12185" lon="5.5808">
        <ele>1008.572</ele>
        <time>2021-06-26T16:40:50Z</time>
      </trkpt>
      <trkpt lat="45.12209" lon="5.58088">
        <ele>1008.446</ele>
        <time>2021-06-26T16:40:55Z</time>
      </trkpt>
      <trkpt lat="45.12233" lon="5.58096">
        <ele>1008.061</ele>
        <time>2021-06-26T16:41:00Z</time>
      </trkpt>
      <trkpt lat="45.12257" lon="5.58104">
        <ele>1008.307</ele>
        <time>2021-06-26T16:41:05Z</time>
      </trkpt>
      <trkpt lat="45.12281" lon="5.58112">
        <ele>1008.63</ele>
        <time>2021-06-26T16:41:10Z</time>
      </trkpt>
      <trkpt lat="45.12306" lon="5.5812">
        <ele>1009.082</ele>
        <time>2021-06-26T16:41:15Z</time>
      </trkpt>
      <trkpt lat="45.1233" lon="5.58128">
        <ele>1008.495</ele>
        <time>2021-06-26T16:41:20Z</time>
      </trkpt>
      <trkpt lat="45.12355" lon="5.58136">
        <ele>1008.833</ele>
        <time>2021-06-26T16:41:25Z</time>
      </trkpt>
      <trkpt lat="45.1238" lon="5.58145">
        <ele>1008.711</ele>
        <time>2021-06-26T16:41:30Z</time>
      </trkpt>
      <trkpt lat="45.12405" lon="5.58153">
        <ele>1008.713</ele>
        <time>2021-06-26T16:41:35Z</time>
      </trkpt>
      <trkpt lat="45.12428" lon="5.58161">
        <ele>1008.105</ele>
        <time>2021-06-26T16:41:40Z</time>
      </trkpt>
      <trkpt lat="45.1245" lon="5.58167">
        <ele>1008.148</ele>
        <time>2021-06-26T16:41:45Z</time>
      </trkpt>
      <trkpt lat="45.12471" lon="5.58174">
        <ele>1008.223</ele>
        <time>2021-06-26T16:41:50Z</time>
      </trkpt>
      <trkpt lat="45.1249" lon="5.5818">
        <ele>1008.336</ele>
        <time>2021-06-26T16:41:55Z</time>
      </trkpt>
      <trkpt lat="45.12509" lon="5.58187">
        <ele>1009.411</ele>
        <time>2021-06-26T16:42:00Z</time>
      </trkpt>
      <trkpt lat="45.12527" lon="5.58194">
        <ele>1010.234</ele>
        <time>2021-06-26T16:42:05Z</time>
      </trkpt>
      <trkpt lat="45.12544" lon="5.58202">
        <ele>1010.129</ele>
        <time>2021-06-26T16:42:10Z</time>
      </trkpt>
      <trkpt lat="45.12563" lon="5.58209">
        <ele>1010.003</ele>
        <time>2021-06-26T16:42:15Z</time>
      </trkpt>
      <trkpt lat="45.12582" lon="5.58214">
        <ele>1009.852</ele>
        <time>2021-06-26T16:42:20Z</time>
      </trkpt>
      <trkpt lat="45.12602" lon="5.58221">
        <ele>1010.365</ele>
        <time>2021-06-26T16:42:25Z</time>
      </trkpt>
      <trkpt lat="45.12621" lon="5.58227">
        <ele>1010.997</ele>
        <time>2021-06-26T16:42:30Z</time>
      </trkpt>
      <trkpt lat="45.1264" lon="5.58234">
        <ele>1012.044</ele>
        <time>2021-06-26T16:42:35Z</time>
      </trkpt>
      <trkpt lat="45.12658" lon="5.58239">
        <ele>1011.977</ele>
        <time>2021-06-26T16:42:40Z</time>
      </trkpt>
      <trkpt lat="45.12679" lon="5.58245">
        <ele>1012.233</ele>
        <time>2021-06-26T16:42:45Z</time>
      </trkpt>
      <trkpt lat="45.12701" lon="5.58253">
        <ele>1011.879</ele>
        <time>2021-06-26T16:42:50Z</time>
      </trkpt>
      <trkpt lat="45.12722" lon="5.58261">
        <ele>1012.578</ele>
        <time>2021-06-26T16:42:55Z</time>
      </trkpt>
      <trkpt lat="45.12744" lon="5.58267">
        <ele>1012.472</ele>
        <time>2021-06-26T16:43:00Z</time>
      </trkpt>
      <trkpt lat="45.12766" lon="5.58274">
        <ele>1012.111</ele>
        <time>2021-06-26T16:43:05Z</time>
      </trkpt>
      <trkpt lat="45.12788" lon="5.5828">
        <ele>1011.407</ele>
        <time>2021-06-26T16:43:10Z</time>
      </trkpt>
      <trkpt lat="45.12808" lon="5.58286">
        <ele>1012.675</ele>
        <time>2021-06-26T16:43:15Z</time>
      </trkpt>
      <trkpt lat="45.12829" lon="5.58292">
        <ele>1011.749</ele>
        <time>2021-06-26T16:43:20Z</time>
      </trkpt>
      <trkpt lat="45.12849" lon="5.58295">
        <ele>1012.009</ele>
        <time>2021-06-26T16:43:25Z</time>
      </trkpt>
      <trkpt lat="45.1287" lon="5.58298">
        <ele>1012.643</ele>
        <time>2021-06-26T16:43:30Z</time>
      </trkpt>
      <trkpt lat="45.12891" lon="5.58298">
        <ele>1011.75</ele>
        <time>2021-06-26T16:43:35Z</time>
      </trkpt>
      <trkpt lat="45.12913" lon="5.583">
        <ele>1011.573</ele>
        <time>2021-06-26T16:43:40Z</time>
      </trkpt>
      <trkpt lat="45.12933" lon="5.58309">
        <ele>1012.763</ele>
        <time>2021-06-26T16:43:45Z</time>
      </trkpt>
      <trkpt lat="45.1295" lon="5.58325">
        <ele>1012.167</ele>
        <time>2021-06-26T16:43:50Z</time>
      </trkpt>
      <trkpt lat="45.12966" lon="5.58335">
        <ele>1011.99</ele>
        <time>2021-06-26T16:43:55Z</time>
      </trkpt>
      <trkpt lat="45.12973" lon="5.58351">
        <ele>1008.967</ele>
        <time>2021-06-26T16:44:00Z</time>
      </trkpt>
      <trkpt lat="45.12967" lon="5.5837">
        <ele>1010.362</ele>
        <time>2021-06-26T16:44:05Z</time>
      </trkpt>
      <trkpt lat="45.12959" lon="5.58395">
        <ele>1009.462</ele>
        <time>2021-06-26T16:44:10Z</time>
      </trkpt>
      <trkpt lat="45.12952" lon="5.58418">
        <ele>1009.877</ele>
        <time>2021-06-26T16:44:15Z</time>
      </trkpt>
      <trkpt lat="45.12937" lon="5.58424">
        <ele>1010.8</ele>
        <time>2021-06-26T16:44:20Z</time>
      </trkpt>
      <trkpt lat="45.12929" lon="5.58447">
        <ele>1012.391</ele>
        <time>2021-06-26T16:44:25Z</time>
      </trkpt>
      <trkpt lat="45.12923" lon="5.58471">
        <ele>1011.289</ele>
        <time>2021-06-26T16:44:30Z</time>
      </trkpt>
      <trkpt lat="45.12921" lon="5.58492">
        <ele>1013.869</ele>
        <time>2021-06-26T16:44:35Z</time>
      </trkpt>
      <trkpt lat="45.1292" lon="5.58504">
        <ele>1014.539</ele>
        <time>2021-06-26T16:44:40Z</time>
      </trkpt>
      <trkpt lat="45.1292" lon="5.58507">
        <ele>1014.813</ele>
        <time>2021-06-26T16:44:45Z</time>
      </trkpt>
      <trkpt lat="45.12924" lon="5.58512">
        <ele>1015.384</ele>
        <time>2021-06-26T16:44:50Z</time>
      </trkpt>
      <trkpt lat="45.12925" lon="5.58509">
        <ele>1015.678</ele>
        <time>2021-06-26T16:44:55Z</time>
      </trkpt>
      <trkpt lat="45.12926" lon="5.58513">
        <ele>1015.7</ele>
        <time>2021-06-26T16:45:00Z</time>
      </trkpt>
      <trkpt lat="45.12925" lon="5.58512">
        <ele>1014.959</ele>
        <time>2021-06-26T16:45:05Z</time>
      </trkpt>
      <trkpt lat="45.12925" lon="5.58512">
        <ele>1014.56</ele>
        <time>2021-06-26T16:45:10Z</time>
      </trkpt>
      <trkpt lat="45.12925" lon="5.58512">
        <ele>1014.564</ele>
        <time>2021-06-26T16:45:15Z</time>
      </trkpt>
      <trkpt lat="45.12924" lon="5.58512">
        <ele>1013.67</ele>
        <time>2021-06-26T16:45:20Z</time>
      </trkpt>
      <trkpt lat="45.12923" lon="5.58512">
        <ele>1013.771</ele>
        <time>2021-06-26T16:45:25Z</time>
      </trkpt>
      <trkpt lat="45.12923" lon="5.58512">
        <ele>1013.344</ele>
        <time>2021-06-26T16:45:30Z</time>
      </trkpt>
      <trkpt lat="45.12922" lon="5.58511">
        <ele>1012.857</ele>
        <time>2021-06-26T16:45:35Z</time>
      </trkpt>
      <trkpt lat="45.12922" lon="5.58511">
        <ele>1012.857</ele>
        <time>2021-06-26T16:45:40Z</time>
      </trkpt>
      <trkpt lat="45.12922" lon="5.58511">
        <ele>1012.863</ele>
        <time>2021-06-26T16:45:45Z</time>
      </trkpt>
      <trkpt lat="45.12921" lon="5.5851">
        <ele>1012.392</ele>
        <time>2021-06-26T16:45:50Z</time>
      </trkpt>
      <trkpt lat="45.1292" lon="5.5851">
        <ele>1012.143</ele>
        <time>2021-06-26T16:45:55Z</time>
      </trkpt>
      <trkpt lat="45.12921" lon="5.58516">
        <ele>1012.977</ele>
        <time>2021-06-26T16:46:00Z</time>
      </trkpt>
      <trkpt lat="45.12921" lon="5.58516">
        <ele>1013.225</ele>
        <time>2021-06-26T16:46:05Z</time>
      </trkpt>
      <trkpt lat="45.12921" lon="5.58512">
        <ele>1013.829</ele>
        <time>2021-06-26T16:46:10Z</time>
      </trkpt>
      <trkpt lat="45.12918" lon="5.58512">
        <ele>1014.551</ele>
        <time>2021-06-26T16:46:15Z</time>
      </trkpt>
      <trkpt lat="45.12918" lon="5.58517">
        <ele>1014.215</ele>
        <time>2021-06-26T16:46:20Z</time>
      </trkpt>
      <trkpt lat="45.12919" lon="5.58514">
        <ele>1013.839</ele>
        <time>2021-06-26T16:46:25Z</time>
      </trkpt>
      <trkpt lat="45.12919" lon="5.58513">
        <ele>1014.243</ele>
        <time>2021-06-26T16:46:30Z</time>
      </trkpt>
      <trkpt lat="45.12922" lon="5.58509">
        <ele>1014.836</ele>
        <time>2021-06-26T16:46:35Z</time>
      </trkpt>
      <trkpt lat="45.12923" lon="5.58512">
        <ele>1013.357</ele>
        <time>2021-06-26T16:46:40Z</time>
      </trkpt>
      <trkpt lat="45.12923" lon="5.58512">
        <ele>1013.501</ele>
        <time>2021-06-26T16:46:45Z</time>
      </trkpt>
      <trkpt lat="45.12923" lon="5.58511">
        <ele>1013.456</ele>
        <time>2021-06-26T16:46:50Z</time>
      </trkpt>
      <trkpt lat="45.12923" lon="5.58511">
        <ele>1013.417</ele>
        <time>2021-06-26T16:46:55Z</time>
      </trkpt>
    </trkseg>
  </trk>
</gpx>